ftp/pub/palmer/observations_modified/2019/November/AR191128_AWS3.txt
Download
Sample DateTime Unit Id WS Avg 2min WD Avg 2min WGS 10min WGD 10min Air Temp Rel Humidity Dew Point Pyranometer Quantum Air Pressure Snow Level Rainfall PW Current Visibility CBase 1 CBase 2 CBase 3 Vert Vis
2019/11/28 00:00:00 AWS3 3.26 151 4.22 152 0.9 97 0.5 NA NA 1000.4 NA NA M NA NA NA NA
2019/11/28 00:01:00 AWS3 3.27 144 4.12 149 0.9 97 0.5 NA NA 1000.4 NA NA M NA NA NA NA
2019/11/28 00:02:00 AWS3 3.25 147 4.12 151 0.9 97 0.5 NA NA 1000.3 NA NA M NA NA NA NA
2019/11/28 00:03:00 AWS3 3.69 153 4.12 146 0.9 97 0.5 NA NA 1000.4 NA NA M NA NA NA NA
2019/11/28 00:04:00 AWS3 3.91 153 4.42 154 0.9 97 0.5 NA NA 1000.3 NA NA M NA NA NA NA
2019/11/28 00:05:00 AWS3 3.88 152 4.42 154 0.9 97 0.5 NA NA 1000.4 NA NA M NA NA NA NA
2019/11/28 00:06:00 AWS3 4.01 151 4.42 154 0.9 97 0.5 NA NA 1000.4 NA NA M NA NA NA NA
2019/11/28 00:07:00 AWS3 3.76 150 4.42 154 0.9 97 0.5 NA NA 1000.4 NA NA M NA NA NA NA
2019/11/28 00:08:00 AWS3 3.37 150 4.42 154 0.9 97 0.5 NA NA 1000.4 NA NA M NA NA NA NA
2019/11/28 00:09:00 AWS3 3.47 149 4.42 154 0.9 97 0.5 NA NA 1000.3 NA NA M NA NA NA NA
2019/11/28 00:10:00 AWS3 3.68 147 4.42 154 0.9 97 0.4 NA NA 1000.2 NA NA M NA NA NA NA
2019/11/28 00:11:00 AWS3 3.75 147 4.42 154 0.9 97 0.4 NA NA 1000.4 NA NA M NA NA NA NA
2019/11/28 00:12:00 AWS3 3.46 148 4.42 154 0.9 96 0.4 NA NA 1000.3 NA NA M NA NA NA NA
2019/11/28 00:13:00 AWS3 3.49 146 4.42 154 1.0 96 0.4 NA NA 1000.3 NA NA M NA NA NA NA
2019/11/28 00:14:00 AWS3 3.68 144 4.42 154 1.0 96 0.4 NA NA 1000.4 NA NA M NA NA NA NA
2019/11/28 00:15:00 AWS3 3.70 144 4.42 154 1.0 96 0.4 NA NA 1000.4 NA NA M NA NA NA NA
2019/11/28 00:16:00 AWS3 3.75 148 4.37 145 1.0 96 0.4 NA NA 1000.4 NA NA M NA NA NA NA
2019/11/28 00:17:00 AWS3 3.75 149 4.37 145 1.0 96 0.4 NA NA 1000.4 NA NA M NA NA NA NA
2019/11/28 00:18:00 AWS3 3.85 148 4.37 145 1.0 96 0.4 NA NA 1000.3 NA NA M NA NA NA NA
2019/11/28 00:19:00 AWS3 4.02 146 4.68 149 1.0 96 0.4 NA NA 1000.4 NA NA M NA NA NA NA
2019/11/28 00:20:00 AWS3 4.04 146 4.68 149 1.0 96 0.4 NA NA 1000.4 NA NA M NA NA NA NA
2019/11/28 00:21:00 AWS3 3.91 147 4.68 149 1.0 96 0.4 NA NA 1000.3 NA NA M NA NA NA NA
2019/11/28 00:22:00 AWS3 3.85 147 4.68 149 0.9 96 0.4 NA NA 1000.4 NA NA M NA NA NA NA
2019/11/28 00:23:00 AWS3 3.70 148 4.68 149 0.9 96 0.4 NA NA 1000.3 NA NA M NA NA NA NA
2019/11/28 00:24:00 AWS3 3.45 150 4.68 149 0.8 97 0.4 NA NA 1000.3 NA NA M NA NA NA NA
2019/11/28 00:25:00 AWS3 3.42 151 4.68 149 0.8 97 0.4 NA NA 1000.3 NA NA M NA NA NA NA
2019/11/28 00:26:00 AWS3 3.39 150 4.68 149 0.8 97 0.4 NA NA 1000.4 NA NA M NA NA NA NA
2019/11/28 00:27:00 AWS3 3.25 150 4.68 149 0.8 97 0.4 NA NA 1000.4 NA NA M NA NA NA NA
2019/11/28 00:28:00 AWS3 3.35 144 4.68 149 0.8 97 0.4 NA NA 1000.4 NA NA M NA NA NA NA
2019/11/28 00:29:00 AWS3 3.25 141 4.42 145 0.8 97 0.4 NA NA 1000.4 NA NA M NA NA NA NA
2019/11/28 00:30:00 AWS3 2.87 142 4.32 135 0.8 97 0.3 NA NA 1000.4 NA NA M NA NA NA NA
2019/11/28 00:31:00 AWS3 3.06 144 4.32 135 0.8 97 0.3 NA NA 1000.4 NA NA M NA NA NA NA
2019/11/28 00:32:00 AWS3 3.41 145 4.06 142 0.7 97 0.3 NA NA 1000.4 NA NA M NA NA NA NA
2019/11/28 00:33:00 AWS3 3.23 142 3.96 145 0.7 97 0.3 NA NA 1000.3 NA NA M NA NA NA NA
2019/11/28 00:34:00 AWS3 3.17 141 3.96 145 0.7 97 0.2 NA NA 1000.4 NA NA M NA NA NA NA
2019/11/28 00:35:00 AWS3 3.29 141 3.96 145 0.7 97 0.2 NA NA 1000.4 NA NA M NA NA NA NA
2019/11/28 00:36:00 AWS3 3.24 143 3.96 145 0.7 97 0.3 NA NA 1000.4 NA NA M NA NA NA NA
2019/11/28 00:37:00 AWS3 2.98 143 3.96 145 0.7 97 0.3 NA NA 1000.4 NA NA M NA NA NA NA
2019/11/28 00:38:00 AWS3 2.81 144 3.96 145 0.7 97 0.3 NA NA 1000.3 NA NA M NA NA NA NA
2019/11/28 00:39:00 AWS3 2.73 145 3.96 145 0.7 97 0.3 NA NA 1000.4 NA NA M NA NA NA NA
2019/11/28 00:40:00 AWS3 2.55 146 3.96 145 0.7 97 0.3 NA NA 1000.4 NA NA M NA NA NA NA
2019/11/28 00:41:00 AWS3 2.17 145 3.81 137 0.7 97 0.3 NA NA 1000.5 NA NA M NA NA NA NA
2019/11/28 00:42:00 AWS3 2.11 142 3.81 137 0.7 97 0.3 NA NA 1000.4 NA NA M NA NA NA NA
2019/11/28 00:43:00 AWS3 2.34 140 3.81 137 0.6 97 0.2 NA NA 1000.1 NA NA M NA NA NA NA
2019/11/28 00:44:00 AWS3 2.48 141 3.76 144 0.6 97 0.2 NA NA 1000.3 NA NA M NA NA NA NA
2019/11/28 00:45:00 AWS3 2.71 142 3.40 141 0.6 97 0.2 NA NA 1000.4 NA NA M NA NA NA NA
2019/11/28 00:46:00 AWS3 2.92 141 3.34 146 0.6 97 0.1 NA NA 1000.4 NA NA M NA NA NA NA
2019/11/28 00:47:00 AWS3 3.05 144 3.34 146 0.6 97 0.1 NA NA 1000.4 NA NA M NA NA NA NA
2019/11/28 00:48:00 AWS3 2.91 147 3.34 146 0.6 97 0.1 NA NA 1000.4 NA NA M NA NA NA NA
2019/11/28 00:49:00 AWS3 2.83 147 3.34 146 0.6 97 0.2 NA NA 1000.3 NA NA M NA NA NA NA
2019/11/28 00:50:00 AWS3 2.73 145 3.34 146 0.6 97 0.2 NA NA 1000.4 NA NA M NA NA NA NA
2019/11/28 00:51:00 AWS3 2.49 145 3.34 146 0.6 97 0.2 NA NA 1000.3 NA NA M NA NA NA NA
2019/11/28 00:52:00 AWS3 2.57 147 3.34 146 0.6 97 0.2 NA NA 1000.4 NA NA M NA NA NA NA
2019/11/28 00:53:00 AWS3 2.76 149 3.34 146 0.6 97 0.2 NA NA 1000.4 NA NA M NA NA NA NA
2019/11/28 00:54:00 AWS3 2.81 147 3.55 152 0.6 97 0.2 NA NA 1000.3 NA NA M NA NA NA NA
2019/11/28 00:55:00 AWS3 2.71 144 3.55 152 0.6 97 0.2 NA NA 1000.3 NA NA M NA NA NA NA
2019/11/28 00:56:00 AWS3 2.63 143 3.55 152 0.6 97 0.2 NA NA 1000.4 NA NA M NA NA NA NA
2019/11/28 00:57:00 AWS3 2.79 147 3.65 144 0.6 97 0.2 NA NA 1000.4 NA NA M NA NA NA NA
2019/11/28 00:58:00 AWS3 3.00 151 3.65 144 0.6 97 0.2 NA NA 1000.4 NA NA M NA NA NA NA
2019/11/28 00:59:00 AWS3 3.28 151 3.65 153 0.7 97 0.3 NA NA 1000.3 NA NA M NA NA NA NA
2019/11/28 01:00:00 AWS3 3.27 149 3.65 153 0.7 97 0.3 NA NA 1000.3 NA NA M NA NA NA NA
2019/11/28 01:01:00 AWS3 3.06 146 3.65 150 0.7 97 0.3 NA NA 1000.4 NA NA M NA NA NA NA
2019/11/28 01:02:00 AWS3 3.11 148 3.65 146 0.7 97 0.3 NA NA 1000.4 NA NA M NA NA NA NA
2019/11/28 01:03:00 AWS3 3.31 148 3.81 149 0.7 98 0.4 NA NA 1000.3 NA NA M NA NA NA NA
2019/11/28 01:04:00 AWS3 3.37 145 3.81 149 0.7 98 0.4 NA NA 1000.3 NA NA M NA NA NA NA
2019/11/28 01:05:00 AWS3 3.19 146 3.81 149 0.7 98 0.4 NA NA 1000.4 NA NA M NA NA NA NA
2019/11/28 01:06:00 AWS3 3.07 148 3.81 149 0.7 98 0.5 NA NA 1000.4 NA NA M NA NA NA NA
2019/11/28 01:07:00 AWS3 2.80 148 3.81 149 0.8 98 0.5 NA NA 1000.5 NA NA M NA NA NA NA
2019/11/28 01:08:00 AWS3 2.38 148 3.81 149 0.8 98 0.4 NA NA 1000.4 NA NA M NA NA NA NA
2019/11/28 01:09:00 AWS3 2.58 148 3.81 149 0.8 98 0.4 NA NA 1000.4 NA NA M NA NA NA NA
2019/11/28 01:10:00 AWS3 2.70 144 3.81 149 0.8 98 0.4 NA NA 1000.5 NA NA M NA NA NA NA
2019/11/28 01:11:00 AWS3 2.51 141 3.81 149 0.8 98 0.4 NA NA 1000.5 NA NA M NA NA NA NA
2019/11/28 01:12:00 AWS3 2.58 142 3.81 149 0.8 98 0.5 NA NA 1000.5 NA NA M NA NA NA NA
2019/11/28 01:13:00 AWS3 2.55 143 3.76 144 0.8 98 0.5 NA NA 1000.4 NA NA M NA NA NA NA
2019/11/28 01:14:00 AWS3 2.61 144 3.45 148 0.8 98 0.6 NA NA 1000.4 NA NA M NA NA NA NA
2019/11/28 01:15:00 AWS3 2.52 146 3.45 148 0.9 98 0.6 NA NA 1000.5 NA NA M NA NA NA NA
2019/11/28 01:16:00 AWS3 2.53 146 3.34 145 0.9 98 0.6 NA NA 1000.5 NA NA M NA NA NA NA
2019/11/28 01:17:00 AWS3 2.85 145 3.40 156 0.9 98 0.6 NA NA 1000.5 NA NA M NA NA NA NA
2019/11/28 01:18:00 AWS3 3.04 147 3.60 152 1.0 98 0.7 NA NA 1000.7 NA NA M NA NA NA NA
2019/11/28 01:19:00 AWS3 3.07 148 3.60 152 1.0 98 0.7 NA NA 1000.6 NA NA M NA NA NA NA
2019/11/28 01:20:00 AWS3 2.80 148 3.60 152 1.0 98 0.7 NA NA 1000.6 NA NA M NA NA NA NA
2019/11/28 01:21:00 AWS3 2.42 149 3.60 152 1.0 97 0.6 NA NA 1000.6 NA NA M NA NA NA NA
2019/11/28 01:22:00 AWS3 2.36 149 3.60 152 1.0 97 0.7 NA NA 1000.4 NA NA M NA NA NA NA
2019/11/28 01:23:00 AWS3 2.66 149 3.60 152 1.0 97 0.7 NA NA 1000.5 NA NA M NA NA NA NA
2019/11/28 01:24:00 AWS3 2.82 148 3.60 152 1.0 97 0.7 NA NA 1000.6 NA NA M NA NA NA NA
2019/11/28 01:25:00 AWS3 2.80 147 3.60 152 1.0 97 0.6 NA NA 1000.4 NA NA M NA NA NA NA
2019/11/28 01:26:00 AWS3 2.78 149 3.60 152 1.0 97 0.7 NA NA 1000.6 NA NA M NA NA NA NA
2019/11/28 01:27:00 AWS3 2.72 147 3.60 152 1.0 97 0.6 NA NA 1000.6 NA NA M NA NA NA NA
2019/11/28 01:28:00 AWS3 2.76 146 3.34 143 1.0 97 0.6 NA NA 1000.5 NA NA M NA NA NA NA
2019/11/28 01:29:00 AWS3 2.76 146 3.24 147 1.0 97 0.6 NA NA 1000.4 NA NA M NA NA NA NA
2019/11/28 01:30:00 AWS3 2.83 145 3.24 147 1.0 97 0.6 NA NA 1000.6 NA NA M NA NA NA NA
2019/11/28 01:31:00 AWS3 2.86 149 3.24 147 1.0 97 0.6 NA NA 1000.4 NA NA M NA NA NA NA
2019/11/28 01:32:00 AWS3 2.64 150 3.24 147 1.0 97 0.6 NA NA 1000.5 NA NA M NA NA NA NA
2019/11/28 01:33:00 AWS3 2.68 150 3.24 147 1.0 97 0.6 NA NA 1000.5 NA NA M NA NA NA NA
2019/11/28 01:34:00 AWS3 2.61 153 3.24 147 1.1 97 0.6 NA NA 1000.5 NA NA M NA NA NA NA
2019/11/28 01:35:00 AWS3 2.53 150 3.29 155 1.1 97 0.6 NA NA 1000.3 NA NA M NA NA NA NA
2019/11/28 01:36:00 AWS3 2.68 149 3.29 155 1.0 97 0.6 NA NA 1000.5 NA NA M NA NA NA NA
2019/11/28 01:37:00 AWS3 2.75 152 3.29 155 1.0 97 0.6 NA NA 1000.5 NA NA M NA NA NA NA
2019/11/28 01:38:00 AWS3 2.80 151 3.29 155 1.0 97 0.6 NA NA 1000.5 NA NA M NA NA NA NA
2019/11/28 01:39:00 AWS3 2.76 152 3.29 155 1.0 97 0.6 NA NA 1000.5 NA NA M NA NA NA NA
2019/11/28 01:40:00 AWS3 2.61 155 3.29 155 1.0 97 0.6 NA NA 1000.5 NA NA M NA NA NA NA
2019/11/28 01:41:00 AWS3 2.48 155 3.29 155 1.0 97 0.6 NA NA 1000.4 NA NA M NA NA NA NA
2019/11/28 01:42:00 AWS3 2.51 157 3.29 155 1.0 97 0.6 NA NA 1000.5 NA NA M NA NA NA NA
2019/11/28 01:43:00 AWS3 2.56 158 3.29 155 1.0 97 0.6 NA NA 1000.4 NA NA M NA NA NA NA
2019/11/28 01:44:00 AWS3 2.42 156 3.29 155 1.0 97 0.6 NA NA 1000.5 NA NA M NA NA NA NA
2019/11/28 01:45:00 AWS3 2.34 155 3.14 145 1.0 97 0.6 NA NA 1000.4 NA NA M NA NA NA NA
2019/11/28 01:46:00 AWS3 2.48 155 3.14 145 1.0 97 0.6 NA NA 1000.5 NA NA M NA NA NA NA
2019/11/28 01:47:00 AWS3 2.50 157 3.14 145 1.0 97 0.6 NA NA 1000.5 NA NA M NA NA NA NA
2019/11/28 01:48:00 AWS3 2.47 156 3.14 145 1.0 97 0.6 NA NA 1000.6 NA NA M NA NA NA NA
2019/11/28 01:49:00 AWS3 2.47 154 3.14 145 1.0 97 0.6 NA NA 1000.6 NA NA M NA NA NA NA
2019/11/28 01:50:00 AWS3 2.45 151 3.14 145 1.0 97 0.6 NA NA 1000.4 NA NA M NA NA NA NA
2019/11/28 01:51:00 AWS3 2.40 151 3.14 145 1.0 97 0.6 NA NA 1000.6 NA NA M NA NA NA NA
2019/11/28 01:52:00 AWS3 2.08 157 3.14 145 1.0 97 0.6 NA NA 1000.6 NA NA M NA NA NA NA
2019/11/28 01:53:00 AWS3 2.06 159 2.93 154 1.0 97 0.6 NA NA 1000.6 NA NA M NA NA NA NA
2019/11/28 01:54:00 AWS3 2.21 160 2.93 154 1.0 97 0.6 NA NA 1000.7 NA NA M NA NA NA NA
2019/11/28 01:55:00 AWS3 2.04 159 2.93 154 1.0 97 0.6 NA NA 1000.6 NA NA M NA NA NA NA
2019/11/28 01:56:00 AWS3 1.94 158 2.93 154 1.0 97 0.6 NA NA 1000.6 NA NA M NA NA NA NA
2019/11/28 01:57:00 AWS3 1.87 159 2.93 154 1.0 97 0.5 NA NA 1000.7 NA NA M NA NA NA NA
2019/11/28 01:58:00 AWS3 1.92 161 2.88 149 1.0 97 0.5 NA NA 1000.7 NA NA M NA NA NA NA
2019/11/28 01:59:00 AWS3 2.26 167 2.88 149 0.9 97 0.5 NA NA 1000.7 NA NA M NA NA NA NA
2019/11/28 02:00:00 AWS3 2.57 172 2.98 170 1.0 97 0.5 NA NA 1000.7 NA NA M NA NA NA NA
2019/11/28 02:01:00 AWS3 2.79 174 3.09 172 1.0 97 0.5 NA NA 1000.8 NA NA M NA NA NA NA
2019/11/28 02:02:00 AWS3 2.72 175 3.09 172 1.0 97 0.5 NA NA 1000.8 NA NA M NA NA NA NA
2019/11/28 02:03:00 AWS3 2.48 174 3.09 172 1.0 97 0.5 NA NA 1000.6 NA NA M NA NA NA NA
2019/11/28 02:04:00 AWS3 2.35 174 3.09 172 0.9 97 0.5 NA NA 1000.6 NA NA M NA NA NA NA
2019/11/28 02:05:00 AWS3 2.44 177 3.09 172 0.9 97 0.5 NA NA 1000.7 NA NA M NA NA NA NA
2019/11/28 02:06:00 AWS3 2.63 177 3.09 172 0.9 97 0.5 NA NA 1000.8 NA NA M NA NA NA NA
2019/11/28 02:07:00 AWS3 2.72 178 3.09 177 0.9 97 0.5 NA NA 1000.7 NA NA M NA NA NA NA
2019/11/28 02:08:00 AWS3 2.70 180 3.09 177 0.9 97 0.5 NA NA 1000.6 NA NA M NA NA NA NA
2019/11/28 02:09:00 AWS3 2.50 183 3.09 177 0.9 97 0.5 NA NA 1000.6 NA NA M NA NA NA NA
2019/11/28 02:10:00 AWS3 2.34 186 3.09 177 0.9 97 0.5 NA NA 1000.8 NA NA M NA NA NA NA
2019/11/28 02:11:00 AWS3 2.47 186 3.09 177 0.9 97 0.5 NA NA 1000.7 NA NA M NA NA NA NA
2019/11/28 02:12:00 AWS3 2.43 186 3.09 177 0.9 97 0.5 NA NA 1000.8 NA NA M NA NA NA NA
2019/11/28 02:13:00 AWS3 2.30 188 3.09 177 0.9 97 0.5 NA NA 1000.7 NA NA M NA NA NA NA
2019/11/28 02:14:00 AWS3 2.39 190 3.09 177 0.9 97 0.5 NA NA 1000.7 NA NA M NA NA NA NA
2019/11/28 02:15:00 AWS3 2.35 190 3.09 177 1.0 97 0.6 NA NA 1000.7 NA NA M NA NA NA NA
2019/11/28 02:16:00 AWS3 2.33 191 3.09 177 1.0 97 0.6 NA NA 1000.8 NA NA M NA NA NA NA
2019/11/28 02:17:00 AWS3 2.35 195 2.88 186 1.0 97 0.6 NA NA 1000.8 NA NA M NA NA NA NA
2019/11/28 02:18:00 AWS3 2.36 200 2.88 186 1.0 97 0.6 NA NA 1000.8 NA NA M NA NA NA NA
2019/11/28 02:19:00 AWS3 2.38 203 2.88 186 1.0 97 0.6 NA NA 1000.7 NA NA M NA NA NA NA
2019/11/28 02:20:00 AWS3 2.37 200 2.88 186 1.0 97 0.6 NA NA 1000.9 NA NA M NA NA NA NA
2019/11/28 02:21:00 AWS3 2.39 201 2.62 205 1.0 97 0.6 NA NA 1000.8 NA NA M NA NA NA NA
2019/11/28 02:22:00 AWS3 2.29 204 2.62 205 1.0 97 0.6 NA NA 1000.8 NA NA M NA NA NA NA
2019/11/28 02:23:00 AWS3 2.21 202 2.62 205 1.0 97 0.6 NA NA 1000.8 NA NA M NA NA NA NA
2019/11/28 02:24:00 AWS3 2.29 203 2.62 205 1.0 97 0.6 NA NA 1000.8 NA NA M NA NA NA NA
2019/11/28 02:25:00 AWS3 2.20 205 2.62 205 1.0 97 0.6 NA NA 1000.7 NA NA M NA NA NA NA
2019/11/28 02:26:00 AWS3 2.13 204 2.62 205 1.0 98 0.7 NA NA 1000.8 NA NA M NA NA NA NA
2019/11/28 02:27:00 AWS3 2.28 202 2.62 205 1.0 98 0.7 NA NA 1000.9 NA NA M NA NA NA NA
2019/11/28 02:28:00 AWS3 2.26 202 2.62 205 1.0 98 0.7 NA NA 1000.8 NA NA M NA NA NA NA
2019/11/28 02:29:00 AWS3 2.17 204 2.62 205 1.0 98 0.7 NA NA 1000.7 NA NA M NA NA NA NA
2019/11/28 02:30:00 AWS3 2.25 205 2.62 205 1.0 97 0.6 NA NA 1000.6 NA NA M NA NA NA NA
2019/11/28 02:31:00 AWS3 2.35 205 2.62 205 1.0 97 0.6 NA NA 1000.7 NA NA M NA NA NA NA
2019/11/28 02:32:00 AWS3 2.24 206 2.62 205 0.9 97 0.5 NA NA 1000.8 NA NA M NA NA NA NA
2019/11/28 02:33:00 AWS3 2.34 204 2.62 201 0.9 97 0.5 NA NA 1000.6 NA NA M NA NA NA NA
2019/11/28 02:34:00 AWS3 2.46 203 2.62 205 0.9 97 0.5 NA NA 1000.6 NA NA M NA NA NA NA
2019/11/28 02:35:00 AWS3 2.42 203 2.68 202 0.8 98 0.5 NA NA 1000.6 NA NA M NA NA NA NA
2019/11/28 02:36:00 AWS3 2.47 200 2.68 197 0.8 98 0.5 NA NA 1000.7 NA NA M NA NA NA NA
2019/11/28 02:37:00 AWS3 2.44 197 2.73 197 0.8 98 0.5 NA NA 1000.5 NA NA M NA NA NA NA
2019/11/28 02:38:00 AWS3 2.49 198 2.78 195 0.8 98 0.5 NA NA 1000.6 NA NA M NA NA NA NA
2019/11/28 02:39:00 AWS3 2.47 198 2.78 195 0.8 98 0.5 NA NA 1000.5 NA NA M NA NA NA NA
2019/11/28 02:40:00 AWS3 2.37 196 2.78 195 0.8 98 0.5 NA NA 1000.7 NA NA M NA NA NA NA
2019/11/28 02:41:00 AWS3 2.34 195 2.78 195 0.8 98 0.5 NA NA 1000.7 NA NA M NA NA NA NA
2019/11/28 02:42:00 AWS3 2.28 199 2.78 195 0.8 98 0.5 NA NA 1000.6 NA NA M NA NA NA NA
2019/11/28 02:43:00 AWS3 2.17 202 2.78 195 0.7 98 0.5 NA NA 1000.8 NA NA M NA NA NA NA
2019/11/28 02:44:00 AWS3 2.01 204 2.78 195 0.7 98 0.5 NA NA 1000.7 NA NA M NA NA NA NA
2019/11/28 02:45:00 AWS3 2.09 207 2.78 195 0.7 98 0.5 NA NA 1000.7 NA NA M NA NA NA NA
2019/11/28 02:46:00 AWS3 1.78 212 2.78 195 0.7 98 0.4 NA NA 1000.8 NA NA M NA NA NA NA
2019/11/28 02:47:00 AWS3 1.51 223 2.78 195 0.7 98 0.4 NA NA 1000.8 NA NA M NA NA NA NA
2019/11/28 02:48:00 AWS3 1.68 233 2.57 204 0.6 98 0.3 NA NA 1000.9 NA NA M NA NA NA NA
2019/11/28 02:49:00 AWS3 1.71 238 2.57 204 0.5 98 0.2 NA NA 1000.8 NA NA M NA NA NA NA
2019/11/28 02:50:00 AWS3 1.91 240 2.57 204 0.4 98 0.1 NA NA 1000.8 NA NA M NA NA NA NA
2019/11/28 02:51:00 AWS3 2.16 240 2.57 204 0.3 98 0.1 NA NA 1000.8 NA NA M NA NA NA NA
2019/11/28 02:52:00 AWS3 2.07 240 2.57 204 0.3 98 -0.0 NA NA 1000.7 NA NA M NA NA NA NA
2019/11/28 02:53:00 AWS3 2.02 239 2.42 242 0.2 98 -0.0 NA NA 1000.7 NA NA M NA NA NA NA
2019/11/28 02:54:00 AWS3 2.26 236 2.42 233 0.2 98 -0.1 NA NA 1000.8 NA NA M NA NA NA NA
2019/11/28 02:55:00 AWS3 2.26 231 2.42 233 0.2 98 -0.1 NA NA 1000.6 NA NA M NA NA NA NA
2019/11/28 02:56:00 AWS3 2.15 229 2.42 233 0.2 98 -0.1 NA NA 1000.6 NA NA M NA NA NA NA
2019/11/28 02:57:00 AWS3 2.10 227 2.42 233 0.2 98 -0.1 NA NA 1000.8 NA NA M NA NA NA NA
2019/11/28 02:58:00 AWS3 1.98 222 2.42 233 0.2 98 -0.1 NA NA 1000.5 NA NA M NA NA NA NA
2019/11/28 02:59:00 AWS3 1.77 215 2.42 233 0.2 98 -0.1 NA NA 1000.6 NA NA M NA NA NA NA
2019/11/28 03:00:00 AWS3 1.88 207 2.42 201 0.2 98 -0.0 NA NA 1000.6 NA NA M NA NA NA NA
2019/11/28 03:01:00 AWS3 2.27 203 2.62 203 0.3 99 0.1 NA NA 1000.5 NA NA M NA NA NA NA
2019/11/28 03:02:00 AWS3 2.37 201 2.62 203 0.4 99 0.2 NA NA 1000.6 NA NA M NA NA NA NA
2019/11/28 03:03:00 AWS3 2.23 195 2.62 203 0.5 99 0.3 NA NA 1000.7 NA NA M NA NA NA NA
2019/11/28 03:04:00 AWS3 2.11 193 2.62 203 0.6 99 0.4 NA NA 1000.7 NA NA M NA NA NA NA
2019/11/28 03:05:00 AWS3 2.15 195 2.62 203 0.6 99 0.4 NA NA 1000.6 NA NA M NA NA NA NA
2019/11/28 03:06:00 AWS3 2.21 195 2.62 203 0.6 99 0.4 NA NA 1000.7 NA NA M NA NA NA NA
2019/11/28 03:07:00 AWS3 2.22 194 2.62 203 0.5 99 0.3 NA NA 1000.6 NA NA M NA NA NA NA
2019/11/28 03:08:00 AWS3 2.24 194 2.62 203 0.5 99 0.3 NA NA 1000.6 NA NA M NA NA NA NA
2019/11/28 03:09:00 AWS3 2.22 192 2.62 203 0.4 99 0.2 NA NA 1000.7 NA NA M NA NA NA NA
2019/11/28 03:10:00 AWS3 2.30 191 2.62 187 0.4 99 0.2 NA NA 1000.5 NA NA M NA NA NA NA
2019/11/28 03:11:00 AWS3 2.46 193 2.73 197 0.3 99 0.2 NA NA 1000.4 NA NA M NA NA NA NA
2019/11/28 03:12:00 AWS3 2.60 194 2.83 193 0.3 99 0.2 NA NA 1000.3 NA NA M NA NA NA NA
2019/11/28 03:13:00 AWS3 2.70 193 3.09 190 0.3 99 0.1 NA NA 1000.4 NA NA M NA NA NA NA
2019/11/28 03:14:00 AWS3 2.86 187 3.65 172 0.3 99 0.1 NA NA 1000.4 NA NA M NA NA NA NA
2019/11/28 03:15:00 AWS3 2.94 178 3.65 172 0.3 99 0.1 NA NA 1000.5 NA NA M NA NA NA NA
2019/11/28 03:16:00 AWS3 2.78 181 3.65 172 0.3 99 0.1 NA NA 1000.4 NA NA M NA NA NA NA
2019/11/28 03:17:00 AWS3 2.63 183 3.65 172 0.3 99 0.1 NA NA 1000.5 NA NA M NA NA NA NA
2019/11/28 03:18:00 AWS3 2.51 179 3.65 172 0.3 99 0.1 NA NA 1000.5 NA NA M NA NA NA NA
2019/11/28 03:19:00 AWS3 2.44 182 3.65 172 0.3 99 0.1 NA NA 1000.5 NA NA M NA NA NA NA
2019/11/28 03:20:00 AWS3 2.64 184 3.65 172 0.3 99 0.1 NA NA 1000.4 NA NA M NA NA NA NA
2019/11/28 03:21:00 AWS3 2.86 182 3.65 172 0.3 99 0.2 NA NA 1000.3 NA NA M NA NA NA NA
2019/11/28 03:22:00 AWS3 2.89 176 3.65 172 0.4 99 0.2 NA NA 1000.5 NA NA M NA NA NA NA
2019/11/28 03:23:00 AWS3 2.89 173 3.65 172 0.4 99 0.3 NA NA 1000.3 NA NA M NA NA NA NA
2019/11/28 03:24:00 AWS3 2.88 171 3.65 172 0.5 99 0.4 NA NA 1000.3 NA NA M NA NA NA NA
2019/11/28 03:25:00 AWS3 2.61 167 3.24 175 0.5 99 0.4 NA NA 1000.3 NA NA M NA NA NA NA
2019/11/28 03:26:00 AWS3 2.34 163 3.24 175 0.6 99 0.5 NA NA 1000.4 NA NA M NA NA NA NA
2019/11/28 03:27:00 AWS3 2.44 163 3.24 175 0.6 99 0.5 NA NA 1000.3 NA NA M NA NA NA NA
2019/11/28 03:28:00 AWS3 2.49 165 3.24 175 0.6 99 0.5 NA NA 1000.3 NA NA M NA NA NA NA
2019/11/28 03:29:00 AWS3 2.43 163 3.24 175 0.6 99 0.5 NA NA 1000.3 NA NA M NA NA NA NA
2019/11/28 03:30:00 AWS3 2.49 160 3.24 175 0.6 99 0.4 NA NA 1000.4 NA NA M NA NA NA NA
2019/11/28 03:31:00 AWS3 2.61 161 3.19 162 0.6 99 0.4 NA NA 1000.5 NA NA M NA NA NA NA
2019/11/28 03:32:00 AWS3 2.69 159 3.29 159 0.5 98 0.3 NA NA 1000.5 NA NA M NA NA NA NA
2019/11/28 03:33:00 AWS3 2.69 152 3.29 159 0.5 98 0.2 NA NA 1000.4 NA NA M NA NA NA NA
2019/11/28 03:34:00 AWS3 2.83 151 3.45 155 0.5 98 0.2 NA NA 1000.3 NA NA M NA NA NA NA
2019/11/28 03:35:00 AWS3 2.98 153 3.45 155 0.5 98 0.2 NA NA 1000.5 NA NA M NA NA NA NA
2019/11/28 03:36:00 AWS3 3.06 154 3.45 155 0.5 98 0.3 NA NA 1000.4 NA NA M NA NA NA NA
2019/11/28 03:37:00 AWS3 2.80 159 3.45 155 0.5 98 0.3 NA NA 1000.5 NA NA M NA NA NA NA
2019/11/28 03:38:00 AWS3 2.56 159 3.45 155 0.5 98 0.3 NA NA 1000.3 NA NA M NA NA NA NA
2019/11/28 03:39:00 AWS3 2.54 158 3.45 155 0.5 98 0.3 NA NA 1000.4 NA NA M NA NA NA NA
2019/11/28 03:40:00 AWS3 2.48 159 3.45 155 0.5 98 0.3 NA NA 1000.4 NA NA M NA NA NA NA
2019/11/28 03:41:00 AWS3 2.50 159 3.45 155 0.5 98 0.2 NA NA 1000.5 NA NA M NA NA NA NA
2019/11/28 03:42:00 AWS3 2.66 159 3.45 155 0.5 98 0.2 NA NA 1000.4 NA NA M NA NA NA NA
2019/11/28 03:43:00 AWS3 2.75 158 3.45 155 0.5 98 0.2 NA NA 1000.2 NA NA M NA NA NA NA
2019/11/28 03:44:00 AWS3 2.69 156 3.40 152 0.5 98 0.2 NA NA 1000.4 NA NA M NA NA NA NA
2019/11/28 03:45:00 AWS3 2.65 153 3.40 152 0.4 98 0.2 NA NA 1000.4 NA NA M NA NA NA NA
2019/11/28 03:46:00 AWS3 2.62 154 3.34 155 0.5 98 0.2 NA NA 1000.5 NA NA M NA NA NA NA
2019/11/28 03:47:00 AWS3 2.89 153 3.70 150 0.5 98 0.2 NA NA 1000.5 NA NA M NA NA NA NA
2019/11/28 03:48:00 AWS3 3.11 153 3.70 150 0.5 98 0.2 NA NA 1000.5 NA NA M NA NA NA NA
2019/11/28 03:49:00 AWS3 2.55 153 3.70 150 0.5 98 0.2 NA NA 1000.5 NA NA M NA NA NA NA
2019/11/28 03:50:00 AWS3 2.45 155 3.70 150 0.6 98 0.3 NA NA 1000.5 NA NA M NA NA NA NA
2019/11/28 03:51:00 AWS3 3.14 156 3.81 151 0.6 98 0.3 NA NA 1000.5 NA NA M NA NA NA NA
2019/11/28 03:52:00 AWS3 2.97 156 3.81 151 0.6 98 0.3 NA NA 1000.5 NA NA M NA NA NA NA
2019/11/28 03:53:00 AWS3 2.66 157 3.81 151 0.6 98 0.3 NA NA 1000.5 NA NA M NA NA NA NA
2019/11/28 03:54:00 AWS3 3.04 157 3.81 152 0.6 98 0.2 NA NA 1000.4 NA NA M NA NA NA NA
2019/11/28 03:55:00 AWS3 3.04 155 3.81 152 0.6 97 0.2 NA NA 1000.4 NA NA M NA NA NA NA
2019/11/28 03:56:00 AWS3 2.78 151 3.81 152 0.6 97 0.2 NA NA 1000.4 NA NA M NA NA NA NA
2019/11/28 03:57:00 AWS3 3.06 150 3.81 152 0.6 97 0.2 NA NA 1000.5 NA NA M NA NA NA NA
2019/11/28 03:58:00 AWS3 3.64 148 4.37 150 0.6 97 0.2 NA NA 1000.4 NA NA M NA NA NA NA
2019/11/28 03:59:00 AWS3 3.91 149 4.63 152 0.6 97 0.2 NA NA 1000.5 NA NA M NA NA NA NA
2019/11/28 04:00:00 AWS3 3.75 151 4.63 152 0.7 97 0.2 NA NA 1000.4 NA NA M NA NA NA NA
2019/11/28 04:02:02 AWS3 3.35 157 4.63 152 0.7 97 0.3 NA NA 1000.4 NA NA M NA NA NA NA
2019/11/28 04:03:01 AWS3 2.95 159 4.63 152 0.7 97 0.3 NA NA 1000.3 NA NA M NA NA NA NA
2019/11/28 04:04:01 AWS3 3.36 158 4.63 152 0.7 97 0.3 NA NA 1000.4 NA NA M NA NA NA NA
2019/11/28 04:05:01 AWS3 3.86 161 4.78 166 0.7 97 0.3 NA NA 1000.4 NA NA M NA NA NA NA
2019/11/28 04:06:02 AWS3 4.35 166 4.99 167 0.7 97 0.2 NA NA 1000.3 NA NA M NA NA NA NA
2019/11/28 04:07:01 AWS3 4.51 163 4.99 167 0.6 97 0.1 NA NA 1000.3 NA NA M NA NA NA NA
2019/11/28 04:08:01 AWS3 4.11 161 4.99 167 0.6 96 0.1 NA NA 1000.3 NA NA M NA NA NA NA
2019/11/28 04:09:01 AWS3 3.56 158 4.99 167 0.5 96 -0.0 NA NA 1000.2 NA NA M NA NA NA NA
2019/11/28 04:10:01 AWS3 3.59 152 4.99 167 0.4 96 -0.1 NA NA 1000.2 NA NA M NA NA NA NA
2019/11/28 04:11:02 AWS3 4.36 152 5.04 153 0.3 96 -0.2 NA NA 1000.2 NA NA M NA NA NA NA
2019/11/28 04:12:01 AWS3 4.26 152 5.04 153 0.3 97 -0.2 NA NA 1000.3 NA NA M NA NA NA NA
2019/11/28 04:13:00 AWS3 3.76 152 5.04 153 0.3 97 -0.2 NA NA 1000.2 NA NA M NA NA NA NA
2019/11/28 04:14:01 AWS3 3.69 150 5.04 153 0.3 97 -0.1 NA NA 1000.3 NA NA M NA NA NA NA
2019/11/28 04:15:00 AWS3 3.66 150 5.04 153 0.3 97 -0.1 NA NA 1000.1 NA NA M NA NA NA NA
2019/11/28 04:16:01 AWS3 3.76 150 5.04 153 0.4 97 -0.1 NA NA 1000.3 NA NA M NA NA NA NA
2019/11/28 04:17:01 AWS3 3.61 144 5.04 153 0.4 97 -0.0 NA NA 1000.4 NA NA M NA NA NA NA
2019/11/28 04:18:00 AWS3 3.61 145 5.04 153 0.4 97 -0.0 NA NA 1000.3 NA NA M NA NA NA NA
2019/11/28 04:19:01 AWS3 3.87 151 5.04 153 0.4 97 -0.0 NA NA 1000.4 NA NA M NA NA NA NA
2019/11/28 04:20:01 AWS3 3.80 150 5.04 153 0.3 97 -0.1 NA NA 1000.4 NA NA M NA NA NA NA
2019/11/28 04:21:00 AWS3 3.67 149 4.53 155 0.3 97 -0.2 NA NA 1000.5 NA NA M NA NA NA NA
2019/11/28 04:22:00 AWS3 3.77 148 4.48 142 0.2 97 -0.2 NA NA 1000.5 NA NA M NA NA NA NA
2019/11/28 04:23:01 AWS3 4.03 151 4.48 160 0.2 97 -0.2 NA NA 1000.5 NA NA M NA NA NA NA
2019/11/28 04:24:01 AWS3 3.98 156 4.48 160 0.2 97 -0.2 NA NA 1000.5 NA NA M NA NA NA NA
2019/11/28 04:25:01 AWS3 3.50 159 4.48 160 0.3 97 -0.2 NA NA 1000.4 NA NA M NA NA NA NA
2019/11/28 04:26:01 AWS3 3.49 161 4.48 160 0.3 97 -0.2 NA NA 1000.4 NA NA M NA NA NA NA
2019/11/28 04:27:01 AWS3 3.78 157 4.78 160 0.3 97 -0.2 NA NA 1000.4 NA NA M NA NA NA NA
2019/11/28 04:28:01 AWS3 4.17 149 5.35 145 0.3 97 -0.2 NA NA 1000.4 NA NA M NA NA NA NA
2019/11/28 04:29:01 AWS3 4.87 147 5.40 144 0.2 97 -0.2 NA NA 1000.4 NA NA M NA NA NA NA
2019/11/28 04:30:01 AWS3 4.91 148 5.45 153 0.2 97 -0.2 NA NA 1000.3 NA NA M NA NA NA NA
2019/11/28 04:31:01 AWS3 4.80 152 5.45 152 0.2 97 -0.3 NA NA 1000.4 NA NA M NA NA NA NA
2019/11/28 04:32:01 AWS3 4.71 153 5.45 152 0.1 97 -0.3 NA NA 1000.4 NA NA M NA NA NA NA
2019/11/28 04:33:01 AWS3 4.08 154 5.45 152 0.1 97 -0.3 NA NA 1000.4 NA NA M NA NA NA NA
2019/11/28 04:34:01 AWS3 4.19 156 5.45 152 0.1 97 -0.3 NA NA 1000.4 NA NA M NA NA NA NA
2019/11/28 04:35:01 AWS3 4.66 156 5.71 160 0.1 97 -0.3 NA NA 1000.4 NA NA M NA NA NA NA
2019/11/28 04:36:02 AWS3 4.72 157 5.71 160 0.1 97 -0.2 NA NA 1000.4 NA NA M NA NA NA NA
2019/11/28 04:37:01 AWS3 4.73 154 5.71 160 0.2 97 -0.2 NA NA 1000.4 NA NA M NA NA NA NA
2019/11/28 04:38:01 AWS3 4.40 153 5.71 160 0.2 97 -0.1 NA NA 1000.4 NA NA M NA NA NA NA
2019/11/28 04:39:01 AWS3 4.45 153 5.71 160 0.2 97 -0.2 NA NA 1000.3 NA NA M NA NA NA NA
2019/11/28 04:40:01 AWS3 4.52 153 5.71 160 0.2 97 -0.2 NA NA 1000.4 NA NA M NA NA NA NA
2019/11/28 04:41:02 AWS3 4.29 155 5.71 160 0.2 97 -0.2 NA NA 1000.4 NA NA M NA NA NA NA
2019/11/28 04:42:01 AWS3 4.59 160 5.71 160 0.2 97 -0.2 NA NA 1000.4 NA NA M NA NA NA NA
2019/11/28 04:43:02 AWS3 4.85 166 5.71 160 0.2 97 -0.1 NA NA 1000.4 NA NA M NA NA NA NA
2019/11/28 04:44:01 AWS3 3.91 168 5.71 160 0.3 97 -0.1 NA NA 1000.4 NA NA M NA NA NA NA
2019/11/28 04:45:02 AWS3 3.72 160 5.66 152 0.3 97 -0.0 NA NA 1000.3 NA NA M NA NA NA NA
2019/11/28 04:46:02 AWS3 4.66 151 5.66 150 0.4 97 -0.0 NA NA 1000.4 NA NA M NA NA NA NA
2019/11/28 04:47:02 AWS3 5.23 151 5.81 157 0.4 97 -0.1 NA NA 1000.4 NA NA M NA NA NA NA
2019/11/28 04:48:01 AWS3 4.99 153 5.81 157 0.3 97 -0.1 NA NA 1000.3 NA NA M NA NA NA NA
2019/11/28 04:49:01 AWS3 4.66 153 5.81 157 0.3 97 -0.2 NA NA 1000.3 NA NA M NA NA NA NA
2019/11/28 04:50:01 AWS3 4.90 154 5.81 157 0.3 97 -0.2 NA NA 1000.3 NA NA M NA NA NA NA
2019/11/28 04:51:01 AWS3 5.10 153 6.22 143 0.3 96 -0.2 NA NA 1000.3 NA NA M NA NA NA NA
2019/11/28 04:52:01 AWS3 5.27 151 6.22 143 0.3 96 -0.2 NA NA 1000.3 NA NA M NA NA NA NA
2019/11/28 04:53:01 AWS3 5.56 151 6.22 143 0.4 96 -0.2 NA NA 1000.3 NA NA M NA NA NA NA
2019/11/28 04:54:03 AWS3 5.45 151 6.22 143 0.5 96 -0.1 NA NA 1000.3 NA NA M NA NA NA NA
2019/11/28 04:55:02 AWS3 4.93 150 6.22 143 0.5 96 -0.1 NA NA 1000.3 NA NA M NA NA NA NA
2019/11/28 04:56:02 AWS3 5.17 150 6.22 143 0.6 95 -0.1 NA NA 1000.3 NA NA M NA NA NA NA
2019/11/28 04:57:01 AWS3 5.45 147 6.22 143 0.6 95 -0.1 NA NA 1000.3 NA NA M NA NA NA NA
2019/11/28 04:58:01 AWS3 5.77 143 6.64 145 0.7 95 -0.1 NA NA 1000.3 NA NA M NA NA NA NA
2019/11/28 04:59:01 AWS3 5.97 144 6.64 145 0.7 94 -0.1 NA NA 1000.2 NA NA M NA NA NA NA
2019/11/28 05:00:01 AWS3 5.58 147 6.64 145 0.7 94 -0.2 NA NA 1000.3 NA NA M NA NA NA NA
2019/11/28 05:01:01 AWS3 5.19 150 6.64 145 0.8 93 -0.2 NA NA 1000.3 NA NA M NA NA NA NA
2019/11/28 05:02:01 AWS3 5.22 151 6.64 145 0.7 93 -0.3 NA NA 1000.3 NA NA M NA NA NA NA
2019/11/28 05:03:01 AWS3 5.79 150 6.69 153 0.7 93 -0.3 NA NA 1000.2 NA NA M NA NA NA NA
2019/11/28 05:04:01 AWS3 5.84 148 6.69 153 0.7 93 -0.4 NA NA 1000.3 NA NA M NA NA NA NA
2019/11/28 05:05:01 AWS3 5.55 146 6.69 153 0.6 93 -0.4 NA NA 1000.3 NA NA M NA NA NA NA
2019/11/28 05:06:01 AWS3 5.54 146 6.69 153 0.6 93 -0.4 NA NA 1000.3 NA NA M NA NA NA NA
2019/11/28 05:07:01 AWS3 5.54 144 6.69 153 0.6 93 -0.4 NA NA 1000.2 NA NA M NA NA NA NA
2019/11/28 05:08:00 AWS3 5.17 142 6.69 153 0.5 93 -0.4 NA NA 1000.2 NA NA M NA NA NA NA
2019/11/28 05:09:01 AWS3 5.03 141 6.69 153 0.5 93 -0.4 NA NA 1000.3 NA NA M NA NA NA NA
2019/11/28 05:10:00 AWS3 5.24 143 6.69 153 0.5 94 -0.5 NA NA 1000.3 NA NA M NA NA NA NA
2019/11/28 05:11:02 AWS3 5.51 142 6.69 153 0.4 94 -0.5 NA NA 1000.1 NA NA M NA NA NA NA
2019/11/28 05:12:00 AWS3 5.65 142 6.69 153 0.5 94 -0.4 NA NA 1000.2 NA NA M NA NA NA NA
2019/11/28 05:13:01 AWS3 5.72 142 6.64 148 0.5 94 -0.3 NA NA 1000.2 NA NA M NA NA NA NA
2019/11/28 05:14:01 AWS3 5.82 140 6.64 148 0.5 94 -0.3 NA NA 1000.2 NA NA M NA NA NA NA
2019/11/28 05:15:01 AWS3 6.06 142 6.64 148 0.6 94 -0.3 NA NA 1000.2 NA NA M NA NA NA NA
2019/11/28 05:16:01 AWS3 6.19 138 6.64 148 0.6 94 -0.3 NA NA 1000.2 NA NA M NA NA NA NA
2019/11/28 05:17:01 AWS3 5.94 141 6.64 144 0.5 94 -0.4 NA NA 1000.2 NA NA M NA NA NA NA
2019/11/28 05:18:01 AWS3 6.02 144 6.64 144 0.4 94 -0.5 NA NA 1000.2 NA NA M NA NA NA NA
2019/11/28 05:19:00 AWS3 6.04 143 6.64 144 0.3 94 -0.5 NA NA 1000.1 NA NA M NA NA NA NA
2019/11/28 05:20:01 AWS3 5.62 147 6.64 144 0.3 94 -0.5 NA NA 1000.1 NA NA M NA NA NA NA
2019/11/28 05:21:01 AWS3 5.44 148 6.64 144 0.3 94 -0.5 NA NA 1000.0 NA NA M NA NA NA NA
2019/11/28 05:22:01 AWS3 5.60 145 6.64 144 0.3 94 -0.5 NA NA 1000.0 NA NA M NA NA NA NA
2019/11/28 05:23:00 AWS3 5.55 145 6.64 144 0.4 95 -0.4 NA NA 1000.0 NA NA M NA NA NA NA
2019/11/28 05:24:01 AWS3 5.52 146 6.64 144 0.4 95 -0.4 NA NA 1000.0 NA NA M NA NA NA NA
2019/11/28 05:25:01 AWS3 5.66 144 6.64 144 0.4 94 -0.4 NA NA 1000.1 NA NA M NA NA NA NA
2019/11/28 05:26:01 AWS3 5.95 143 6.69 133 0.4 94 -0.4 NA NA 1000.0 NA NA M NA NA NA NA
2019/11/28 05:27:01 AWS3 6.04 142 6.79 141 0.4 94 -0.4 NA NA 1000.0 NA NA M NA NA NA NA
2019/11/28 05:28:01 AWS3 6.04 142 6.79 144 0.4 94 -0.4 NA NA 1000.0 NA NA M NA NA NA NA
2019/11/28 05:29:02 AWS3 6.14 143 6.79 144 0.4 94 -0.4 NA NA 1000.0 NA NA M NA NA NA NA
2019/11/28 05:30:01 AWS3 6.13 144 6.79 144 0.5 93 -0.5 NA NA 1000.0 NA NA M NA NA NA NA
2019/11/28 05:31:01 AWS3 5.92 145 6.79 144 0.5 93 -0.5 NA NA 999.9 NA NA M NA NA NA NA
2019/11/28 05:32:00 AWS3 5.83 143 6.84 142 0.6 93 -0.5 NA NA 999.9 NA NA M NA NA NA NA
2019/11/28 05:33:01 AWS3 5.77 144 6.84 142 0.6 92 -0.5 NA NA 999.9 NA NA M NA NA NA NA
2019/11/28 05:34:01 AWS3 5.44 145 6.84 142 0.6 92 -0.5 NA NA 999.9 NA NA M NA NA NA NA
2019/11/28 05:35:01 AWS3 5.35 144 6.84 142 0.7 92 -0.6 NA NA 999.9 NA NA M NA NA NA NA
2019/11/28 05:36:00 AWS3 5.13 143 6.84 142 0.7 91 -0.6 NA NA 999.9 NA NA M NA NA NA NA
2019/11/28 05:37:01 AWS3 4.78 140 6.84 142 0.6 91 -0.6 NA NA 999.9 NA NA M NA NA NA NA
2019/11/28 05:38:00 AWS3 4.64 140 6.84 142 0.6 91 -0.7 NA NA 999.8 NA NA M NA NA NA NA
2019/11/28 05:39:01 AWS3 5.15 140 6.84 142 0.5 91 -0.8 NA NA 999.9 NA NA M NA NA NA NA
2019/11/28 05:40:01 AWS3 5.67 140 6.84 142 0.4 91 -0.8 NA NA 999.9 NA NA M NA NA NA NA
2019/11/28 05:41:01 AWS3 5.65 144 6.84 142 0.3 92 -0.9 NA NA 999.8 NA NA M NA NA NA NA
2019/11/28 05:42:01 AWS3 5.48 146 6.48 137 0.3 92 -0.8 NA NA 999.8 NA NA M NA NA NA NA
2019/11/28 05:43:01 AWS3 5.65 146 6.84 137 0.3 92 -0.8 NA NA 999.7 NA NA M NA NA NA NA
2019/11/28 05:44:01 AWS3 6.19 144 6.84 137 0.3 93 -0.7 NA NA 999.7 NA NA M NA NA NA NA
2019/11/28 05:45:01 AWS3 6.15 140 6.84 137 0.3 93 -0.7 NA NA 999.8 NA NA M NA NA NA NA
2019/11/28 05:46:01 AWS3 5.90 139 6.84 137 0.4 93 -0.6 NA NA 999.7 NA NA M NA NA NA NA
2019/11/28 05:47:01 AWS3 5.71 139 6.84 137 0.4 93 -0.6 NA NA 999.8 NA NA M NA NA NA NA
2019/11/28 05:48:02 AWS3 5.40 142 6.84 137 0.3 93 -0.6 NA NA 999.8 NA NA M NA NA NA NA
2019/11/28 05:49:01 AWS3 5.27 143 6.84 137 0.3 93 -0.6 NA NA 999.7 NA NA M NA NA NA NA
2019/11/28 05:50:01 AWS3 5.56 142 6.84 137 0.3 93 -0.6 NA NA 999.7 NA NA M NA NA NA NA
2019/11/28 05:51:01 AWS3 5.74 143 6.84 137 0.3 93 -0.6 NA NA 999.8 NA NA M NA NA NA NA
2019/11/28 05:52:02 AWS3 5.44 144 6.84 137 0.3 93 -0.6 NA NA 999.8 NA NA M NA NA NA NA
2019/11/28 05:53:02 AWS3 5.49 145 6.69 140 0.3 93 -0.6 NA NA 999.9 NA NA M NA NA NA NA
2019/11/28 05:54:02 AWS3 5.73 142 6.69 140 0.3 94 -0.6 NA NA 999.9 NA NA M NA NA NA NA
2019/11/28 05:55:01 AWS3 5.65 139 6.69 140 0.3 94 -0.6 NA NA 999.8 NA NA M NA NA NA NA
2019/11/28 05:56:02 AWS3 5.60 142 6.69 140 0.4 94 -0.5 NA NA 999.8 NA NA M NA NA NA NA
2019/11/28 05:57:01 AWS3 5.47 142 6.69 140 0.4 94 -0.5 NA NA 999.7 NA NA M NA NA NA NA
2019/11/28 05:58:01 AWS3 5.20 140 6.69 140 0.4 93 -0.5 NA NA 999.9 NA NA M NA NA NA NA
2019/11/28 05:59:01 AWS3 5.17 141 6.69 140 0.4 93 -0.6 NA NA 999.7 NA NA M NA NA NA NA
2019/11/28 06:00:01 AWS3 5.42 142 6.69 140 0.4 93 -0.6 NA NA 999.9 NA NA M NA NA NA NA
2019/11/28 06:01:02 AWS3 5.47 141 6.69 140 0.4 93 -0.6 NA NA 999.8 NA NA M NA NA NA NA
2019/11/28 06:02:01 AWS3 5.45 141 6.69 140 0.4 93 -0.6 NA NA 999.7 NA NA M NA NA NA NA
2019/11/28 06:03:01 AWS3 5.56 139 6.69 140 0.4 93 -0.6 NA NA 999.8 NA NA M NA NA NA NA
2019/11/28 06:04:02 AWS3 5.81 135 6.69 130 0.3 93 -0.7 NA NA 999.7 NA NA M NA NA NA NA
2019/11/28 06:05:01 AWS3 6.11 135 6.79 134 0.3 93 -0.7 NA NA 999.9 NA NA M NA NA NA NA
2019/11/28 06:06:01 AWS3 5.91 136 6.79 134 0.3 93 -0.6 NA NA 999.9 NA NA M NA NA NA NA
2019/11/28 06:07:01 AWS3 5.77 137 6.84 136 0.3 94 -0.6 NA NA 999.8 NA NA M NA NA NA NA
2019/11/28 06:08:01 AWS3 5.69 137 6.84 136 0.3 94 -0.6 NA NA 999.8 NA NA M NA NA NA NA
2019/11/28 06:09:01 AWS3 5.35 138 6.84 136 0.3 94 -0.6 NA NA 999.8 NA NA M NA NA NA NA
2019/11/28 06:10:01 AWS3 5.49 139 6.84 136 0.3 94 -0.5 NA NA 999.8 NA NA M NA NA NA NA
2019/11/28 06:11:01 AWS3 5.45 138 6.84 136 0.3 94 -0.6 NA NA 999.7 NA NA M NA NA NA NA
2019/11/28 06:12:00 AWS3 5.31 139 6.84 136 0.3 94 -0.6 NA NA 999.8 NA NA M NA NA NA NA
2019/11/28 06:13:01 AWS3 5.20 141 6.84 136 0.3 94 -0.6 NA NA 999.8 NA NA M NA NA NA NA
2019/11/28 06:14:01 AWS3 5.02 141 6.84 136 0.3 94 -0.5 NA NA 999.8 NA NA M NA NA NA NA
2019/11/28 06:15:01 AWS3 4.90 144 6.84 136 0.3 94 -0.5 NA NA 999.9 NA NA M NA NA NA NA
2019/11/28 06:16:00 AWS3 4.72 142 6.84 136 0.3 94 -0.5 NA NA 999.8 NA NA M NA NA NA NA
2019/11/28 06:17:01 AWS3 4.51 139 6.22 138 0.3 94 -0.5 NA NA 1000.0 NA NA M NA NA NA NA
2019/11/28 06:18:00 AWS3 4.60 141 6.22 138 0.3 95 -0.5 NA NA 1000.0 NA NA M NA NA NA NA
2019/11/28 06:19:00 AWS3 4.65 145 6.22 138 0.3 94 -0.5 NA NA 1000.0 NA NA M NA NA NA NA
2019/11/28 06:20:00 AWS3 4.29 146 6.07 137 0.3 94 -0.5 NA NA 999.9 NA NA M NA NA NA NA
2019/11/28 06:21:00 AWS3 4.05 142 6.07 137 0.3 94 -0.5 NA NA 999.9 NA NA M NA NA NA NA
2019/11/28 06:22:01 AWS3 3.95 138 5.92 138 0.3 94 -0.5 NA NA 1000.0 NA NA M NA NA NA NA
2019/11/28 06:23:01 AWS3 4.06 136 5.66 147 0.3 94 -0.6 NA NA 1000.0 NA NA M NA NA NA NA
2019/11/28 06:24:01 AWS3 3.85 140 5.61 142 0.3 94 -0.6 NA NA 999.9 NA NA M NA NA NA NA
2019/11/28 06:25:01 AWS3 3.59 144 5.56 142 0.3 94 -0.6 NA NA 1000.0 NA NA M NA NA NA NA
2019/11/28 06:26:01 AWS3 3.54 143 5.56 142 0.3 94 -0.6 NA NA 1000.0 NA NA M NA NA NA NA
2019/11/28 06:27:02 AWS3 3.45 140 5.56 142 0.3 94 -0.6 NA NA 1000.1 NA NA M NA NA NA NA
2019/11/28 06:28:01 AWS3 3.42 135 4.99 144 0.3 94 -0.6 NA NA 1000.1 NA NA M NA NA NA NA
2019/11/28 06:29:01 AWS3 3.49 135 4.84 147 0.3 94 -0.6 NA NA 1000.1 NA NA M NA NA NA NA
2019/11/28 06:30:00 AWS3 3.59 135 4.84 147 0.2 94 -0.6 NA NA 1000.1 NA NA M NA NA NA NA
2019/11/28 06:31:01 AWS3 3.44 132 4.84 147 0.2 94 -0.6 NA NA 1000.1 NA NA M NA NA NA NA
2019/11/28 06:32:01 AWS3 3.20 128 4.84 147 0.2 94 -0.5 NA NA 1000.3 NA NA M NA NA NA NA
2019/11/28 06:33:01 AWS3 3.05 125 4.22 143 0.2 94 -0.6 NA NA 1000.3 NA NA M NA NA NA NA
2019/11/28 06:34:02 AWS3 2.88 121 4.22 143 0.2 95 -0.6 NA NA 1000.1 NA NA M NA NA NA NA
2019/11/28 06:35:01 AWS3 2.57 119 4.22 143 0.2 95 -0.5 NA NA 1000.3 NA NA M NA NA NA NA
2019/11/28 06:36:00 AWS3 2.40 119 4.22 143 0.2 95 -0.5 NA NA 1000.3 NA NA M NA NA NA NA
2019/11/28 06:37:01 AWS3 2.44 121 4.22 143 0.2 95 -0.5 NA NA 1000.3 NA NA M NA NA NA NA
2019/11/28 06:38:01 AWS3 2.37 125 4.22 143 0.2 95 -0.5 NA NA 1000.3 NA NA M NA NA NA NA
2019/11/28 06:39:01 AWS3 2.25 126 3.91 128 0.2 95 -0.5 NA NA 1000.3 NA NA M NA NA NA NA
2019/11/28 06:40:02 AWS3 2.30 124 3.76 128 0.2 95 -0.5 NA NA 1000.3 NA NA M NA NA NA NA
2019/11/28 06:41:01 AWS3 2.46 123 3.76 128 0.2 95 -0.5 NA NA 1000.2 NA NA M NA NA NA NA
2019/11/28 06:42:00 AWS3 2.67 125 3.40 136 0.2 95 -0.5 NA NA 1000.3 NA NA M NA NA NA NA
2019/11/28 06:43:01 AWS3 2.78 127 3.34 112 0.2 95 -0.5 NA NA 1000.3 NA NA M NA NA NA NA
2019/11/28 06:44:01 AWS3 2.82 127 3.24 117 0.2 95 -0.5 NA NA 1000.3 NA NA M NA NA NA NA
2019/11/28 06:45:01 AWS3 3.02 130 3.45 133 0.2 95 -0.5 NA NA 1000.2 NA NA M NA NA NA NA
2019/11/28 06:46:02 AWS3 3.19 131 3.50 127 0.2 95 -0.5 NA NA 1000.3 NA NA M NA NA NA NA
2019/11/28 06:47:02 AWS3 3.34 130 3.91 134 0.2 95 -0.5 NA NA 1000.2 NA NA M NA NA NA NA
2019/11/28 06:48:01 AWS3 3.65 125 4.37 123 0.2 95 -0.5 NA NA 1000.2 NA NA M NA NA NA NA
2019/11/28 06:49:02 AWS3 3.79 119 4.37 123 0.2 95 -0.5 NA NA 1000.1 NA NA M NA NA NA NA
2019/11/28 06:50:00 AWS3 3.92 118 4.42 118 0.2 95 -0.5 NA NA 1000.0 NA NA M NA NA NA NA
2019/11/28 06:51:01 AWS3 4.15 121 4.48 111 0.2 95 -0.5 NA NA 1000.1 NA NA M NA NA NA NA
2019/11/28 06:52:01 AWS3 4.01 120 4.48 111 0.3 95 -0.4 NA NA 1000.1 NA NA M NA NA NA NA
2019/11/28 06:53:01 AWS3 3.98 121 5.20 125 0.3 95 -0.4 NA NA 1000.2 NA NA M NA NA NA NA
2019/11/28 06:54:02 AWS3 4.09 121 5.20 125 0.4 95 -0.3 NA NA 1000.1 NA NA M NA NA NA NA
2019/11/28 06:55:01 AWS3 4.14 120 5.20 125 0.5 95 -0.2 NA NA 1000.2 NA NA M NA NA NA NA
2019/11/28 06:56:00 AWS3 4.44 126 5.20 125 0.6 95 -0.2 NA NA 1000.3 NA NA M NA NA NA NA
2019/11/28 06:57:02 AWS3 4.42 128 5.20 125 0.7 95 -0.1 NA NA 1000.3 NA NA M NA NA NA NA
2019/11/28 06:58:01 AWS3 4.54 129 5.56 131 0.8 94 -0.0 NA NA 1000.2 NA NA M NA NA NA NA
2019/11/28 06:59:01 AWS3 4.77 134 5.86 136 0.9 94 -0.0 NA NA 1000.2 NA NA M NA NA NA NA
2019/11/28 07:00:01 AWS3 4.92 134 5.86 136 1.0 93 -0.0 NA NA 1000.3 NA NA M NA NA NA NA
2019/11/28 07:01:00 AWS3 5.04 134 5.86 136 1.1 92 -0.0 NA NA 1000.2 NA NA M NA NA NA NA
2019/11/28 07:02:01 AWS3 4.83 138 5.86 136 1.2 91 -0.1 NA NA 1000.3 NA NA M NA NA NA NA
2019/11/28 07:03:01 AWS3 4.77 142 5.86 136 1.2 91 -0.1 NA NA 1000.1 NA NA M NA NA NA NA
2019/11/28 07:04:01 AWS3 4.87 145 5.86 136 1.3 90 -0.1 NA NA 1000.2 NA NA M NA NA NA NA
2019/11/28 07:05:01 AWS3 4.91 143 5.86 136 1.3 90 -0.1 NA NA 1000.2 NA NA M NA NA NA NA
2019/11/28 07:06:02 AWS3 4.87 143 5.86 136 1.4 89 -0.2 NA NA 1000.1 NA NA M NA NA NA NA
2019/11/28 07:07:02 AWS3 4.48 145 5.86 136 1.4 89 -0.3 NA NA 1000.2 NA NA M NA NA NA NA
2019/11/28 07:08:01 AWS3 4.18 147 5.86 136 1.4 88 -0.3 NA NA 1000.2 NA NA M NA NA NA NA
2019/11/28 07:09:02 AWS3 3.97 147 5.76 128 1.4 88 -0.4 NA NA 1000.3 NA NA M NA NA NA NA
2019/11/28 07:10:01 AWS3 3.86 147 5.50 135 1.3 88 -0.4 NA NA 1000.2 NA NA M NA NA NA NA
2019/11/28 07:11:02 AWS3 4.19 146 5.50 135 1.3 88 -0.5 NA NA 1000.1 NA NA M NA NA NA NA
2019/11/28 07:12:01 AWS3 4.36 146 5.50 135 1.2 88 -0.5 NA NA 1000.1 NA NA M NA NA NA NA
2019/11/28 07:13:01 AWS3 4.39 145 5.50 135 1.2 89 -0.5 NA NA 1000.0 NA NA M NA NA NA NA
2019/11/28 07:14:01 AWS3 4.38 145 5.50 135 1.2 89 -0.5 NA NA 1000.1 NA NA M NA NA NA NA
2019/11/28 07:15:01 AWS3 4.30 146 5.14 146 1.2 89 -0.5 NA NA 1000.1 NA NA M NA NA NA NA
2019/11/28 07:16:01 AWS3 4.42 148 5.14 146 1.2 89 -0.5 NA NA 1000.1 NA NA M NA NA NA NA
2019/11/28 07:17:01 AWS3 4.72 147 5.20 145 1.2 89 -0.5 NA NA 1000.1 NA NA M NA NA NA NA
2019/11/28 07:18:01 AWS3 4.84 146 5.45 147 1.2 89 -0.5 NA NA 1000.0 NA NA M NA NA NA NA
2019/11/28 07:19:01 AWS3 4.68 148 5.45 147 1.2 89 -0.5 NA NA 1000.1 NA NA M NA NA NA NA
2019/11/28 07:20:01 AWS3 4.61 147 5.45 143 1.2 89 -0.4 NA NA 1000.1 NA NA M NA NA NA NA
2019/11/28 07:21:01 AWS3 4.35 143 5.45 143 1.2 89 -0.4 NA NA 1000.1 NA NA M NA NA NA NA
2019/11/28 07:22:00 AWS3 4.09 143 5.45 143 1.2 89 -0.5 NA NA 1000.1 NA NA M NA NA NA NA
2019/11/28 07:23:00 AWS3 4.13 144 5.45 143 1.1 89 -0.5 NA NA 1000.1 NA NA M NA NA NA NA
2019/11/28 07:24:00 AWS3 4.24 147 5.45 143 1.1 89 -0.5 NA NA 1000.2 NA NA M NA NA NA NA
2019/11/28 07:25:01 AWS3 4.37 149 5.45 143 1.1 89 -0.5 NA NA 1000.2 NA NA M NA NA NA NA
2019/11/28 07:26:01 AWS3 4.17 147 5.45 143 1.0 89 -0.5 NA NA 1000.2 NA NA M NA NA NA NA
2019/11/28 07:27:01 AWS3 4.12 142 5.45 143 1.0 89 -0.5 NA NA 1000.0 NA NA M NA NA NA NA
2019/11/28 07:28:02 AWS3 4.09 139 5.45 143 1.0 90 -0.5 NA NA 1000.2 NA NA M NA NA NA NA
2019/11/28 07:29:01 AWS3 3.90 137 5.45 143 1.0 90 -0.5 NA NA 1000.2 NA NA M NA NA NA NA
2019/11/28 07:30:01 AWS3 4.25 137 5.09 134 1.0 90 -0.5 NA NA 1000.1 NA NA M NA NA NA NA
2019/11/28 07:31:01 AWS3 4.50 142 5.45 133 0.9 90 -0.5 NA NA 1000.1 NA NA M NA NA NA NA
2019/11/28 07:32:01 AWS3 4.50 141 5.45 133 0.9 90 -0.5 NA NA 1000.1 NA NA M NA NA NA NA
2019/11/28 07:33:01 AWS3 4.58 138 5.45 133 0.9 90 -0.5 NA NA 1000.1 NA NA M NA NA NA NA
2019/11/28 07:34:01 AWS3 4.67 141 5.61 150 0.9 90 -0.5 NA NA 1000.1 NA NA M NA NA NA NA
2019/11/28 07:35:01 AWS3 4.65 142 5.61 150 1.0 90 -0.5 NA NA 1000.1 NA NA M NA NA NA NA
2019/11/28 07:36:01 AWS3 4.49 142 5.61 150 1.0 90 -0.5 NA NA 1000.1 NA NA M NA NA NA NA
2019/11/28 07:37:01 AWS3 4.32 141 5.61 150 1.0 90 -0.4 NA NA 1000.2 NA NA M NA NA NA NA
2019/11/28 07:38:01 AWS3 4.23 140 5.61 150 1.0 90 -0.4 NA NA 1000.3 NA NA M NA NA NA NA
2019/11/28 07:39:00 AWS3 4.24 141 5.61 150 1.0 90 -0.4 NA NA 1000.2 NA NA M NA NA NA NA
2019/11/28 07:40:01 AWS3 4.06 144 5.61 150 1.0 90 -0.5 NA NA 1000.3 NA NA M NA NA NA NA
2019/11/28 07:41:01 AWS3 3.91 141 5.61 150 1.0 90 -0.5 NA NA 1000.3 NA NA M NA NA NA NA
2019/11/28 07:42:00 AWS3 4.10 139 5.61 150 1.0 90 -0.4 NA NA 1000.3 NA NA M NA NA NA NA
2019/11/28 07:43:01 AWS3 4.20 144 5.61 150 1.0 90 -0.4 NA NA 1000.3 NA NA M NA NA NA NA
2019/11/28 07:44:00 AWS3 4.03 145 5.04 141 1.0 90 -0.4 NA NA 1000.3 NA NA M NA NA NA NA
2019/11/28 07:45:01 AWS3 4.07 145 5.04 141 1.1 90 -0.4 NA NA 1000.3 NA NA M NA NA NA NA
2019/11/28 07:46:01 AWS3 4.25 145 4.89 144 1.1 90 -0.4 NA NA 1000.3 NA NA M NA NA NA NA
2019/11/28 07:47:01 AWS3 4.34 147 4.89 144 1.0 90 -0.4 NA NA 1000.3 NA NA M NA NA NA NA
2019/11/28 07:48:01 AWS3 4.50 149 4.89 150 1.0 90 -0.5 NA NA 1000.3 NA NA M NA NA NA NA
2019/11/28 07:49:01 AWS3 4.58 150 4.89 130 1.0 90 -0.5 NA NA 1000.3 NA NA M NA NA NA NA
2019/11/28 07:50:02 AWS3 4.31 153 4.89 130 1.0 89 -0.5 NA NA 1000.3 NA NA M NA NA NA NA
2019/11/28 07:51:01 AWS3 4.02 153 4.89 130 1.0 89 -0.5 NA NA 1000.3 NA NA M NA NA NA NA
2019/11/28 07:52:01 AWS3 3.66 150 4.89 130 1.1 89 -0.5 NA NA 1000.3 NA NA M NA NA NA NA
2019/11/28 07:53:01 AWS3 3.36 152 4.89 130 1.1 89 -0.5 NA NA 1000.2 NA NA M NA NA NA NA
2019/11/28 07:54:02 AWS3 3.54 156 4.89 130 1.1 89 -0.6 NA NA 1000.3 NA NA M NA NA NA NA
2019/11/28 07:55:02 AWS3 3.84 157 4.89 130 1.1 89 -0.6 NA NA 1000.3 NA NA M NA NA NA NA
2019/11/28 07:56:02 AWS3 3.82 155 4.89 130 1.0 89 -0.6 NA NA 1000.3 NA NA M NA NA NA NA
2019/11/28 07:57:01 AWS3 3.90 152 4.89 130 1.0 89 -0.6 NA NA 1000.3 NA NA M NA NA NA NA
2019/11/28 07:58:00 AWS3 3.94 155 4.89 130 1.0 89 -0.6 NA NA 1000.3 NA NA M NA NA NA NA
2019/11/28 07:59:01 AWS3 3.65 153 4.63 160 1.0 89 -0.6 NA NA 1000.3 NA NA M NA NA NA NA
2019/11/28 08:00:01 AWS3 3.60 150 4.63 160 1.0 89 -0.7 NA NA 1000.3 NA NA M NA NA NA NA
2019/11/28 08:01:01 AWS3 3.91 151 4.63 160 0.9 89 -0.6 NA NA 1000.2 NA NA M NA NA NA NA
2019/11/28 08:02:01 AWS3 4.15 151 5.20 154 1.0 89 -0.6 NA NA 1000.2 NA NA M NA NA NA NA
2019/11/28 08:03:01 AWS3 4.03 153 5.20 154 1.0 89 -0.5 NA NA 1000.2 NA NA M NA NA NA NA
2019/11/28 08:04:02 AWS3 3.69 154 5.20 154 1.0 89 -0.5 NA NA 1000.3 NA NA M NA NA NA NA
2019/11/28 08:05:01 AWS3 3.31 157 5.20 154 1.1 89 -0.5 NA NA 1000.1 NA NA M NA NA NA NA
2019/11/28 08:06:01 AWS3 3.17 160 5.20 154 1.1 89 -0.5 NA NA 1000.2 NA NA M NA NA NA NA
2019/11/28 08:07:01 AWS3 3.29 155 5.20 154 1.0 89 -0.6 NA NA 1000.2 NA NA M NA NA NA NA
2019/11/28 08:08:01 AWS3 3.66 154 5.20 154 1.0 89 -0.6 NA NA 1000.2 NA NA M NA NA NA NA
2019/11/28 08:09:01 AWS3 3.78 157 5.20 154 0.9 89 -0.6 NA NA 1000.3 NA NA M NA NA NA NA
2019/11/28 08:10:01 AWS3 3.77 156 5.20 154 0.8 90 -0.7 NA NA 1000.2 NA NA M NA NA NA NA
2019/11/28 08:11:02 AWS3 3.83 154 5.20 154 0.8 90 -0.7 NA NA 1000.3 NA NA M NA NA NA NA
2019/11/28 08:12:01 AWS3 3.95 153 4.89 149 0.7 90 -0.6 NA NA 1000.1 NA NA M NA NA NA NA
2019/11/28 08:13:01 AWS3 4.11 150 4.94 153 0.7 91 -0.6 NA NA 1000.3 NA NA M NA NA NA NA
2019/11/28 08:14:01 AWS3 4.17 149 4.94 153 0.7 91 -0.6 NA NA 1000.2 NA NA M NA NA NA NA
2019/11/28 08:15:02 AWS3 4.38 151 4.94 153 0.7 91 -0.6 NA NA 1000.3 NA NA M NA NA NA NA
2019/11/28 08:16:01 AWS3 4.48 149 4.94 153 0.7 91 -0.6 NA NA 1000.2 NA NA M NA NA NA NA
2019/11/28 08:17:01 AWS3 4.22 149 4.94 153 0.7 91 -0.6 NA NA 1000.1 NA NA M NA NA NA NA
2019/11/28 08:18:01 AWS3 4.06 151 4.94 153 0.7 91 -0.6 NA NA 1000.2 NA NA M NA NA NA NA
2019/11/28 08:19:01 AWS3 4.08 155 4.94 153 0.6 91 -0.6 NA NA 1000.2 NA NA M NA NA NA NA
2019/11/28 08:20:01 AWS3 3.79 152 4.94 153 0.6 92 -0.6 NA NA 1000.3 NA NA M NA NA NA NA
2019/11/28 08:21:00 AWS3 3.31 151 4.94 153 0.6 92 -0.6 NA NA 1000.2 NA NA M NA NA NA NA
2019/11/28 08:22:00 AWS3 2.95 155 4.94 153 0.5 92 -0.6 NA NA 1000.0 NA NA M NA NA NA NA
2019/11/28 08:23:00 AWS3 3.08 152 4.89 145 0.5 92 -0.6 NA NA 1000.2 NA NA M NA NA NA NA
2019/11/28 08:24:00 AWS3 3.51 152 4.89 145 0.5 93 -0.6 NA NA 1000.0 NA NA M NA NA NA NA
2019/11/28 08:25:00 AWS3 3.37 154 4.89 145 0.4 93 -0.6 NA NA 1000.0 NA NA M NA NA NA NA
2019/11/28 08:26:01 AWS3 2.95 155 4.48 156 0.4 93 -0.6 NA NA 999.9 NA NA M NA NA NA NA
2019/11/28 08:27:00 AWS3 3.33 158 4.48 156 0.4 93 -0.6 NA NA 1000.2 NA NA M NA NA NA NA
2019/11/28 08:28:02 AWS3 3.83 155 4.78 145 0.4 93 -0.6 NA NA 1000.1 NA NA M NA NA NA NA
2019/11/28 08:29:02 AWS3 4.00 148 4.78 145 0.4 93 -0.6 NA NA 1000.2 NA NA M NA NA NA NA
2019/11/28 08:30:01 AWS3 4.14 144 4.78 145 0.4 93 -0.6 NA NA 1000.3 NA NA M NA NA NA NA
2019/11/28 08:31:01 AWS3 3.86 144 4.78 145 0.4 93 -0.6 NA NA 1000.3 NA NA M NA NA NA NA
2019/11/28 08:32:02 AWS3 3.48 147 4.78 145 0.4 93 -0.6 NA NA 1000.3 NA NA M NA NA NA NA
2019/11/28 08:33:01 AWS3 3.77 150 4.78 145 0.4 94 -0.6 NA NA 1000.1 NA NA M NA NA NA NA
2019/11/28 08:34:02 AWS3 4.00 156 4.78 145 0.3 94 -0.6 NA NA 1000.2 NA NA M NA NA NA NA
2019/11/28 08:35:01 AWS3 3.65 159 4.78 145 0.3 94 -0.6 NA NA 1000.2 NA NA M NA NA NA NA
2019/11/28 08:36:02 AWS3 3.50 164 4.78 145 0.3 94 -0.6 NA NA 1000.3 NA NA M NA NA NA NA
2019/11/28 08:37:02 AWS3 3.35 165 4.78 145 0.3 94 -0.5 NA NA 1000.3 NA NA M NA NA NA NA
2019/11/28 08:38:02 AWS3 3.06 160 4.68 155 0.3 94 -0.5 NA NA 1000.2 NA NA M NA NA NA NA
2019/11/28 08:39:02 AWS3 3.02 160 4.68 155 0.3 94 -0.5 NA NA 1000.3 NA NA M NA NA NA NA
2019/11/28 08:40:00 AWS3 3.11 157 4.68 155 0.3 94 -0.5 NA NA 1000.3 NA NA M NA NA NA NA
2019/11/28 08:41:01 AWS3 3.13 155 4.68 155 0.3 94 -0.5 NA NA 1000.3 NA NA M NA NA NA NA
2019/11/28 08:42:00 AWS3 3.23 159 4.68 155 0.3 94 -0.5 NA NA 1000.3 NA NA M NA NA NA NA
2019/11/28 08:43:01 AWS3 3.25 160 4.58 150 0.3 94 -0.5 NA NA 1000.3 NA NA M NA NA NA NA
2019/11/28 08:44:01 AWS3 3.46 154 4.48 148 0.3 94 -0.5 NA NA 1000.3 NA NA M NA NA NA NA
2019/11/28 08:45:01 AWS3 3.93 150 4.84 152 0.3 94 -0.5 NA NA 1000.3 NA NA M NA NA NA NA
2019/11/28 08:46:01 AWS3 4.04 151 4.84 152 0.4 94 -0.5 NA NA 1000.3 NA NA M NA NA NA NA
2019/11/28 08:47:00 AWS3 3.64 150 4.84 152 0.4 94 -0.5 NA NA 1000.3 NA NA M NA NA NA NA
2019/11/28 08:48:01 AWS3 3.59 145 4.84 152 0.4 94 -0.4 NA NA 1000.3 NA NA M NA NA NA NA
2019/11/28 08:49:00 AWS3 3.78 146 4.84 152 0.5 94 -0.4 NA NA 1000.3 NA NA M NA NA NA NA
2019/11/28 08:50:01 AWS3 3.55 151 4.84 152 0.5 94 -0.4 NA NA 1000.3 NA NA M NA NA NA NA
2019/11/28 08:51:01 AWS3 3.53 150 4.84 152 0.5 94 -0.4 NA NA 1000.3 NA NA M NA NA NA NA
2019/11/28 08:52:00 AWS3 3.19 153 4.84 152 0.4 94 -0.4 NA NA 1000.3 NA NA M NA NA NA NA
2019/11/28 08:53:01 AWS3 2.59 155 4.84 152 0.4 94 -0.5 NA NA 1000.3 NA NA M NA NA NA NA
2019/11/28 08:54:02 AWS3 2.35 156 4.84 152 0.3 94 -0.5 NA NA 1000.3 NA NA M NA NA NA NA
2019/11/28 08:55:02 AWS3 2.58 150 4.48 157 0.3 94 -0.6 NA NA 1000.3 NA NA M NA NA NA NA
2019/11/28 08:56:01 AWS3 3.44 144 4.48 146 0.3 94 -0.6 NA NA 1000.3 NA NA M NA NA NA NA
2019/11/28 08:57:01 AWS3 3.80 147 4.48 146 0.3 94 -0.6 NA NA 1000.3 NA NA M NA NA NA NA
2019/11/28 08:58:01 AWS3 3.76 147 4.58 144 0.3 94 -0.5 NA NA 1000.3 NA NA M NA NA NA NA
2019/11/28 08:59:01 AWS3 3.99 144 4.58 144 0.3 94 -0.5 NA NA 1000.2 NA NA M NA NA NA NA
2019/11/28 09:00:00 AWS3 3.99 144 4.58 144 0.4 94 -0.5 NA NA 1000.1 NA NA M NA NA NA NA
2019/11/28 09:01:01 AWS3 3.85 145 4.58 144 0.4 94 -0.5 NA NA 1000.3 NA NA M NA NA NA NA
2019/11/28 09:02:00 AWS3 3.70 146 4.58 144 0.4 94 -0.5 NA NA 1000.3 NA NA M NA NA NA NA
2019/11/28 09:03:00 AWS3 3.59 149 4.58 144 0.3 94 -0.5 NA NA 1000.3 NA NA M NA NA NA NA
2019/11/28 09:04:00 AWS3 3.60 146 4.58 144 0.3 94 -0.5 NA NA 1000.3 NA NA M NA NA NA NA
2019/11/28 09:05:00 AWS3 3.55 146 4.58 144 0.3 94 -0.5 NA NA 1000.2 NA NA M NA NA NA NA
2019/11/28 09:06:02 AWS3 3.33 150 4.58 144 0.3 94 -0.5 NA NA 1000.2 NA NA M NA NA NA NA
2019/11/28 09:07:01 AWS3 3.39 149 4.58 144 0.3 94 -0.6 NA NA 1000.1 NA NA M NA NA NA NA
2019/11/28 09:08:01 AWS3 3.66 145 4.48 144 0.3 94 -0.6 NA NA 1000.2 NA NA M NA NA NA NA
2019/11/28 09:09:01 AWS3 3.81 146 4.37 145 0.3 94 -0.6 NA NA 1000.1 NA NA M NA NA NA NA
2019/11/28 09:10:01 AWS3 4.00 150 4.37 146 0.2 94 -0.6 NA NA 1000.2 NA NA M NA NA NA NA
2019/11/28 09:11:02 AWS3 4.06 148 4.37 146 0.2 94 -0.6 NA NA 1000.2 NA NA M NA NA NA NA
2019/11/28 09:12:01 AWS3 3.69 146 4.37 146 0.2 94 -0.7 NA NA 1000.2 NA NA M NA NA NA NA
2019/11/28 09:13:02 AWS3 3.47 146 4.37 146 0.2 94 -0.7 NA NA 1000.3 NA NA M NA NA NA NA
2019/11/28 09:14:01 AWS3 3.43 144 4.37 146 0.1 94 -0.7 NA NA 1000.2 NA NA M NA NA NA NA
2019/11/28 09:15:01 AWS3 3.16 143 4.37 146 0.1 94 -0.6 NA NA 1000.3 NA NA M NA NA NA NA
2019/11/28 09:16:02 AWS3 3.31 141 4.37 146 0.1 95 -0.6 NA NA 1000.3 NA NA M NA NA NA NA
2019/11/28 09:17:02 AWS3 3.57 140 4.37 146 0.1 95 -0.6 NA NA 1000.3 NA NA M NA NA NA NA
2019/11/28 09:18:02 AWS3 3.43 140 4.37 146 0.1 95 -0.6 NA NA 1000.3 NA NA M NA NA NA NA
2019/11/28 09:19:02 AWS3 3.24 139 4.37 146 0.1 95 -0.6 NA NA 1000.3 NA NA M NA NA NA NA
2019/11/28 09:20:02 AWS3 3.39 139 4.27 153 0.0 95 -0.7 NA NA 1000.3 NA NA M NA NA NA NA
2019/11/28 09:21:02 AWS3 3.41 141 4.17 131 0.0 95 -0.7 NA NA 1000.3 NA NA M NA NA NA NA
2019/11/28 09:22:01 AWS3 3.25 145 4.17 131 -0.0 95 -0.7 NA NA 1000.3 NA NA M NA NA NA NA
2019/11/28 09:23:01 AWS3 3.38 147 4.17 131 -0.0 95 -0.7 NA NA 1000.3 NA NA M NA NA NA NA
2019/11/28 09:24:02 AWS3 3.33 148 4.17 131 -0.1 95 -0.8 NA NA 1000.4 NA NA M NA NA NA NA
2019/11/28 09:25:01 AWS3 3.02 143 4.17 131 -0.1 95 -0.8 NA NA 1000.4 NA NA M NA NA NA NA
2019/11/28 09:26:01 AWS3 2.66 136 4.17 131 -0.1 95 -0.8 NA NA 1000.2 NA NA M NA NA NA NA
2019/11/28 09:27:02 AWS3 2.75 137 4.17 131 -0.1 95 -0.8 NA NA 1000.3 NA NA M NA NA NA NA
2019/11/28 09:28:02 AWS3 2.83 140 4.17 131 -0.1 95 -0.7 NA NA 1000.4 NA NA M NA NA NA NA
2019/11/28 09:29:02 AWS3 2.57 139 4.17 131 -0.1 96 -0.7 NA NA 1000.4 NA NA M NA NA NA NA
2019/11/28 09:30:01 AWS3 2.70 142 4.01 145 -0.1 96 -0.7 NA NA 1000.3 NA NA M NA NA NA NA
2019/11/28 09:31:01 AWS3 2.81 144 4.01 145 -0.1 96 -0.7 NA NA 1000.4 NA NA M NA NA NA NA
2019/11/28 09:32:01 AWS3 2.66 146 3.76 148 -0.1 96 -0.6 NA NA 1000.4 NA NA M NA NA NA NA
2019/11/28 09:33:01 AWS3 2.54 147 3.55 147 -0.1 96 -0.7 NA NA 1000.3 NA NA M NA NA NA NA
2019/11/28 09:34:01 AWS3 2.67 146 3.40 143 -0.1 96 -0.7 NA NA 1000.4 NA NA M NA NA NA NA
2019/11/28 09:35:01 AWS3 2.81 146 3.40 143 -0.1 96 -0.7 NA NA 1000.4 NA NA M NA NA NA NA
2019/11/28 09:36:01 AWS3 2.77 147 3.40 143 -0.1 96 -0.7 NA NA 1000.3 NA NA M NA NA NA NA
2019/11/28 09:37:01 AWS3 2.71 146 3.19 150 -0.1 96 -0.7 NA NA 1000.4 NA NA M NA NA NA NA
2019/11/28 09:38:01 AWS3 2.70 149 3.19 150 -0.1 96 -0.7 NA NA 1000.3 NA NA M NA NA NA NA
2019/11/28 09:39:01 AWS3 2.78 150 3.19 150 -0.1 96 -0.7 NA NA 1000.4 NA NA M NA NA NA NA
2019/11/28 09:40:01 AWS3 2.70 151 3.19 150 -0.1 96 -0.7 NA NA 1000.5 NA NA M NA NA NA NA
2019/11/28 09:41:01 AWS3 2.58 151 3.19 150 -0.1 96 -0.7 NA NA 1000.5 NA NA M NA NA NA NA
2019/11/28 09:42:01 AWS3 2.48 154 3.19 150 -0.1 96 -0.7 NA NA 1000.4 NA NA M NA NA NA NA
2019/11/28 09:43:01 AWS3 2.46 152 3.19 150 -0.1 96 -0.7 NA NA 1000.5 NA NA M NA NA NA NA
2019/11/28 09:44:01 AWS3 2.85 147 3.34 144 -0.1 96 -0.7 NA NA 1000.4 NA NA M NA NA NA NA
2019/11/28 09:45:02 AWS3 3.11 146 3.34 144 -0.1 96 -0.7 NA NA 1000.4 NA NA M NA NA NA NA
2019/11/28 09:46:02 AWS3 2.94 144 3.34 144 -0.1 96 -0.7 NA NA 1000.4 NA NA M NA NA NA NA
2019/11/28 09:47:02 AWS3 2.87 144 3.34 144 -0.1 96 -0.6 NA NA 1000.5 NA NA M NA NA NA NA
2019/11/28 09:48:02 AWS3 2.86 145 3.34 144 -0.0 96 -0.6 NA NA 1000.5 NA NA M NA NA NA NA
2019/11/28 09:49:02 AWS3 2.70 143 3.34 144 -0.0 96 -0.6 NA NA 1000.4 NA NA M NA NA NA NA
2019/11/28 09:50:01 AWS3 2.57 142 3.34 144 0.0 96 -0.6 NA NA 1000.4 NA NA M NA NA NA NA
2019/11/28 09:51:02 AWS3 2.61 144 3.34 144 0.0 96 -0.6 NA NA 1000.4 NA NA M NA NA NA NA
2019/11/28 09:52:01 AWS3 2.79 144 3.34 144 0.0 96 -0.6 NA NA 1000.5 NA NA M NA NA NA NA
2019/11/28 09:53:02 AWS3 2.79 145 3.34 144 0.0 96 -0.6 NA NA 1000.4 NA NA M NA NA NA NA
2019/11/28 09:54:02 AWS3 2.61 146 3.24 150 0.0 96 -0.6 NA NA 1000.5 NA NA M NA NA NA NA
2019/11/28 09:55:01 AWS3 2.62 146 3.24 150 -0.0 96 -0.6 NA NA 1000.4 NA NA M NA NA NA NA
2019/11/28 09:56:01 AWS3 2.60 146 3.24 150 -0.0 96 -0.6 NA NA 1000.4 NA NA M NA NA NA NA
2019/11/28 09:57:01 AWS3 2.46 146 3.24 150 -0.0 96 -0.6 NA NA 1000.4 NA NA M NA NA NA NA
2019/11/28 09:58:00 AWS3 2.48 143 3.24 150 -0.0 96 -0.6 NA NA 1000.4 NA NA M NA NA NA NA
2019/11/28 09:59:01 AWS3 2.53 140 3.24 150 -0.0 96 -0.6 NA NA 1000.4 NA NA M NA NA NA NA
2019/11/28 10:00:01 AWS3 2.51 138 3.24 150 0.0 96 -0.6 NA NA 1000.5 NA NA M NA NA NA NA
2019/11/28 10:01:02 AWS3 2.66 141 3.24 143 0.0 96 -0.5 NA NA 1000.4 NA NA M NA NA NA NA
2019/11/28 10:02:01 AWS3 2.79 144 3.24 141 0.0 96 -0.5 NA NA 1000.4 NA NA M NA NA NA NA
2019/11/28 10:03:00 AWS3 2.74 142 3.24 141 0.1 96 -0.5 NA NA 1000.5 NA NA M NA NA NA NA
2019/11/28 10:04:00 AWS3 2.80 143 3.24 141 0.1 96 -0.5 NA NA 1000.3 NA NA M NA NA NA NA
2019/11/28 10:05:00 AWS3 2.83 147 3.24 141 0.1 96 -0.5 NA NA 1000.4 NA NA M NA NA NA NA
2019/11/28 10:06:00 AWS3 2.69 152 3.24 141 0.1 96 -0.5 NA NA 1000.5 NA NA M NA NA NA NA
2019/11/28 10:07:01 AWS3 2.70 156 3.24 141 0.1 96 -0.5 NA NA 1000.5 NA NA M NA NA NA NA
2019/11/28 10:08:00 AWS3 2.76 158 3.45 153 0.0 96 -0.5 NA NA 1000.2 NA NA M NA NA NA NA
2019/11/28 10:09:00 AWS3 2.73 156 3.45 153 -0.0 96 -0.6 NA NA 1000.3 NA NA M NA NA NA NA
2019/11/28 10:10:00 AWS3 2.69 150 3.45 153 -0.1 96 -0.6 NA NA 1000.4 NA NA M NA NA NA NA
2019/11/28 10:11:02 AWS3 2.83 145 3.45 153 -0.1 96 -0.6 NA NA 1000.4 NA NA M NA NA NA NA
2019/11/28 10:12:00 AWS3 2.93 145 3.45 153 -0.0 96 -0.6 NA NA 1000.3 NA NA M NA NA NA NA
2019/11/28 10:13:01 AWS3 2.80 149 3.45 153 -0.0 96 -0.6 NA NA 1000.3 NA NA M NA NA NA NA
2019/11/28 10:14:00 AWS3 2.96 151 3.50 152 -0.0 96 -0.6 NA NA 1000.4 NA NA M NA NA NA NA
2019/11/28 10:15:01 AWS3 3.02 151 3.50 152 -0.0 96 -0.6 NA NA 1000.4 NA NA M NA NA NA NA
2019/11/28 10:16:01 AWS3 2.82 148 3.50 152 -0.0 96 -0.6 NA NA 1000.4 NA NA M NA NA NA NA
2019/11/28 10:17:01 AWS3 2.78 148 3.50 152 -0.0 96 -0.6 NA NA 1000.3 NA NA M NA NA NA NA
2019/11/28 10:18:01 AWS3 2.77 148 3.50 152 0.0 96 -0.6 NA NA 1000.5 NA NA M NA NA NA NA
2019/11/28 10:19:01 AWS3 2.69 146 3.50 152 0.1 96 -0.5 NA NA 1000.4 NA NA M NA NA NA NA
2019/11/28 10:20:01 AWS3 2.58 144 3.50 152 0.1 96 -0.5 NA NA 1000.4 NA NA M NA NA NA NA
2019/11/28 10:21:01 AWS3 2.59 142 3.50 152 0.1 96 -0.5 NA NA 1000.4 NA NA M NA NA NA NA
2019/11/28 10:22:00 AWS3 2.72 140 3.50 152 0.1 96 -0.5 NA NA 1000.5 NA NA M NA NA NA NA
2019/11/28 10:23:00 AWS3 2.80 140 3.50 152 0.1 96 -0.5 NA NA 1000.5 NA NA M NA NA NA NA
2019/11/28 10:24:00 AWS3 2.93 142 3.34 157 0.1 96 -0.4 NA NA 1000.5 NA NA M NA NA NA NA
2019/11/28 10:25:02 AWS3 2.96 142 3.24 143 0.1 96 -0.4 NA NA 1000.5 NA NA M NA NA NA NA
2019/11/28 10:26:02 AWS3 2.91 142 3.34 141 0.1 96 -0.4 NA NA 1000.5 NA NA M NA NA NA NA
2019/11/28 10:27:01 AWS3 2.88 142 3.34 141 0.1 96 -0.5 NA NA 1000.5 NA NA M NA NA NA NA
2019/11/28 10:28:01 AWS3 2.90 142 3.34 141 0.1 96 -0.5 NA NA 1000.6 NA NA M NA NA NA NA
2019/11/28 10:29:01 AWS3 2.99 142 3.34 141 0.1 96 -0.5 NA NA 1000.5 NA NA M NA NA NA NA
2019/11/28 10:30:01 AWS3 2.93 144 3.34 141 0.1 96 -0.5 NA NA 1000.6 NA NA M NA NA NA NA
2019/11/28 10:31:01 AWS3 2.78 141 3.34 141 0.1 96 -0.5 NA NA 1000.5 NA NA M NA NA NA NA
2019/11/28 10:32:01 AWS3 2.81 139 3.34 141 0.1 96 -0.5 NA NA 1000.6 NA NA M NA NA NA NA
2019/11/28 10:33:01 AWS3 2.88 142 3.34 141 0.1 96 -0.5 NA NA 1000.7 NA NA M NA NA NA NA
2019/11/28 10:34:01 AWS3 2.77 143 3.34 141 0.1 96 -0.5 NA NA 1000.5 NA NA M NA NA NA NA
2019/11/28 10:35:00 AWS3 2.73 140 3.34 141 0.1 96 -0.5 NA NA 1000.6 NA NA M NA NA NA NA
2019/11/28 10:36:01 AWS3 2.86 140 3.29 146 0.1 95 -0.5 NA NA 1000.3 NA NA M NA NA NA NA
2019/11/28 10:37:01 AWS3 2.85 142 3.24 143 0.1 95 -0.6 NA NA 1000.5 NA NA M NA NA NA NA
2019/11/28 10:38:02 AWS3 2.75 142 3.24 143 0.1 95 -0.6 NA NA 1000.6 NA NA M NA NA NA NA
2019/11/28 10:39:01 AWS3 2.80 143 3.14 145 0.1 95 -0.5 NA NA 1000.5 NA NA M NA NA NA NA
2019/11/28 10:40:01 AWS3 2.76 144 3.14 145 0.1 95 -0.5 NA NA 1000.4 NA NA M NA NA NA NA
2019/11/28 10:41:00 AWS3 2.66 142 3.14 145 0.2 95 -0.5 NA NA 1000.5 NA NA M NA NA NA NA
2019/11/28 10:42:00 AWS3 2.73 143 3.14 145 0.1 95 -0.5 NA NA 1000.4 NA NA M NA NA NA NA
2019/11/28 10:43:01 AWS3 2.82 145 3.14 145 0.1 96 -0.5 NA NA 1000.6 NA NA M NA NA NA NA
2019/11/28 10:44:01 AWS3 2.74 144 3.14 145 0.1 95 -0.5 NA NA 1000.5 NA NA M NA NA NA NA
2019/11/28 10:45:01 AWS3 2.44 141 3.14 145 0.1 95 -0.6 NA NA 1000.5 NA NA M NA NA NA NA
2019/11/28 10:46:00 AWS3 2.40 139 3.09 141 0.1 95 -0.5 NA NA 1000.5 NA NA M NA NA NA NA
2019/11/28 10:47:00 AWS3 2.57 137 3.09 141 0.1 95 -0.5 NA NA 1000.5 NA NA M NA NA NA NA
2019/11/28 10:48:00 AWS3 2.55 132 3.09 141 0.1 95 -0.6 NA NA 1000.4 NA NA M NA NA NA NA
2019/11/28 10:49:01 AWS3 2.37 129 3.09 141 0.1 95 -0.6 NA NA 1000.6 NA NA M NA NA NA NA
2019/11/28 10:50:01 AWS3 2.21 132 3.09 141 0.2 95 -0.5 NA NA 1000.6 NA NA M NA NA NA NA
2019/11/28 10:51:00 AWS3 2.19 139 3.09 141 0.2 95 -0.5 NA NA 1000.4 NA NA M NA NA NA NA
2019/11/28 10:52:00 AWS3 2.24 146 3.09 141 0.2 95 -0.5 NA NA 1000.3 NA NA M NA NA NA NA
2019/11/28 10:53:00 AWS3 2.31 149 2.98 143 0.2 95 -0.5 NA NA 1000.5 NA NA M NA NA NA NA
2019/11/28 10:54:01 AWS3 2.42 147 2.88 131 0.2 95 -0.5 NA NA 1000.4 NA NA M NA NA NA NA
2019/11/28 10:55:00 AWS3 2.44 141 2.88 131 0.2 95 -0.5 NA NA 1000.5 NA NA M NA NA NA NA
2019/11/28 10:56:01 AWS3 2.45 136 2.88 131 0.2 95 -0.5 NA NA 1000.6 NA NA M NA NA NA NA
2019/11/28 10:57:01 AWS3 2.51 131 2.78 128 0.2 95 -0.5 NA NA 1000.6 NA NA M NA NA NA NA
2019/11/28 10:58:01 AWS3 2.42 130 2.78 128 0.2 95 -0.5 NA NA 1000.6 NA NA M NA NA NA NA
2019/11/28 10:59:01 AWS3 2.43 131 2.78 128 0.2 95 -0.5 NA NA 1000.5 NA NA M NA NA NA NA
2019/11/28 11:00:02 AWS3 2.29 133 2.78 128 0.2 95 -0.5 NA NA 1000.5 NA NA M NA NA NA NA
2019/11/28 11:01:01 AWS3 1.95 139 2.78 128 0.2 95 -0.5 NA NA 1000.5 NA NA M NA NA NA NA
2019/11/28 11:02:00 AWS3 1.98 142 2.78 128 0.2 95 -0.5 NA NA 1000.6 NA NA M NA NA NA NA
2019/11/28 11:03:01 AWS3 2.08 142 2.78 128 0.2 95 -0.5 NA NA 1000.6 NA NA M NA NA NA NA
2019/11/28 11:04:00 AWS3 2.04 145 2.78 128 0.2 95 -0.5 NA NA 1000.7 NA NA M NA NA NA NA
2019/11/28 11:05:00 AWS3 2.16 146 2.78 128 0.2 95 -0.5 NA NA 1000.6 NA NA M NA NA NA NA
2019/11/28 11:06:01 AWS3 2.36 145 2.78 128 0.2 95 -0.5 NA NA 1000.6 NA NA M NA NA NA NA
2019/11/28 11:07:01 AWS3 2.37 146 2.78 142 0.2 95 -0.5 NA NA 1000.6 NA NA M NA NA NA NA
2019/11/28 11:08:01 AWS3 2.37 144 2.78 142 0.2 95 -0.5 NA NA 1000.6 NA NA M NA NA NA NA
2019/11/28 11:09:01 AWS3 2.48 145 2.78 142 0.2 95 -0.5 NA NA 1000.7 NA NA M NA NA NA NA
2019/11/28 11:10:01 AWS3 2.64 144 2.93 144 0.2 95 -0.5 NA NA 1000.7 NA NA M NA NA NA NA
2019/11/28 11:11:02 AWS3 2.81 142 3.24 149 0.2 95 -0.5 NA NA 1000.7 NA NA M NA NA NA NA
2019/11/28 11:12:01 AWS3 2.77 140 3.24 149 0.2 95 -0.5 NA NA 1000.5 NA NA M NA NA NA NA
2019/11/28 11:13:01 AWS3 2.88 136 3.29 132 0.2 95 -0.5 NA NA 1000.6 NA NA M NA NA NA NA
2019/11/28 11:14:00 AWS3 3.04 133 3.29 132 0.2 95 -0.5 NA NA 1000.6 NA NA M NA NA NA NA
2019/11/28 11:15:01 AWS3 2.75 135 3.29 132 0.2 95 -0.5 NA NA 1000.6 NA NA M NA NA NA NA
2019/11/28 11:16:01 AWS3 2.52 138 3.29 132 0.2 95 -0.5 NA NA 1000.6 NA NA M NA NA NA NA
2019/11/28 11:17:00 AWS3 2.44 137 3.29 132 0.2 95 -0.5 NA NA 1000.5 NA NA M NA NA NA NA
2019/11/28 11:18:00 AWS3 2.44 138 3.29 132 0.2 95 -0.5 NA NA 1000.6 NA NA M NA NA NA NA
2019/11/28 11:19:01 AWS3 2.54 136 3.29 132 0.2 95 -0.5 NA NA 1000.6 NA NA M NA NA NA NA
2019/11/28 11:20:00 AWS3 2.39 134 3.29 132 0.2 95 -0.5 NA NA 1000.6 NA NA M NA NA NA NA
2019/11/28 11:21:01 AWS3 2.23 132 3.29 132 0.2 95 -0.5 NA NA 1000.6 NA NA M NA NA NA NA
2019/11/28 11:22:01 AWS3 2.29 131 3.29 132 0.2 95 -0.5 NA NA 1000.5 NA NA M NA NA NA NA
2019/11/28 11:23:01 AWS3 2.39 130 3.14 132 0.2 95 -0.5 NA NA 1000.6 NA NA M NA NA NA NA
2019/11/28 11:24:00 AWS3 2.40 127 3.09 133 0.2 95 -0.5 NA NA 1000.6 NA NA M NA NA NA NA
2019/11/28 11:25:00 AWS3 2.29 126 2.78 133 0.2 95 -0.5 NA NA 1000.5 NA NA M NA NA NA NA
2019/11/28 11:26:00 AWS3 2.26 123 2.78 133 0.2 95 -0.5 NA NA 1000.6 NA NA M NA NA NA NA
2019/11/28 11:27:01 AWS3 2.33 123 2.78 133 0.2 95 -0.5 NA NA 1000.5 NA NA M NA NA NA NA
2019/11/28 11:28:00 AWS3 2.21 122 2.78 133 0.3 95 -0.5 NA NA 1000.5 NA NA M NA NA NA NA
2019/11/28 11:29:01 AWS3 2.21 120 2.62 128 0.3 95 -0.4 NA NA 1000.6 NA NA M NA NA NA NA
2019/11/28 11:30:00 AWS3 2.27 121 2.62 128 0.3 95 -0.4 NA NA 1000.5 NA NA M NA NA NA NA
2019/11/28 11:31:00 AWS3 2.20 120 2.62 128 0.4 95 -0.4 NA NA 1000.6 NA NA M NA NA NA NA
2019/11/28 11:32:00 AWS3 2.26 120 2.62 128 0.4 94 -0.4 NA NA 1000.6 NA NA M NA NA NA NA
2019/11/28 11:33:00 AWS3 2.23 121 2.57 126 0.4 94 -0.4 NA NA 1000.6 NA NA M NA NA NA NA
2019/11/28 11:34:01 AWS3 2.21 120 2.52 121 0.4 94 -0.5 NA NA 1000.6 NA NA M NA NA NA NA
2019/11/28 11:35:00 AWS3 2.48 127 2.88 136 0.3 94 -0.5 NA NA 1000.5 NA NA M NA NA NA NA
2019/11/28 11:36:01 AWS3 2.50 128 2.88 136 0.3 94 -0.5 NA NA 1000.5 NA NA M NA NA NA NA
2019/11/28 11:37:01 AWS3 2.29 119 2.88 136 0.3 94 -0.5 NA NA 1000.6 NA NA M NA NA NA NA
2019/11/28 11:38:01 AWS3 2.31 117 2.88 136 0.3 94 -0.5 NA NA 1000.6 NA NA M NA NA NA NA
2019/11/28 11:39:01 AWS3 2.22 115 2.88 136 0.3 94 -0.5 NA NA 1000.6 NA NA M NA NA NA NA
2019/11/28 11:40:01 AWS3 2.10 115 2.88 136 0.3 94 -0.5 NA NA 1000.5 NA NA M NA NA NA NA
2019/11/28 11:41:01 AWS3 2.08 116 2.88 136 0.4 94 -0.5 NA NA 1000.5 NA NA M NA NA NA NA
2019/11/28 11:42:01 AWS3 2.01 116 2.88 136 0.4 94 -0.5 NA NA 1000.6 NA NA M NA NA NA NA
2019/11/28 11:43:01 AWS3 1.92 115 2.88 136 0.4 94 -0.4 NA NA 1000.5 NA NA M NA NA NA NA
2019/11/28 11:44:01 AWS3 1.87 118 2.88 136 0.4 94 -0.4 NA NA 1000.6 NA NA M NA NA NA NA
2019/11/28 11:45:00 AWS3 2.07 121 2.68 113 0.4 94 -0.4 NA NA 1000.5 NA NA M NA NA NA NA
2019/11/28 11:46:01 AWS3 2.17 115 2.68 113 0.4 94 -0.4 NA NA 1000.6 NA NA M NA NA NA NA
2019/11/28 11:47:01 AWS3 1.99 117 2.68 113 0.5 94 -0.4 NA NA 1000.4 NA NA M NA NA NA NA
2019/11/28 11:48:01 AWS3 1.76 123 2.47 112 0.4 94 -0.4 NA NA 1000.4 NA NA M NA NA NA NA
2019/11/28 11:49:01 AWS3 1.45 129 2.42 114 0.4 94 -0.5 NA NA 1000.4 NA NA M NA NA NA NA
2019/11/28 11:50:00 AWS3 1.30 132 2.42 114 0.4 94 -0.5 NA NA 1000.5 NA NA M NA NA NA NA
2019/11/28 11:51:01 AWS3 1.40 130 2.42 114 0.4 93 -0.5 NA NA 1000.6 NA NA M NA NA NA NA
2019/11/28 11:52:01 AWS3 1.52 126 2.42 114 0.4 93 -0.6 NA NA 1000.6 NA NA M NA NA NA NA
2019/11/28 11:53:00 AWS3 1.50 124 2.42 114 0.4 93 -0.6 NA NA 1000.5 NA NA M NA NA NA NA
2019/11/28 11:54:00 AWS3 1.71 120 2.42 114 0.4 93 -0.6 NA NA 1000.5 NA NA M NA NA NA NA
2019/11/28 11:55:01 AWS3 1.92 118 2.31 109 0.4 93 -0.6 NA NA 1000.5 NA NA M NA NA NA NA
2019/11/28 11:56:01 AWS3 1.97 118 2.11 119 0.4 93 -0.6 NA NA 1000.6 NA NA M NA NA NA NA
2019/11/28 11:57:00 AWS3 2.00 119 2.21 120 0.4 93 -0.6 NA NA 1000.5 NA NA M NA NA NA NA
2019/11/28 11:58:00 AWS3 1.93 119 2.21 120 0.4 93 -0.6 NA NA 1000.5 NA NA M NA NA NA NA
2019/11/28 11:59:01 AWS3 1.94 120 2.21 120 0.5 93 -0.5 NA NA 1000.6 NA NA M NA NA NA NA
2019/11/28 12:00:01 AWS3 1.73 123 2.21 120 0.5 93 -0.5 NA NA 1000.4 NA NA M NA NA NA NA
2019/11/28 12:01:01 AWS3 1.56 127 2.21 120 0.5 93 -0.5 NA NA 1000.6 NA NA M NA NA NA NA
2019/11/28 12:02:01 AWS3 1.56 134 2.21 120 0.5 93 -0.5 NA NA 1000.6 NA NA M NA NA NA NA
2019/11/28 12:03:01 AWS3 1.30 141 2.21 120 0.5 93 -0.5 NA NA 1000.5 NA NA M NA NA NA NA
2019/11/28 12:04:01 AWS3 1.24 146 2.21 120 0.5 93 -0.5 NA NA 1000.3 NA NA M NA NA NA NA
2019/11/28 12:05:01 AWS3 1.35 147 2.21 120 0.5 93 -0.5 NA NA 1000.4 NA NA M NA NA NA NA
2019/11/28 12:06:01 AWS3 1.36 147 2.21 120 0.5 93 -0.5 NA NA 1000.5 NA NA M NA NA NA NA
2019/11/28 12:07:02 AWS3 1.38 151 2.16 118 0.5 93 -0.5 NA NA 1000.5 NA NA M NA NA NA NA
2019/11/28 12:08:01 AWS3 1.06 155 2.11 121 0.5 93 -0.5 NA NA 1000.4 NA NA M NA NA NA NA
2019/11/28 12:09:01 AWS3 0.93 156 1.95 122 0.5 93 -0.5 NA NA 1000.5 NA NA M NA NA NA NA
2019/11/28 12:10:00 AWS3 1.15 151 1.75 130 0.5 93 -0.5 NA NA 1000.5 NA NA M NA NA NA NA
2019/11/28 12:11:01 AWS3 1.17 147 1.65 135 0.6 92 -0.5 NA NA 1000.6 NA NA M NA NA NA NA
2019/11/28 12:12:00 AWS3 0.87 145 1.44 156 0.6 92 -0.5 NA NA 1000.7 NA NA M NA NA NA NA
2019/11/28 12:13:01 AWS3 0.39 142 1.44 156 0.6 92 -0.5 NA NA 1000.8 NA NA M NA NA NA NA
2019/11/28 12:14:00 AWS3 0.09 135 1.44 156 0.7 92 -0.5 NA NA 1000.5 NA NA M NA NA NA NA
2019/11/28 12:15:00 AWS3 0.00 128 1.44 156 0.7 92 -0.4 NA NA 1000.6 NA NA M NA NA NA NA
2019/11/28 12:16:01 AWS3 0.26 129 1.44 156 0.8 92 -0.4 NA NA 1000.6 NA NA M NA NA NA NA
2019/11/28 12:17:01 AWS3 0.88 128 1.70 119 0.9 92 -0.3 NA NA 1000.5 NA NA M NA NA NA NA
2019/11/28 12:18:01 AWS3 0.82 127 1.70 119 1.0 91 -0.3 NA NA 1000.6 NA NA M NA NA NA NA
2019/11/28 12:19:01 AWS3 0.81 128 1.70 119 1.1 91 -0.3 NA NA 1000.5 NA NA M NA NA NA NA
2019/11/28 12:20:01 AWS3 1.04 122 1.75 115 1.2 90 -0.2 NA NA 1000.7 NA NA M NA NA NA NA
2019/11/28 12:21:01 AWS3 0.56 123 1.75 115 1.2 90 -0.2 NA NA 1000.6 NA NA M NA NA NA NA
2019/11/28 12:22:01 AWS3 0.12 123 1.75 115 1.3 90 -0.2 NA NA 1000.5 NA NA M NA NA NA NA
2019/11/28 12:23:01 AWS3 0.24 128 1.75 115 1.4 89 -0.2 NA NA 1000.3 NA NA M NA NA NA NA
2019/11/28 12:24:01 AWS3 0.89 131 1.75 129 1.4 89 -0.3 NA NA 1000.6 NA NA M NA NA NA NA
2019/11/28 12:25:02 AWS3 0.96 133 1.75 129 1.4 88 -0.3 NA NA 1000.6 NA NA M NA NA NA NA
2019/11/28 12:26:01 AWS3 0.99 137 1.75 129 1.4 88 -0.3 NA NA 1000.5 NA NA M NA NA NA NA
2019/11/28 12:27:01 AWS3 0.94 136 1.75 129 1.4 88 -0.4 NA NA 1000.7 NA NA M NA NA NA NA
2019/11/28 12:28:01 AWS3 0.68 139 1.75 129 1.3 88 -0.5 NA NA 1000.6 NA NA M NA NA NA NA
2019/11/28 12:29:02 AWS3 0.69 141 1.75 129 1.3 88 -0.5 NA NA 1000.3 NA NA M NA NA NA NA
2019/11/28 12:30:01 AWS3 0.67 137 1.75 129 1.3 88 -0.5 NA NA 1000.4 NA NA M NA NA NA NA
2019/11/28 12:31:02 AWS3 1.04 134 1.75 129 1.2 88 -0.5 NA NA 1000.6 NA NA M NA NA NA NA
2019/11/28 12:32:01 AWS3 1.45 137 1.80 138 1.2 88 -0.5 NA NA 1000.5 NA NA M NA NA NA NA
2019/11/28 12:33:02 AWS3 1.51 141 1.95 141 1.3 88 -0.5 NA NA 1000.6 NA NA M NA NA NA NA
2019/11/28 12:34:02 AWS3 1.57 145 1.95 141 1.2 88 -0.5 NA NA 1000.5 NA NA M NA NA NA NA
2019/11/28 12:35:02 AWS3 1.63 143 1.95 141 1.2 88 -0.6 NA NA 1000.4 NA NA M NA NA NA NA
2019/11/28 12:36:02 AWS3 1.21 138 1.95 141 1.1 88 -0.6 NA NA 1000.5 NA NA M NA NA NA NA
2019/11/28 12:37:01 AWS3 0.57 135 1.95 141 1.1 89 -0.6 NA NA 1000.5 NA NA M NA NA NA NA
2019/11/28 12:38:01 AWS3 0.10 137 1.95 141 1.1 89 -0.6 NA NA 1000.6 NA NA M NA NA NA NA
2019/11/28 12:39:02 AWS3 0.00 143 1.95 141 1.1 89 -0.5 NA NA 1000.4 NA NA M NA NA NA NA
2019/11/28 12:40:01 AWS3 0.30 144 1.95 141 1.1 89 -0.5 NA NA 1000.4 NA NA M NA NA NA NA
2019/11/28 12:41:01 AWS3 0.85 140 1.95 141 1.2 89 -0.4 NA NA 1000.6 NA NA M NA NA NA NA
2019/11/28 12:42:02 AWS3 1.36 139 1.95 141 1.2 89 -0.5 NA NA 1000.4 NA NA M NA NA NA NA
2019/11/28 12:43:01 AWS3 1.68 140 2.01 138 1.2 89 -0.5 NA NA 1000.6 NA NA M NA NA NA NA
2019/11/28 12:44:01 AWS3 1.82 141 2.06 137 1.1 89 -0.5 NA NA 1000.5 NA NA M NA NA NA NA
2019/11/28 12:45:01 AWS3 2.02 139 2.42 140 1.1 89 -0.6 NA NA 1000.6 NA NA M NA NA NA NA
2019/11/28 12:46:01 AWS3 2.12 141 2.42 140 1.0 89 -0.6 NA NA 1000.5 NA NA M NA NA NA NA
2019/11/28 12:47:01 AWS3 1.93 144 2.42 140 0.9 89 -0.6 NA NA 1000.5 NA NA M NA NA NA NA
2019/11/28 12:48:01 AWS3 1.84 144 2.42 140 0.9 90 -0.6 NA NA 1000.5 NA NA M NA NA NA NA
2019/11/28 12:49:01 AWS3 1.78 144 2.42 140 0.9 90 -0.6 NA NA 1000.4 NA NA M NA NA NA NA
2019/11/28 12:50:01 AWS3 1.57 143 2.42 140 0.9 90 -0.6 NA NA 1000.5 NA NA M NA NA NA NA
2019/11/28 12:51:02 AWS3 1.06 142 2.42 140 0.9 90 -0.6 NA NA 1000.6 NA NA M NA NA NA NA
2019/11/28 12:52:00 AWS3 0.37 143 2.42 140 0.8 90 -0.6 NA NA 1000.5 NA NA M NA NA NA NA
2019/11/28 12:53:00 AWS3 0.05 147 2.42 140 0.8 90 -0.6 NA NA 1000.6 NA NA M NA NA NA NA
2019/11/28 12:54:00 AWS3 0.00 155 2.42 140 0.8 90 -0.6 NA NA 1000.6 NA NA M NA NA NA NA
2019/11/28 12:55:00 AWS3 0.00 155 2.31 139 0.9 90 -0.5 NA NA 1000.6 NA NA M NA NA NA NA
2019/11/28 12:56:01 AWS3 0.00 149 2.06 144 0.9 90 -0.5 NA NA 1000.5 NA NA M NA NA NA NA
2019/11/28 12:57:01 AWS3 0.44 143 2.06 144 1.0 90 -0.4 NA NA 1000.6 NA NA M NA NA NA NA
2019/11/28 12:58:01 AWS3 1.17 141 1.85 142 1.0 90 -0.4 NA NA 1000.7 NA NA M NA NA NA NA
2019/11/28 12:59:02 AWS3 1.20 141 1.65 140 1.1 90 -0.4 NA NA 1000.7 NA NA M NA NA NA NA
2019/11/28 13:00:01 AWS3 1.27 137 1.95 132 1.1 90 -0.4 NA NA 1000.6 NA NA M NA NA NA NA
2019/11/28 13:01:01 AWS3 1.69 131 1.95 130 1.1 90 -0.4 NA NA 1000.5 NA NA M NA NA NA NA
2019/11/28 13:02:01 AWS3 1.75 129 1.95 128 1.1 89 -0.5 NA NA 1000.7 NA NA M NA NA NA NA
2019/11/28 13:03:01 AWS3 1.59 130 1.95 128 1.0 89 -0.5 NA NA 1000.7 NA NA M NA NA NA NA
2019/11/28 13:04:01 AWS3 1.61 134 1.95 128 1.0 89 -0.6 NA NA 1000.7 NA NA M NA NA NA NA
2019/11/28 13:05:01 AWS3 1.78 132 1.95 128 0.9 90 -0.6 NA NA 1000.7 NA NA M NA NA NA NA
2019/11/28 13:06:01 AWS3 1.76 130 1.95 128 0.9 90 -0.6 NA NA 1000.6 NA NA M NA NA NA NA
2019/11/28 13:07:01 AWS3 1.58 131 1.95 128 0.9 90 -0.5 NA NA 1000.7 NA NA M NA NA NA NA
2019/11/28 13:08:01 AWS3 1.49 129 1.95 126 1.0 90 -0.5 NA NA 1000.7 NA NA M NA NA NA NA
2019/11/28 13:09:01 AWS3 1.61 129 2.06 126 1.0 90 -0.5 NA NA 1000.7 NA NA M NA NA NA NA
2019/11/28 13:10:01 AWS3 1.84 136 2.11 137 1.1 90 -0.5 NA NA 1000.6 NA NA M NA NA NA NA
2019/11/28 13:11:02 AWS3 1.93 139 2.11 137 1.1 89 -0.4 NA NA 1000.7 NA NA M NA NA NA NA
2019/11/28 13:12:01 AWS3 1.77 140 2.11 137 1.1 89 -0.5 NA NA 1000.7 NA NA M NA NA NA NA
2019/11/28 13:13:01 AWS3 1.63 137 2.11 137 1.2 89 -0.5 NA NA 1000.6 NA NA M NA NA NA NA
2019/11/28 13:14:01 AWS3 1.46 133 2.11 137 1.2 89 -0.4 NA NA 1000.7 NA NA M NA NA NA NA
2019/11/28 13:15:01 AWS3 1.38 131 2.11 137 1.3 89 -0.3 NA NA 1000.8 NA NA M NA NA NA NA
2019/11/28 13:16:01 AWS3 1.43 130 2.11 137 1.4 88 -0.3 NA NA 1000.5 NA NA M NA NA NA NA
2019/11/28 13:17:00 AWS3 1.37 131 2.11 137 1.5 88 -0.3 NA NA 1000.7 NA NA M NA NA NA NA
2019/11/28 13:18:00 AWS3 0.76 133 2.11 137 1.6 87 -0.3 NA NA 1000.6 NA NA M NA NA NA NA
2019/11/28 13:19:01 AWS3 0.10 124 2.11 137 1.6 87 -0.3 NA NA 1000.7 NA NA M NA NA NA NA
2019/11/28 13:20:00 AWS3 0.00 113 2.06 136 1.7 86 -0.3 NA NA 1000.6 NA NA M NA NA NA NA
2019/11/28 13:21:00 AWS3 0.00 115 1.80 128 1.8 86 -0.3 NA NA 1000.7 NA NA M NA NA NA NA
2019/11/28 13:22:01 AWS3 0.00 105 1.80 128 1.9 86 -0.1 NA NA 1000.7 NA NA M NA NA NA NA
2019/11/28 13:23:01 AWS3 0.00 94 1.75 133 2.1 86 0.0 NA NA 1000.7 NA NA M NA NA NA NA
2019/11/28 13:24:00 AWS3 0.00 98 1.65 130 2.3 85 0.1 NA NA 1000.7 NA NA M NA NA NA NA
2019/11/28 13:25:01 AWS3 0.00 107 1.54 127 2.6 84 0.2 NA NA 1000.7 NA NA M NA NA NA NA
2019/11/28 13:26:00 AWS3 0.12 121 1.44 135 2.8 83 0.2 NA NA 1000.7 NA NA M NA NA NA NA
2019/11/28 13:27:01 AWS3 1.13 135 2.31 145 2.8 82 0.0 NA NA 1000.7 NA NA M NA NA NA NA
2019/11/28 13:28:01 AWS3 1.88 142 2.42 145 2.7 82 -0.2 NA NA 1000.7 NA NA M NA NA NA NA
2019/11/28 13:29:01 AWS3 1.97 142 2.47 148 2.5 82 -0.3 NA NA 1000.7 NA NA M NA NA NA NA
2019/11/28 13:30:01 AWS3 2.07 139 2.47 148 2.2 82 -0.5 NA NA 1000.6 NA NA M NA NA NA NA
2019/11/28 13:31:00 AWS3 1.80 134 2.47 148 2.0 83 -0.6 NA NA 1000.7 NA NA M NA NA NA NA
2019/11/28 13:32:00 AWS3 1.33 133 2.47 148 1.9 84 -0.6 NA NA 1000.7 NA NA M NA NA NA NA
2019/11/28 13:33:00 AWS3 0.51 134 2.47 148 1.9 84 -0.5 NA NA 1000.7 NA NA M NA NA NA NA
2019/11/28 13:34:00 AWS3 0.00 133 2.47 148 1.9 85 -0.4 NA NA 1000.7 NA NA M NA NA NA NA
2019/11/28 13:35:00 AWS3 0.05 129 2.47 148 2.0 84 -0.3 NA NA 1000.8 NA NA M NA NA NA NA
2019/11/28 13:36:01 AWS3 0.63 128 2.47 148 2.2 84 -0.3 NA NA 1000.6 NA NA M NA NA NA NA
2019/11/28 13:37:00 AWS3 1.21 133 2.47 148 2.2 83 -0.4 NA NA 1000.7 NA NA M NA NA NA NA
2019/11/28 13:38:00 AWS3 1.65 142 2.52 145 2.2 82 -0.5 NA NA 1000.7 NA NA M NA NA NA NA
2019/11/28 13:39:00 AWS3 2.02 145 2.52 145 2.1 82 -0.6 NA NA 1000.8 NA NA M NA NA NA NA
2019/11/28 13:40:00 AWS3 1.81 141 2.52 145 2.0 82 -0.7 NA NA 1000.8 NA NA M NA NA NA NA
2019/11/28 13:41:00 AWS3 1.67 138 2.52 145 1.9 83 -0.7 NA NA 1000.8 NA NA M NA NA NA NA
2019/11/28 13:42:00 AWS3 1.80 139 2.52 145 1.7 84 -0.7 NA NA 1000.8 NA NA M NA NA NA NA
2019/11/28 13:43:00 AWS3 1.72 135 2.52 145 1.6 85 -0.6 NA NA 1000.7 NA NA M NA NA NA NA
2019/11/28 13:44:00 AWS3 1.50 126 2.52 145 1.6 86 -0.5 NA NA 1000.8 NA NA M NA NA NA NA
2019/11/28 13:45:00 AWS3 1.36 125 2.52 145 1.7 86 -0.5 NA NA 1000.8 NA NA M NA NA NA NA
2019/11/28 13:46:00 AWS3 1.05 132 2.52 145 1.7 86 -0.4 NA NA 1000.9 NA NA M NA NA NA NA
2019/11/28 13:47:00 AWS3 1.00 134 2.52 145 1.7 85 -0.4 NA NA 1000.6 NA NA M NA NA NA NA
2019/11/28 13:48:01 AWS3 1.22 131 2.21 138 1.8 85 -0.5 NA NA 1000.8 NA NA M NA NA NA NA
2019/11/28 13:49:02 AWS3 1.19 134 2.21 138 1.8 85 -0.5 NA NA 1000.8 NA NA M NA NA NA NA
2019/11/28 13:50:01 AWS3 1.19 140 2.21 138 1.7 85 -0.5 NA NA 1000.8 NA NA M NA NA NA NA
2019/11/28 13:51:01 AWS3 1.36 143 2.21 138 1.7 85 -0.5 NA NA 1000.8 NA NA M NA NA NA NA
2019/11/28 13:52:01 AWS3 1.43 150 1.65 127 1.6 85 -0.5 NA NA 1000.8 NA NA M NA NA NA NA
2019/11/28 13:53:01 AWS3 0.73 156 1.54 143 1.6 86 -0.6 NA NA 1000.8 NA NA M NA NA NA NA
2019/11/28 13:54:02 AWS3 0.05 158 1.54 143 1.6 86 -0.5 NA NA 1000.7 NA NA M NA NA NA NA
2019/11/28 13:55:01 AWS3 0.00 158 1.54 143 1.6 86 -0.4 NA NA 1000.8 NA NA M NA NA NA NA
2019/11/28 13:56:01 AWS3 0.00 158 1.54 143 1.8 86 -0.3 NA NA 1000.8 NA NA M NA NA NA NA
2019/11/28 13:57:01 AWS3 0.00 155 1.54 143 2.0 85 -0.3 NA NA 1000.8 NA NA M NA NA NA NA
2019/11/28 13:58:01 AWS3 0.00 141 1.54 143 2.3 84 -0.1 NA NA 1000.7 NA NA M NA NA NA NA
2019/11/28 13:59:01 AWS3 0.00 130 1.54 143 2.6 82 -0.1 NA NA 1000.7 NA NA M NA NA NA NA
2019/11/28 14:00:00 AWS3 0.00 134 1.54 143 2.8 81 -0.1 NA NA 1000.7 NA NA M NA NA NA NA
2019/11/28 14:01:00 AWS3 0.00 136 1.44 155 3.0 79 -0.2 NA NA 1000.8 NA NA M NA NA NA NA
2019/11/28 14:02:00 AWS3 0.00 135 1.18 158 3.1 78 -0.3 NA NA 1000.7 NA NA M NA NA NA NA
2019/11/28 14:03:01 AWS3 0.00 138 M M 3.1 78 -0.4 NA NA 1000.8 NA NA M NA NA NA NA
2019/11/28 14:04:01 AWS3 0.00 133 M M 3.0 77 -0.6 NA NA 1000.8 NA NA M NA NA NA NA
2019/11/28 14:05:01 AWS3 0.00 127 M M 2.9 78 -0.6 NA NA 1000.7 NA NA M NA NA NA NA
2019/11/28 14:06:01 AWS3 0.00 126 M M 2.9 78 -0.6 NA NA 1000.6 NA NA M NA NA NA NA
2019/11/28 14:07:01 AWS3 0.00 118 M M 2.8 78 -0.6 NA NA 1000.8 NA NA M NA NA NA NA
2019/11/28 14:08:01 AWS3 0.00 120 M M 2.7 79 -0.6 NA NA 1000.8 NA NA M NA NA NA NA
2019/11/28 14:09:00 AWS3 0.00 126 M M 2.8 79 -0.6 NA NA 1000.7 NA NA M NA NA NA NA
2019/11/28 14:10:00 AWS3 0.00 123 M M 2.8 79 -0.6 NA NA 1000.8 NA NA M NA NA NA NA
2019/11/28 14:11:02 AWS3 0.42 121 1.44 118 2.8 79 -0.6 NA NA 1000.8 NA NA M NA NA NA NA
2019/11/28 14:12:00 AWS3 0.47 126 1.44 118 2.8 79 -0.6 NA NA 1000.8 NA NA M NA NA NA NA
2019/11/28 14:13:01 AWS3 0.14 124 1.44 118 2.7 79 -0.6 NA NA 1000.8 NA NA M NA NA NA NA
2019/11/28 14:14:01 AWS3 0.09 116 1.44 118 2.6 80 -0.5 NA NA 1000.7 NA NA M NA NA NA NA
2019/11/28 14:15:00 AWS3 0.30 114 1.44 118 2.6 80 -0.4 NA NA 1000.8 NA NA M NA NA NA NA
2019/11/28 14:16:00 AWS3 0.40 111 1.44 118 2.6 80 -0.4 NA NA 1000.8 NA NA M NA NA NA NA
2019/11/28 14:17:01 AWS3 0.09 107 1.44 118 2.7 81 -0.3 NA NA 1000.9 NA NA M NA NA NA NA
2019/11/28 14:18:00 AWS3 0.00 108 1.44 118 2.8 80 -0.2 NA NA 1000.8 NA NA M NA NA NA NA
2019/11/28 14:19:01 AWS3 0.00 109 1.44 118 3.0 80 -0.2 NA NA 1000.8 NA NA M NA NA NA NA
2019/11/28 14:20:01 AWS3 0.00 105 1.44 118 3.1 79 -0.1 NA NA 1000.7 NA NA M NA NA NA NA
2019/11/28 14:21:00 AWS3 0.00 98 1.29 113 3.3 79 -0.0 NA NA 1000.9 NA NA M NA NA NA NA
2019/11/28 14:22:00 AWS3 0.00 94 1.29 113 3.5 78 -0.0 NA NA 1000.8 NA NA M NA NA NA NA
2019/11/28 14:23:00 AWS3 0.00 95 1.29 113 3.7 77 -0.1 NA NA 1000.8 NA NA M NA NA NA NA
2019/11/28 14:24:00 AWS3 0.00 95 1.29 113 3.8 76 -0.1 NA NA 1000.9 NA NA M NA NA NA NA
2019/11/28 14:25:00 AWS3 0.00 95 1.23 110 4.0 75 -0.1 NA NA 1000.9 NA NA M NA NA NA NA
2019/11/28 14:26:00 AWS3 0.00 95 M M 4.2 74 -0.1 NA NA 1000.8 NA NA M NA NA NA NA
2019/11/28 14:27:00 AWS3 0.00 95 M M 4.3 73 -0.1 NA NA 1000.7 NA NA M NA NA NA NA
2019/11/28 14:28:01 AWS3 0.00 95 M M 4.6 72 -0.1 NA NA 1000.6 NA NA M NA NA NA NA
2019/11/28 14:29:01 AWS3 0.00 95 M M 4.8 71 -0.0 NA NA 1000.8 NA NA M NA NA NA NA
2019/11/28 14:30:00 AWS3 0.00 95 M M 5.1 70 -0.0 NA NA 1000.8 NA NA M NA NA NA NA
2019/11/28 14:31:01 AWS3 0.00 95 M M 5.3 68 -0.0 NA NA 1000.9 NA NA M NA NA NA NA
2019/11/28 14:32:00 AWS3 0.00 95 M M 5.5 67 -0.1 NA NA 1000.8 NA NA M NA NA NA NA
2019/11/28 14:33:01 AWS3 0.00 95 M M 5.5 66 -0.3 NA NA 1000.9 NA NA M NA NA NA NA
2019/11/28 14:34:00 AWS3 0.00 95 M M 5.3 66 -0.4 NA NA 1000.8 NA NA M NA NA NA NA
2019/11/28 14:35:01 AWS3 0.00 95 M M 5.0 67 -0.6 NA NA 1000.8 NA NA M NA NA NA NA
2019/11/28 14:36:00 AWS3 0.00 95 M M 4.7 68 -0.7 NA NA 1000.8 NA NA M NA NA NA NA
2019/11/28 14:37:00 AWS3 0.00 95 M M 4.4 69 -0.7 NA NA 1000.8 NA NA M NA NA NA NA
2019/11/28 14:38:00 AWS3 0.00 95 M M 4.2 70 -0.7 NA NA 1000.9 NA NA M NA NA NA NA
2019/11/28 14:39:00 AWS3 0.00 125 M M 4.2 71 -0.7 NA NA 1000.8 NA NA M NA NA NA NA
2019/11/28 14:40:01 AWS3 0.00 186 M M 4.0 71 -0.7 NA NA 1000.8 NA NA M NA NA NA NA
2019/11/28 14:41:01 AWS3 0.33 209 2.31 215 3.7 72 -0.8 NA NA 1000.8 NA NA M NA NA NA NA
2019/11/28 14:42:01 AWS3 1.33 208 2.47 204 3.4 74 -0.9 NA NA 1000.8 NA NA M NA NA NA NA
2019/11/28 14:43:01 AWS3 1.44 197 2.47 204 2.9 76 -0.9 NA NA 1000.8 NA NA M NA NA NA NA
2019/11/28 14:44:01 AWS3 0.50 195 2.47 204 2.4 79 -0.9 NA NA 1000.8 NA NA M NA NA NA NA
2019/11/28 14:45:02 AWS3 0.80 198 2.47 204 2.1 81 -0.8 NA NA 1000.6 NA NA M NA NA NA NA
2019/11/28 14:46:02 AWS3 1.53 199 2.47 204 1.9 83 -0.7 NA NA 1000.8 NA NA M NA NA NA NA
2019/11/28 14:47:01 AWS3 1.67 198 2.47 204 1.7 85 -0.6 NA NA 1000.9 NA NA M NA NA NA NA
2019/11/28 14:48:01 AWS3 1.67 193 2.47 204 1.6 86 -0.5 NA NA 1000.9 NA NA M NA NA NA NA
2019/11/28 14:49:01 AWS3 1.56 184 2.47 204 1.5 87 -0.5 NA NA 1000.8 NA NA M NA NA NA NA
2019/11/28 14:50:02 AWS3 1.50 175 2.47 204 1.4 88 -0.4 NA NA 1000.7 NA NA M NA NA NA NA
2019/11/28 14:51:01 AWS3 1.07 170 2.47 204 1.3 89 -0.4 NA NA 1000.8 NA NA M NA NA NA NA
2019/11/28 14:52:01 AWS3 0.38 163 2.06 200 1.2 89 -0.3 NA NA 1000.9 NA NA M NA NA NA NA
2019/11/28 14:53:01 AWS3 0.28 156 2.06 200 1.2 90 -0.3 NA NA 1000.8 NA NA M NA NA NA NA
2019/11/28 14:54:01 AWS3 0.23 155 2.06 200 1.3 90 -0.2 NA NA 1000.9 NA NA M NA NA NA NA
2019/11/28 14:55:01 AWS3 0.00 156 2.06 200 1.3 90 -0.2 NA NA 1000.8 NA NA M NA NA NA NA
2019/11/28 14:56:02 AWS3 0.00 157 2.06 200 1.4 90 -0.1 NA NA 1000.9 NA NA M NA NA NA NA
2019/11/28 14:57:01 AWS3 0.00 154 1.70 198 1.4 90 -0.1 NA NA 1000.9 NA NA M NA NA NA NA
2019/11/28 14:58:01 AWS3 0.41 153 1.65 171 1.4 90 -0.1 NA NA 1000.9 NA NA M NA NA NA NA
2019/11/28 14:59:02 AWS3 0.41 150 1.65 171 1.4 89 -0.1 NA NA 1000.8 NA NA M NA NA NA NA
2019/11/28 15:00:01 AWS3 0.00 146 1.34 154 1.4 89 -0.2 NA NA 1000.8 NA NA M NA NA NA NA
2019/11/28 15:01:01 AWS3 0.00 146 1.34 154 1.4 89 -0.2 NA NA 1000.9 NA NA M NA NA NA NA
2019/11/28 15:02:02 AWS3 0.46 148 1.34 154 1.4 89 -0.2 NA NA 1000.9 NA NA M NA NA NA NA
2019/11/28 15:03:01 AWS3 0.91 146 1.34 154 1.4 89 -0.2 NA NA 1000.9 NA NA M NA NA NA NA
2019/11/28 15:04:01 AWS3 0.54 143 1.34 154 1.4 89 -0.2 NA NA 1000.9 NA NA M NA NA NA NA
2019/11/28 15:05:01 AWS3 0.30 144 1.34 154 1.5 89 -0.1 NA NA 1000.9 NA NA M NA NA NA NA
2019/11/28 15:06:02 AWS3 0.77 150 1.34 154 1.5 89 -0.2 NA NA 1000.9 NA NA M NA NA NA NA
2019/11/28 15:07:02 AWS3 0.72 156 1.34 154 1.5 89 -0.2 NA NA 1000.8 NA NA M NA NA NA NA
2019/11/28 15:08:01 AWS3 0.24 157 1.34 154 1.5 89 -0.2 NA NA 1000.9 NA NA M NA NA NA NA
2019/11/28 15:09:01 AWS3 0.79 158 1.59 158 1.5 88 -0.2 NA NA 1001.0 NA NA M NA NA NA NA
2019/11/28 15:10:01 AWS3 0.87 159 1.59 158 1.5 88 -0.2 NA NA 1001.0 NA NA M NA NA NA NA
2019/11/28 15:11:02 AWS3 0.22 156 1.59 158 1.5 89 -0.2 NA NA 1001.0 NA NA M NA NA NA NA
2019/11/28 15:12:01 AWS3 0.80 153 1.59 151 1.4 89 -0.2 NA NA 1001.0 NA NA M NA NA NA NA
2019/11/28 15:13:01 AWS3 0.75 148 1.59 151 1.4 89 -0.2 NA NA 1001.0 NA NA M NA NA NA NA
2019/11/28 15:14:01 AWS3 0.00 142 1.59 151 1.4 89 -0.2 NA NA 1001.0 NA NA M NA NA NA NA
2019/11/28 15:15:01 AWS3 0.00 139 1.59 151 1.5 89 -0.1 NA NA 1001.0 NA NA M NA NA NA NA
2019/11/28 15:16:01 AWS3 0.00 132 1.59 151 1.6 89 0.1 NA NA 1000.9 NA NA M NA NA NA NA
2019/11/28 15:17:00 AWS3 0.00 98 1.59 151 1.8 89 0.3 NA NA 1000.9 NA NA M NA NA NA NA
2019/11/28 15:18:01 AWS3 0.00 47 1.59 151 2.1 89 0.5 NA NA 1000.9 NA NA M NA NA NA NA
2019/11/28 15:19:01 AWS3 0.00 359 1.59 151 2.4 89 0.7 NA NA 1000.9 NA NA M NA NA NA NA
2019/11/28 15:20:01 AWS3 0.00 335 1.59 151 2.6 87 0.7 NA NA 1000.9 NA NA M NA NA NA NA
2019/11/28 15:21:01 AWS3 0.00 334 1.59 151 2.7 86 0.6 NA NA 1000.9 NA NA M NA NA NA NA
2019/11/28 15:22:01 AWS3 0.00 334 M M 2.7 85 0.5 NA NA 1000.9 NA NA M NA NA NA NA
2019/11/28 15:23:02 AWS3 0.00 334 M M 2.7 84 0.3 NA NA 1000.9 NA NA M NA NA NA NA
2019/11/28 15:24:01 AWS3 0.00 334 M M 2.6 84 0.2 NA NA 1001.0 NA NA M NA NA NA NA
2019/11/28 15:25:01 AWS3 0.00 334 M M 2.7 84 0.3 NA NA 1001.0 NA NA M NA NA NA NA
2019/11/28 15:26:01 AWS3 0.00 344 M M 3.0 84 0.5 NA NA 1000.9 NA NA M NA NA NA NA
2019/11/28 15:27:00 AWS3 0.00 24 M M 3.2 83 0.6 NA NA 1001.0 NA NA M NA NA NA NA
2019/11/28 15:28:01 AWS3 0.00 74 M M 3.5 82 0.7 NA NA 1001.0 NA NA M NA NA NA NA
2019/11/28 15:29:01 AWS3 0.00 125 M M 3.6 80 0.6 NA NA 1001.0 NA NA M NA NA NA NA
2019/11/28 15:30:01 AWS3 0.00 140 M M 3.6 79 0.4 NA NA 1000.9 NA NA M NA NA NA NA
2019/11/28 15:31:00 AWS3 0.00 139 M M 3.5 78 0.1 NA NA 1001.0 NA NA M NA NA NA NA
2019/11/28 15:32:00 AWS3 0.00 124 M M 3.3 78 -0.1 NA NA 1001.0 NA NA M NA NA NA NA
2019/11/28 15:33:00 AWS3 0.00 107 M M 3.2 79 -0.2 NA NA 1000.9 NA NA M NA NA NA NA
2019/11/28 15:34:01 AWS3 0.00 103 M M 3.1 79 -0.1 NA NA 1001.0 NA NA M NA NA NA NA
2019/11/28 15:35:00 AWS3 0.00 105 M M 3.2 80 0.1 NA NA 1001.0 NA NA M NA NA NA NA
2019/11/28 15:36:00 AWS3 0.00 104 M M 3.4 80 0.2 NA NA 1001.0 NA NA M NA NA NA NA
2019/11/28 15:37:01 AWS3 0.00 104 M M 3.6 79 0.3 NA NA 1001.0 NA NA M NA NA NA NA
2019/11/28 15:38:00 AWS3 0.00 105 M M 3.7 78 0.3 NA NA 1001.0 NA NA M NA NA NA NA
2019/11/28 15:39:01 AWS3 0.00 108 M M 3.8 78 0.2 NA NA 1000.9 NA NA M NA NA NA NA
2019/11/28 15:40:01 AWS3 0.00 113 M M 3.7 77 0.1 NA NA 1001.0 NA NA M NA NA NA NA
2019/11/28 15:41:01 AWS3 0.00 123 M M 3.6 77 -0.0 NA NA 1001.1 NA NA M NA NA NA NA
2019/11/28 15:42:00 AWS3 0.00 137 M M 3.4 78 -0.1 NA NA 1001.0 NA NA M NA NA NA NA
2019/11/28 15:43:00 AWS3 0.00 147 M M 3.2 78 -0.2 NA NA 1001.1 NA NA M NA NA NA NA
2019/11/28 15:44:00 AWS3 0.00 152 M M 2.9 79 -0.3 NA NA 1001.0 NA NA M NA NA NA NA
2019/11/28 15:45:01 AWS3 0.00 156 M M 2.6 80 -0.4 NA NA 1001.0 NA NA M NA NA NA NA
2019/11/28 15:46:01 AWS3 0.00 158 M M 2.4 82 -0.5 NA NA 1001.1 NA NA M NA NA NA NA
2019/11/28 15:47:01 AWS3 0.00 158 M M 2.2 83 -0.5 NA NA 1000.9 NA NA M NA NA NA NA
2019/11/28 15:48:00 AWS3 0.74 154 1.65 152 2.0 84 -0.5 NA NA 1001.0 NA NA M NA NA NA NA
2019/11/28 15:49:01 AWS3 1.43 149 2.21 150 1.9 85 -0.4 NA NA 1000.9 NA NA M NA NA NA NA
2019/11/28 15:50:01 AWS3 1.70 146 2.31 144 1.8 85 -0.4 NA NA 1001.1 NA NA M NA NA NA NA
2019/11/28 15:51:01 AWS3 1.83 143 2.31 144 1.8 86 -0.3 NA NA 1001.1 NA NA M NA NA NA NA
2019/11/28 15:52:01 AWS3 1.40 139 2.31 144 1.8 87 -0.2 NA NA 1001.1 NA NA M NA NA NA NA
2019/11/28 15:53:00 AWS3 1.32 133 2.31 144 1.8 87 -0.1 NA NA 1001.1 NA NA M NA NA NA NA
2019/11/28 15:54:00 AWS3 1.35 130 2.31 144 1.9 87 0.0 NA NA 1001.0 NA NA M NA NA NA NA
2019/11/28 15:55:00 AWS3 1.03 132 2.31 144 1.9 88 0.1 NA NA 1001.1 NA NA M NA NA NA NA
2019/11/28 15:56:01 AWS3 1.08 139 2.31 144 2.0 87 0.1 NA NA 1001.1 NA NA M NA NA NA NA
2019/11/28 15:57:01 AWS3 1.61 147 2.31 144 2.0 87 0.1 NA NA 1001.1 NA NA M NA NA NA NA
2019/11/28 15:58:01 AWS3 1.90 150 2.31 144 1.9 87 0.0 NA NA 1001.1 NA NA M NA NA NA NA
2019/11/28 15:59:01 AWS3 1.89 152 2.31 144 1.9 87 -0.0 NA NA 1001.1 NA NA M NA NA NA NA
2019/11/28 16:00:01 AWS3 2.04 151 2.52 151 1.8 87 -0.1 NA NA 1001.2 NA NA M NA NA NA NA
2019/11/28 16:01:01 AWS3 2.10 146 2.52 151 1.7 88 -0.1 NA NA 1001.1 NA NA M NA NA NA NA
2019/11/28 16:02:01 AWS3 1.85 141 2.52 151 1.7 88 -0.1 NA NA 1001.1 NA NA M NA NA NA NA
2019/11/28 16:03:00 AWS3 1.29 142 2.52 151 1.7 89 0.0 NA NA 1001.1 NA NA M NA NA NA NA
2019/11/28 16:04:01 AWS3 1.15 147 2.52 151 1.7 89 0.0 NA NA 1000.9 NA NA M NA NA NA NA
2019/11/28 16:05:01 AWS3 1.51 149 2.52 151 1.8 89 0.1 NA NA 1001.0 NA NA M NA NA NA NA
2019/11/28 16:06:01 AWS3 1.71 151 2.52 151 1.8 88 0.1 NA NA 1001.1 NA NA M NA NA NA NA
2019/11/28 16:07:01 AWS3 1.62 153 2.52 151 1.7 88 0.0 NA NA 1001.1 NA NA M NA NA NA NA
2019/11/28 16:08:01 AWS3 1.19 152 2.52 151 1.7 88 -0.0 NA NA 1001.1 NA NA M NA NA NA NA
2019/11/28 16:09:01 AWS3 1.21 150 2.52 151 1.6 89 -0.0 NA NA 1001.1 NA NA M NA NA NA NA
2019/11/28 16:10:01 AWS3 1.19 151 2.31 148 1.6 89 -0.0 NA NA 1001.1 NA NA M NA NA NA NA
2019/11/28 16:11:02 AWS3 1.12 149 2.11 149 1.6 89 -0.0 NA NA 1001.1 NA NA M NA NA NA NA
2019/11/28 16:12:00 AWS3 1.69 146 2.11 151 1.6 89 0.0 NA NA 1001.1 NA NA M NA NA NA NA
2019/11/28 16:13:01 AWS3 1.87 151 2.11 151 1.6 89 0.0 NA NA 1001.1 NA NA M NA NA NA NA
2019/11/28 16:14:01 AWS3 1.50 151 2.11 151 1.6 89 0.0 NA NA 1001.1 NA NA M NA NA NA NA
2019/11/28 16:15:01 AWS3 0.75 153 2.11 151 1.6 89 0.1 NA NA 1001.1 NA NA M NA NA NA NA
2019/11/28 16:16:01 AWS3 0.09 157 2.11 151 1.6 90 0.1 NA NA 1001.1 NA NA M NA NA NA NA
2019/11/28 16:17:01 AWS3 0.32 158 2.11 151 1.6 90 0.1 NA NA 1001.1 NA NA M NA NA NA NA
2019/11/28 16:18:00 AWS3 0.57 158 2.11 151 1.6 90 0.1 NA NA 1001.0 NA NA M NA NA NA NA
2019/11/28 16:19:00 AWS3 0.28 153 2.11 151 1.6 90 0.1 NA NA 1001.1 NA NA M NA NA NA NA
2019/11/28 16:20:00 AWS3 0.04 149 2.11 151 1.6 90 0.2 NA NA 1001.1 NA NA M NA NA NA NA
2019/11/28 16:21:01 AWS3 0.10 153 2.11 151 1.6 90 0.2 NA NA 1001.0 NA NA M NA NA NA NA
2019/11/28 16:22:00 AWS3 0.20 151 1.95 154 1.7 90 0.2 NA NA 1001.0 NA NA M NA NA NA NA
2019/11/28 16:23:01 AWS3 0.33 142 1.90 147 1.7 90 0.3 NA NA 1001.0 NA NA M NA NA NA NA
2019/11/28 16:24:01 AWS3 0.76 138 1.75 140 1.8 90 0.3 NA NA 1001.1 NA NA M NA NA NA NA
2019/11/28 16:25:00 AWS3 0.73 138 1.75 140 1.9 90 0.4 NA NA 1001.0 NA NA M NA NA NA NA
2019/11/28 16:26:01 AWS3 0.93 137 1.75 140 2.0 89 0.4 NA NA 1001.1 NA NA M NA NA NA NA
2019/11/28 16:27:01 AWS3 1.50 133 1.75 135 2.1 89 0.5 NA NA 1000.9 NA NA M NA NA NA NA
2019/11/28 16:28:00 AWS3 1.63 132 1.80 132 2.1 88 0.4 NA NA 1001.0 NA NA M NA NA NA NA
2019/11/28 16:29:01 AWS3 1.64 137 1.80 141 2.2 88 0.4 NA NA 1001.1 NA NA M NA NA NA NA
2019/11/28 16:30:01 AWS3 1.62 143 2.01 147 2.1 88 0.3 NA NA 1001.1 NA NA M NA NA NA NA
2019/11/28 16:31:01 AWS3 1.84 145 2.11 146 2.1 87 0.2 NA NA 1001.1 NA NA M NA NA NA NA
2019/11/28 16:32:00 AWS3 1.94 145 2.11 146 2.1 87 0.2 NA NA 1001.1 NA NA M NA NA NA NA
2019/11/28 16:33:00 AWS3 1.70 144 2.11 146 2.0 88 0.2 NA NA 1001.1 NA NA M NA NA NA NA
2019/11/28 16:34:01 AWS3 1.48 145 2.11 146 2.0 88 0.1 NA NA 1001.1 NA NA M NA NA NA NA
2019/11/28 16:35:00 AWS3 1.15 142 2.11 146 2.0 88 0.2 NA NA 1001.0 NA NA M NA NA NA NA
2019/11/28 16:36:01 AWS3 0.58 136 2.11 146 2.0 88 0.3 NA NA 1000.9 NA NA M NA NA NA NA
2019/11/28 16:37:00 AWS3 0.37 129 2.11 146 2.1 88 0.4 NA NA 1001.0 NA NA M NA NA NA NA
2019/11/28 16:38:00 AWS3 0.71 122 2.11 146 2.2 88 0.4 NA NA 1001.1 NA NA M NA NA NA NA
2019/11/28 16:39:01 AWS3 1.02 118 2.11 146 2.3 88 0.5 NA NA 1001.0 NA NA M NA NA NA NA
2019/11/28 16:40:01 AWS3 1.16 121 2.11 146 2.4 88 0.6 NA NA 1001.1 NA NA M NA NA NA NA
2019/11/28 16:41:00 AWS3 1.08 125 2.01 140 2.5 87 0.5 NA NA 1001.1 NA NA M NA NA NA NA
2019/11/28 16:42:00 AWS3 1.11 126 1.85 149 2.5 87 0.5 NA NA 1001.1 NA NA M NA NA NA NA
2019/11/28 16:43:00 AWS3 1.38 126 1.75 126 2.5 86 0.5 NA NA 1001.1 NA NA M NA NA NA NA
2019/11/28 16:44:01 AWS3 1.12 125 1.75 126 2.5 86 0.4 NA NA 1001.0 NA NA M NA NA NA NA
2019/11/28 16:45:01 AWS3 0.99 122 1.75 126 2.5 85 0.3 NA NA 1001.1 NA NA M NA NA NA NA
2019/11/28 16:46:00 AWS3 0.84 121 1.75 126 2.6 85 0.3 NA NA 1001.0 NA NA M NA NA NA NA
2019/11/28 16:47:00 AWS3 0.50 123 1.75 126 2.6 85 0.3 NA NA 1001.0 NA NA M NA NA NA NA
2019/11/28 16:48:00 AWS3 0.40 123 1.75 126 2.6 84 0.3 NA NA 1001.0 NA NA M NA NA NA NA
2019/11/28 16:49:00 AWS3 0.72 122 1.75 126 2.7 84 0.3 NA NA 1001.0 NA NA M NA NA NA NA
2019/11/28 16:50:01 AWS3 0.81 121 1.75 126 2.8 84 0.3 NA NA 1001.0 NA NA M NA NA NA NA
2019/11/28 16:51:01 AWS3 0.57 118 1.75 126 2.8 83 0.3 NA NA 1001.0 NA NA M NA NA NA NA
2019/11/28 16:52:00 AWS3 0.94 113 1.75 126 2.9 83 0.3 NA NA 1001.0 NA NA M NA NA NA NA
2019/11/28 16:53:01 AWS3 1.02 112 1.65 125 3.0 83 0.3 NA NA 1000.9 NA NA M NA NA NA NA
2019/11/28 16:54:01 AWS3 0.59 112 1.65 125 3.1 82 0.4 NA NA 1001.0 NA NA M NA NA NA NA
2019/11/28 16:55:01 AWS3 0.14 116 1.54 110 3.2 82 0.4 NA NA 1001.0 NA NA M NA NA NA NA
2019/11/28 16:56:01 AWS3 0.33 121 1.54 110 3.3 81 0.4 NA NA 1000.8 NA NA M NA NA NA NA
2019/11/28 16:57:00 AWS3 0.59 118 1.54 110 3.4 81 0.4 NA NA 1000.9 NA NA M NA NA NA NA
2019/11/28 16:58:02 AWS3 0.62 116 1.54 110 3.5 80 0.3 NA NA 1000.9 NA NA M NA NA NA NA
2019/11/28 16:59:02 AWS3 0.56 120 1.54 110 3.5 80 0.3 NA NA 1000.9 NA NA M NA NA NA NA
2019/11/28 17:00:02 AWS3 0.62 131 1.54 110 3.4 79 0.2 NA NA 1000.8 NA NA M NA NA NA NA
2019/11/28 17:01:01 AWS3 1.00 138 1.54 110 3.3 80 0.1 NA NA 1000.8 NA NA M NA NA NA NA
2019/11/28 17:02:01 AWS3 0.94 140 1.44 119 3.2 80 0.1 NA NA 1000.8 NA NA M NA NA NA NA
2019/11/28 17:03:01 AWS3 0.58 141 1.44 119 3.1 81 0.1 NA NA 1000.8 NA NA M NA NA NA NA
2019/11/28 17:04:01 AWS3 0.54 140 1.44 119 3.0 81 0.1 NA NA 1000.7 NA NA M NA NA NA NA
2019/11/28 17:05:01 AWS3 0.66 141 1.44 141 3.0 82 0.1 NA NA 1000.8 NA NA M NA NA NA NA
2019/11/28 17:06:02 AWS3 0.86 142 1.54 143 2.9 82 0.1 NA NA 1000.8 NA NA M NA NA NA NA
2019/11/28 17:07:02 AWS3 1.23 142 1.75 144 2.9 82 0.2 NA NA 1000.7 NA NA M NA NA NA NA
2019/11/28 17:08:01 AWS3 1.68 143 2.01 145 2.9 82 0.2 NA NA 1000.8 NA NA M NA NA NA NA
2019/11/28 17:09:02 AWS3 2.02 145 2.31 148 2.8 83 0.2 NA NA 1000.8 NA NA M NA NA NA NA
2019/11/28 17:10:02 AWS3 2.17 146 2.42 150 2.8 83 0.1 NA NA 1000.8 NA NA M NA NA NA NA
2019/11/28 17:11:03 AWS3 2.25 147 2.42 146 2.6 83 0.1 NA NA 1000.7 NA NA M NA NA NA NA
2019/11/28 17:12:02 AWS3 2.28 147 2.42 146 2.5 84 0.0 NA NA 1000.7 NA NA M NA NA NA NA
2019/11/28 17:13:02 AWS3 2.24 146 2.47 146 2.4 84 0.0 NA NA 1000.7 NA NA M NA NA NA NA
2019/11/28 17:14:02 AWS3 2.15 144 2.47 145 2.3 85 0.0 NA NA 1000.7 NA NA M NA NA NA NA
2019/11/28 17:15:02 AWS3 2.18 144 2.52 143 2.3 85 0.1 NA NA 1000.7 NA NA M NA NA NA NA
2019/11/28 17:16:02 AWS3 2.22 145 2.52 143 2.2 86 0.1 NA NA 1000.7 NA NA M NA NA NA NA
2019/11/28 17:17:02 AWS3 2.01 147 2.52 143 2.3 86 0.2 NA NA 1000.6 NA NA M NA NA NA NA
2019/11/28 17:18:02 AWS3 1.94 147 2.52 143 2.3 86 0.2 NA NA 1000.7 NA NA M NA NA NA NA
2019/11/28 17:19:02 AWS3 2.03 146 2.52 143 2.3 86 0.2 NA NA 1000.7 NA NA M NA NA NA NA
2019/11/28 17:20:02 AWS3 2.03 145 2.52 143 2.3 86 0.2 NA NA 1000.7 NA NA M NA NA NA NA
2019/11/28 17:21:02 AWS3 2.13 144 2.52 143 2.3 86 0.2 NA NA 1000.6 NA NA M NA NA NA NA
2019/11/28 17:22:02 AWS3 2.14 143 2.62 143 2.3 86 0.2 NA NA 1000.6 NA NA M NA NA NA NA
2019/11/28 17:23:02 AWS3 2.01 142 2.62 143 2.4 86 0.2 NA NA 1000.7 NA NA M NA NA NA NA
2019/11/28 17:24:02 AWS3 1.98 142 2.62 143 2.5 85 0.3 NA NA 1000.7 NA NA M NA NA NA NA
2019/11/28 17:25:02 AWS3 2.21 143 2.88 144 2.6 85 0.3 NA NA 1000.6 NA NA M NA NA NA NA
2019/11/28 17:26:02 AWS3 2.52 142 2.88 144 2.6 85 0.3 NA NA 1000.7 NA NA M NA NA NA NA
2019/11/28 17:27:02 AWS3 2.71 140 3.09 139 2.6 84 0.2 NA NA 1000.7 NA NA M NA NA NA NA
2019/11/28 17:28:00 AWS3 2.78 141 3.09 139 2.6 84 0.2 NA NA 1000.6 NA NA M NA NA NA NA
2019/11/28 17:29:01 AWS3 2.64 141 3.09 139 2.6 84 0.1 NA NA 1000.7 NA NA M NA NA NA NA
2019/11/28 17:30:00 AWS3 2.52 141 3.09 139 2.5 84 0.1 NA NA 1000.7 NA NA M NA NA NA NA
2019/11/28 17:31:00 AWS3 2.53 142 3.09 139 2.5 84 0.1 NA NA 1000.7 NA NA M NA NA NA NA
2019/11/28 17:32:00 AWS3 2.51 144 3.09 139 2.5 84 0.1 NA NA 1000.6 NA NA M NA NA NA NA
2019/11/28 17:33:01 AWS3 2.57 144 3.09 138 2.5 84 0.1 NA NA 1000.7 NA NA M NA NA NA NA
2019/11/28 17:34:01 AWS3 2.60 144 3.09 138 2.5 84 0.1 NA NA 1000.7 NA NA M NA NA NA NA
2019/11/28 17:35:01 AWS3 2.43 144 3.09 138 2.5 84 0.1 NA NA 1000.6 NA NA M NA NA NA NA
2019/11/28 17:36:01 AWS3 2.12 144 3.09 138 2.5 84 0.1 NA NA 1000.5 NA NA M NA NA NA NA
2019/11/28 17:37:02 AWS3 2.01 143 3.09 138 2.5 84 0.1 NA NA 1000.7 NA NA M NA NA NA NA
2019/11/28 17:38:01 AWS3 2.04 142 3.09 138 2.5 84 0.1 NA NA 1000.7 NA NA M NA NA NA NA
2019/11/28 17:39:01 AWS3 1.89 141 3.09 138 2.6 84 0.1 NA NA 1000.8 NA NA M NA NA NA NA
2019/11/28 17:40:01 AWS3 2.06 140 3.09 138 2.6 84 0.2 NA NA 1000.8 NA NA M NA NA NA NA
2019/11/28 17:41:01 AWS3 2.21 140 3.09 138 2.6 84 0.2 NA NA 1000.8 NA NA M NA NA NA NA
2019/11/28 17:42:01 AWS3 2.11 139 3.09 138 2.7 84 0.2 NA NA 1000.8 NA NA M NA NA NA NA
2019/11/28 17:43:01 AWS3 2.19 141 2.93 144 2.7 83 0.2 NA NA 1000.8 NA NA M NA NA NA NA
2019/11/28 17:44:01 AWS3 2.26 143 2.83 144 2.7 83 0.2 NA NA 1000.8 NA NA M NA NA NA NA
2019/11/28 17:45:01 AWS3 2.24 145 2.83 144 2.7 84 0.2 NA NA 1000.8 NA NA M NA NA NA NA
2019/11/28 17:46:01 AWS3 2.30 143 2.88 135 2.7 84 0.2 NA NA 1000.5 NA NA M NA NA NA NA
2019/11/28 17:47:00 AWS3 2.45 140 2.93 145 2.7 84 0.2 NA NA 1000.7 NA NA M NA NA NA NA
2019/11/28 17:48:01 AWS3 2.58 140 2.93 145 2.7 84 0.3 NA NA 1000.7 NA NA M NA NA NA NA
2019/11/28 17:49:01 AWS3 2.74 143 2.98 143 2.7 84 0.3 NA NA 1000.6 NA NA M NA NA NA NA
2019/11/28 17:50:01 AWS3 2.83 146 3.19 138 2.7 84 0.2 NA NA 1000.8 NA NA M NA NA NA NA
2019/11/28 17:51:02 AWS3 2.71 143 3.29 142 2.6 84 0.2 NA NA 1000.7 NA NA M NA NA NA NA
2019/11/28 17:52:01 AWS3 2.41 141 3.29 142 2.6 84 0.2 NA NA 1000.7 NA NA M NA NA NA NA
2019/11/28 17:53:02 AWS3 2.15 143 3.29 142 2.5 84 0.2 NA NA 1000.7 NA NA M NA NA NA NA
2019/11/28 17:54:02 AWS3 2.13 142 3.29 142 2.5 85 0.2 NA NA 1000.7 NA NA M NA NA NA NA
2019/11/28 17:55:02 AWS3 2.29 141 3.29 142 2.5 85 0.2 NA NA 1000.7 NA NA M NA NA NA NA
2019/11/28 17:56:02 AWS3 2.41 141 3.29 142 2.6 84 0.2 NA NA 1000.7 NA NA M NA NA NA NA
2019/11/28 17:57:01 AWS3 2.56 140 3.29 142 2.6 84 0.2 NA NA 1000.5 NA NA M NA NA NA NA
2019/11/28 17:58:01 AWS3 2.73 141 3.29 142 2.7 84 0.2 NA NA 1000.7 NA NA M NA NA NA NA
2019/11/28 17:59:02 AWS3 2.74 139 3.29 142 2.7 83 0.2 NA NA 1000.7 NA NA M NA NA NA NA
2019/11/28 18:00:02 AWS3 2.72 139 3.29 142 2.7 83 0.1 NA NA 1000.6 NA NA M NA NA NA NA
2019/11/28 18:01:02 AWS3 2.79 137 3.34 141 2.7 83 0.1 NA NA 1000.5 NA NA M NA NA NA NA
2019/11/28 18:02:01 AWS3 2.62 138 3.34 141 2.7 83 0.1 NA NA 1000.7 NA NA M NA NA NA NA
2019/11/28 18:03:01 AWS3 2.31 140 3.34 141 2.7 83 0.1 NA NA 1000.7 NA NA M NA NA NA NA
2019/11/28 18:04:02 AWS3 2.36 141 3.34 141 2.7 83 0.1 NA NA 1000.7 NA NA M NA NA NA NA
2019/11/28 18:05:02 AWS3 2.44 140 3.34 141 2.7 83 0.1 NA NA 1000.6 NA NA M NA NA NA NA
2019/11/28 18:06:02 AWS3 2.44 137 3.34 141 2.7 83 0.1 NA NA 1000.6 NA NA M NA NA NA NA
2019/11/28 18:07:02 AWS3 2.40 132 3.34 141 2.7 83 0.1 NA NA 1000.6 NA NA M NA NA NA NA
2019/11/28 18:08:01 AWS3 2.38 130 3.34 141 2.7 83 0.1 NA NA 1000.6 NA NA M NA NA NA NA
2019/11/28 18:09:02 AWS3 2.56 131 3.34 141 2.7 83 0.1 NA NA 1000.7 NA NA M NA NA NA NA
2019/11/28 18:10:01 AWS3 2.61 134 3.34 141 2.7 83 0.1 NA NA 1000.5 NA NA M NA NA NA NA
2019/11/28 18:11:02 AWS3 2.53 137 2.98 140 2.7 83 0.0 NA NA 1000.7 NA NA M NA NA NA NA
2019/11/28 18:12:01 AWS3 2.52 139 2.98 140 2.6 83 -0.0 NA NA 1000.6 NA NA M NA NA NA NA
2019/11/28 18:13:01 AWS3 2.54 139 2.98 140 2.6 83 -0.0 NA NA 1000.8 NA NA M NA NA NA NA
2019/11/28 18:14:02 AWS3 2.48 140 2.98 140 2.6 83 -0.0 NA NA 1000.6 NA NA M NA NA NA NA
2019/11/28 18:15:01 AWS3 2.52 141 2.98 140 2.6 83 -0.0 NA NA 1000.7 NA NA M NA NA NA NA
2019/11/28 18:16:02 AWS3 2.52 139 2.98 140 2.7 83 0.0 NA NA 1000.7 NA NA M NA NA NA NA
2019/11/28 18:17:02 AWS3 2.43 138 2.98 135 2.8 82 0.1 NA NA 1000.6 NA NA M NA NA NA NA
2019/11/28 18:18:01 AWS3 2.46 137 2.98 135 2.9 82 0.1 NA NA 1000.6 NA NA M NA NA NA NA
2019/11/28 18:19:02 AWS3 2.53 135 2.98 135 2.9 82 0.1 NA NA 1000.7 NA NA M NA NA NA NA
2019/11/28 18:20:01 AWS3 2.56 135 2.98 135 2.9 81 0.1 NA NA 1000.5 NA NA M NA NA NA NA
2019/11/28 18:21:01 AWS3 2.51 135 2.98 135 3.0 81 0.0 NA NA 1000.6 NA NA M NA NA NA NA
2019/11/28 18:22:01 AWS3 2.55 135 2.98 135 2.9 81 0.0 NA NA 1000.5 NA NA M NA NA NA NA
2019/11/28 18:23:02 AWS3 2.53 137 2.98 135 2.9 81 0.0 NA NA 1000.6 NA NA M NA NA NA NA
2019/11/28 18:24:02 AWS3 2.37 138 2.98 135 2.9 82 0.0 NA NA 1000.5 NA NA M NA NA NA NA
2019/11/28 18:25:01 AWS3 2.39 137 2.98 135 2.9 82 0.1 NA NA 1000.6 NA NA M NA NA NA NA
2019/11/28 18:26:01 AWS3 2.56 135 2.98 135 2.9 82 0.1 NA NA 1000.6 NA NA M NA NA NA NA
2019/11/28 18:27:02 AWS3 2.59 133 2.93 136 2.9 82 0.1 NA NA 1000.6 NA NA M NA NA NA NA
2019/11/28 18:28:01 AWS3 2.57 131 2.93 136 2.9 82 0.2 NA NA 1000.6 NA NA M NA NA NA NA
2019/11/28 18:29:02 AWS3 2.48 132 2.93 136 2.9 83 0.2 NA NA 1000.6 NA NA M NA NA NA NA
2019/11/28 18:30:01 AWS3 2.40 132 2.93 136 2.9 83 0.3 NA NA 1000.6 NA NA M NA NA NA NA
2019/11/28 18:31:02 AWS3 2.46 135 2.93 136 2.9 83 0.3 NA NA 1000.6 NA NA M NA NA NA NA
2019/11/28 18:32:01 AWS3 2.27 139 2.93 136 2.9 83 0.3 NA NA 1000.6 NA NA M NA NA NA NA
2019/11/28 18:33:01 AWS3 2.05 138 2.93 136 3.0 83 0.4 NA NA 1000.5 NA NA M NA NA NA NA
2019/11/28 18:34:01 AWS3 1.99 139 2.93 136 3.0 83 0.3 NA NA 1000.6 NA NA M NA NA NA NA
2019/11/28 18:35:01 AWS3 1.99 140 2.88 134 3.0 83 0.3 NA NA 1000.5 NA NA M NA NA NA NA
2019/11/28 18:36:01 AWS3 2.16 139 2.88 134 3.0 82 0.3 NA NA 1000.5 NA NA M NA NA NA NA
2019/11/28 18:37:01 AWS3 2.36 136 2.83 127 3.0 82 0.3 NA NA 1000.6 NA NA M NA NA NA NA
2019/11/28 18:38:00 AWS3 2.34 138 2.83 133 3.0 82 0.2 NA NA 1000.6 NA NA M NA NA NA NA
2019/11/28 18:39:00 AWS3 2.34 141 2.83 133 3.1 82 0.3 NA NA 1000.5 NA NA M NA NA NA NA
2019/11/28 18:40:00 AWS3 2.37 141 2.83 133 3.1 82 0.3 NA NA 1000.6 NA NA M NA NA NA NA
2019/11/28 18:41:01 AWS3 2.22 140 2.83 133 3.1 82 0.3 NA NA 1000.6 NA NA M NA NA NA NA
2019/11/28 18:42:00 AWS3 2.28 141 2.83 133 3.2 82 0.4 NA NA 1000.6 NA NA M NA NA NA NA
2019/11/28 18:43:01 AWS3 2.48 141 2.83 133 3.2 82 0.4 NA NA 1000.6 NA NA M NA NA NA NA
2019/11/28 18:44:01 AWS3 2.43 142 2.83 133 3.3 82 0.4 NA NA 1000.6 NA NA M NA NA NA NA
2019/11/28 18:45:01 AWS3 2.35 141 2.83 133 3.3 81 0.4 NA NA 1000.6 NA NA M NA NA NA NA
2019/11/28 18:46:01 AWS3 2.29 141 2.83 133 3.3 81 0.4 NA NA 1000.6 NA NA M NA NA NA NA
2019/11/28 18:47:01 AWS3 2.20 140 2.83 133 3.3 81 0.4 NA NA 1000.6 NA NA M NA NA NA NA
2019/11/28 18:48:01 AWS3 1.93 142 2.78 141 3.3 81 0.4 NA NA 1000.6 NA NA M NA NA NA NA
2019/11/28 18:49:01 AWS3 1.92 146 2.78 141 3.3 81 0.4 NA NA 1000.6 NA NA M NA NA NA NA
2019/11/28 18:50:01 AWS3 2.34 145 2.78 141 3.2 82 0.4 NA NA 1000.6 NA NA M NA NA NA NA
2019/11/28 18:51:01 AWS3 2.43 144 2.78 141 3.1 82 0.4 NA NA 1000.6 NA NA M NA NA NA NA
2019/11/28 18:52:01 AWS3 2.33 143 2.78 141 3.0 83 0.4 NA NA 1000.6 NA NA M NA NA NA NA
2019/11/28 18:53:01 AWS3 2.21 143 2.78 143 2.9 83 0.3 NA NA 1000.6 NA NA M NA NA NA NA
2019/11/28 18:54:00 AWS3 2.20 147 2.78 143 2.8 84 0.3 NA NA 1000.6 NA NA M NA NA NA NA
2019/11/28 18:55:01 AWS3 2.52 151 3.14 154 2.8 84 0.3 NA NA 1000.6 NA NA M NA NA NA NA
2019/11/28 18:56:01 AWS3 2.88 150 3.19 152 2.7 84 0.3 NA NA 1000.5 NA NA M NA NA NA NA
2019/11/28 18:57:00 AWS3 3.01 149 3.29 155 2.6 85 0.3 NA NA 1000.6 NA NA M NA NA NA NA
2019/11/28 18:58:01 AWS3 2.97 148 3.34 146 2.6 85 0.3 NA NA 1000.6 NA NA M NA NA NA NA
2019/11/28 18:59:01 AWS3 2.65 151 3.34 146 2.6 85 0.4 NA NA 1000.5 NA NA M NA NA NA NA
2019/11/28 19:00:02 AWS3 2.36 153 3.34 146 2.6 85 0.3 NA NA 1000.6 NA NA M NA NA NA NA
2019/11/28 19:01:02 AWS3 2.55 151 3.40 152 2.6 85 0.3 NA NA 1000.6 NA NA M NA NA NA NA
2019/11/28 19:02:02 AWS3 2.78 149 3.40 152 2.6 84 0.3 NA NA 1000.6 NA NA M NA NA NA NA
2019/11/28 19:03:02 AWS3 2.63 151 3.40 152 2.7 84 0.2 NA NA 1000.5 NA NA M NA NA NA NA
2019/11/28 19:04:02 AWS3 2.13 152 3.40 152 2.8 83 0.1 NA NA 1000.5 NA NA M NA NA NA NA
2019/11/28 19:05:02 AWS3 1.40 151 3.40 152 2.8 82 0.1 NA NA 1000.6 NA NA M NA NA NA NA
2019/11/28 19:06:01 AWS3 1.22 151 3.40 152 2.8 82 0.0 NA NA 1000.6 NA NA M NA NA NA NA
2019/11/28 19:07:02 AWS3 1.14 156 3.40 152 2.8 82 0.0 NA NA 1000.6 NA NA M NA NA NA NA
2019/11/28 19:08:01 AWS3 1.26 159 3.40 152 2.7 82 -0.0 NA NA 1000.6 NA NA M NA NA NA NA
2019/11/28 19:09:02 AWS3 1.34 158 3.40 152 2.6 83 -0.0 NA NA 1000.6 NA NA M NA NA NA NA
2019/11/28 19:10:02 AWS3 1.20 159 3.40 152 2.5 83 -0.0 NA NA 1000.6 NA NA M NA NA NA NA
2019/11/28 19:11:03 AWS3 1.47 158 3.24 145 2.4 84 -0.0 NA NA 1000.6 NA NA M NA NA NA NA
2019/11/28 19:12:02 AWS3 1.30 155 2.88 145 2.3 84 -0.0 NA NA 1000.6 NA NA M NA NA NA NA
2019/11/28 19:13:02 AWS3 1.02 148 2.42 153 2.3 85 0.1 NA NA 1000.5 NA NA M NA NA NA NA
2019/11/28 19:14:02 AWS3 1.34 142 2.21 157 2.3 86 0.2 NA NA 1000.5 NA NA M NA NA NA NA
2019/11/28 19:15:02 AWS3 1.73 143 2.21 157 2.4 86 0.3 NA NA 1000.6 NA NA M NA NA NA NA
2019/11/28 19:16:02 AWS3 1.79 143 2.31 137 2.5 86 0.4 NA NA 1000.5 NA NA M NA NA NA NA
2019/11/28 19:17:01 AWS3 1.89 137 2.31 137 2.7 85 0.5 NA NA 1000.5 NA NA M NA NA NA NA
2019/11/28 19:18:01 AWS3 1.99 140 2.37 136 2.8 84 0.4 NA NA 1000.5 NA NA M NA NA NA NA
2019/11/28 19:19:02 AWS3 1.90 150 2.37 136 2.9 83 0.4 NA NA 1000.5 NA NA M NA NA NA NA
2019/11/28 19:20:01 AWS3 1.81 148 2.37 136 2.9 83 0.3 NA NA 1000.5 NA NA M NA NA NA NA
2019/11/28 19:21:02 AWS3 1.82 145 2.37 136 2.9 82 0.2 NA NA 1000.5 NA NA M NA NA NA NA
2019/11/28 19:22:01 AWS3 2.21 144 2.98 134 2.9 82 0.1 NA NA 1000.5 NA NA M NA NA NA NA
2019/11/28 19:23:02 AWS3 2.67 144 2.98 138 2.9 82 0.1 NA NA 1000.5 NA NA M NA NA NA NA
2019/11/28 19:24:01 AWS3 2.56 146 2.98 138 2.9 82 0.1 NA NA 1000.4 NA NA M NA NA NA NA
2019/11/28 19:25:01 AWS3 2.33 146 2.98 138 2.9 82 0.1 NA NA 1000.5 NA NA M NA NA NA NA
2019/11/28 19:26:01 AWS3 2.51 145 3.04 145 3.0 81 0.1 NA NA 1000.5 NA NA M NA NA NA NA
2019/11/28 19:27:01 AWS3 2.74 146 3.09 148 3.0 81 0.1 NA NA 1000.5 NA NA M NA NA NA NA
2019/11/28 19:28:01 AWS3 2.43 148 3.09 148 3.0 81 0.0 NA NA 1000.5 NA NA M NA NA NA NA
2019/11/28 19:29:02 AWS3 2.27 149 3.09 148 3.0 81 -0.1 NA NA 1000.5 NA NA M NA NA NA NA
2019/11/28 19:30:01 AWS3 2.50 147 3.09 148 3.0 81 -0.0 NA NA 1000.5 NA NA M NA NA NA NA
2019/11/28 19:31:01 AWS3 2.78 145 3.14 142 3.0 80 -0.1 NA NA 1000.5 NA NA M NA NA NA NA
2019/11/28 19:32:01 AWS3 2.95 144 3.24 142 3.0 80 -0.1 NA NA 1000.5 NA NA M NA NA NA NA
2019/11/28 19:33:01 AWS3 2.91 143 3.24 142 3.0 80 -0.0 NA NA 1000.4 NA NA M NA NA NA NA
2019/11/28 19:34:02 AWS3 3.02 142 3.40 143 3.1 80 0.0 NA NA 1000.4 NA NA M NA NA NA NA
2019/11/28 19:35:02 AWS3 3.06 143 3.40 143 3.1 80 -0.0 NA NA 1000.3 NA NA M NA NA NA NA
2019/11/28 19:36:01 AWS3 2.91 141 3.40 143 3.1 80 0.0 NA NA 1000.4 NA NA M NA NA NA NA
2019/11/28 19:37:02 AWS3 2.69 141 3.40 143 3.1 80 0.0 NA NA 1000.4 NA NA M NA NA NA NA
2019/11/28 19:38:01 AWS3 2.55 143 3.40 143 3.0 81 0.0 NA NA 1000.4 NA NA M NA NA NA NA
2019/11/28 19:39:01 AWS3 2.41 143 3.40 143 3.0 81 0.1 NA NA 1000.4 NA NA M NA NA NA NA
2019/11/28 19:40:01 AWS3 2.35 139 3.40 143 3.0 81 0.1 NA NA 1000.4 NA NA M NA NA NA NA
2019/11/28 19:41:01 AWS3 2.62 139 3.40 143 3.0 81 0.1 NA NA 1000.4 NA NA M NA NA NA NA
2019/11/28 19:42:02 AWS3 2.68 141 3.40 143 3.1 81 0.2 NA NA 1000.4 NA NA M NA NA NA NA
2019/11/28 19:43:01 AWS3 2.72 140 3.40 143 3.1 81 0.2 NA NA 1000.4 NA NA M NA NA NA NA
2019/11/28 19:44:01 AWS3 2.97 134 3.34 128 3.2 80 0.1 NA NA 1000.3 NA NA M NA NA NA NA
2019/11/28 19:45:01 AWS3 3.05 130 3.45 129 3.2 80 0.2 NA NA 1000.4 NA NA M NA NA NA NA
2019/11/28 19:46:02 AWS3 2.85 134 3.45 129 3.2 80 0.1 NA NA 1000.3 NA NA M NA NA NA NA
2019/11/28 19:47:01 AWS3 2.61 138 3.45 129 3.2 80 0.1 NA NA 1000.3 NA NA M NA NA NA NA
2019/11/28 19:48:01 AWS3 2.63 136 3.45 129 3.2 80 0.1 NA NA 1000.4 NA NA M NA NA NA NA
2019/11/28 19:49:02 AWS3 2.67 135 3.45 129 3.2 81 0.2 NA NA 1000.4 NA NA M NA NA NA NA
2019/11/28 19:50:01 AWS3 2.55 136 3.45 129 3.1 81 0.1 NA NA 1000.3 NA NA M NA NA NA NA
2019/11/28 19:51:02 AWS3 2.48 138 3.45 129 3.1 81 0.2 NA NA 1000.3 NA NA M NA NA NA NA
2019/11/28 19:52:02 AWS3 2.52 142 3.45 129 3.1 81 0.2 NA NA 1000.3 NA NA M NA NA NA NA
2019/11/28 19:53:01 AWS3 2.47 144 3.45 129 3.1 81 0.2 NA NA 1000.3 NA NA M NA NA NA NA
2019/11/28 19:54:02 AWS3 2.60 141 3.45 129 3.2 81 0.2 NA NA 1000.3 NA NA M NA NA NA NA
2019/11/28 19:55:02 AWS3 2.75 142 3.34 136 3.2 81 0.2 NA NA 1000.2 NA NA M NA NA NA NA
2019/11/28 19:56:01 AWS3 2.82 143 3.34 136 3.2 81 0.2 NA NA 1000.3 NA NA M NA NA NA NA
2019/11/28 19:57:01 AWS3 2.94 141 3.34 136 3.3 80 0.2 NA NA 1000.3 NA NA M NA NA NA NA
2019/11/28 19:58:01 AWS3 2.96 139 3.34 136 3.3 80 0.2 NA NA 1000.3 NA NA M NA NA NA NA
2019/11/28 19:59:02 AWS3 2.75 137 3.34 136 3.4 79 0.2 NA NA 1000.2 NA NA M NA NA NA NA
2019/11/28 20:00:02 AWS3 2.50 138 3.34 136 3.5 79 0.2 NA NA 1000.2 NA NA M NA NA NA NA
2019/11/28 20:01:01 AWS3 2.37 142 3.34 136 3.5 78 0.1 NA NA 1000.2 NA NA M NA NA NA NA
2019/11/28 20:02:02 AWS3 2.22 141 3.34 136 3.6 78 0.1 NA NA 1000.3 NA NA M NA NA NA NA
2019/11/28 20:03:02 AWS3 2.22 141 3.34 136 3.7 77 0.1 NA NA 1000.3 NA NA M NA NA NA NA
2019/11/28 20:04:02 AWS3 2.14 146 3.29 130 3.7 77 0.1 NA NA 1000.3 NA NA M NA NA NA NA
2019/11/28 20:05:02 AWS3 2.26 144 3.29 130 3.7 77 0.0 NA NA 1000.4 NA NA M NA NA NA NA
2019/11/28 20:06:01 AWS3 2.49 139 3.19 137 3.7 77 0.1 NA NA 1000.4 NA NA M NA NA NA NA
2019/11/28 20:07:02 AWS3 2.32 136 3.19 137 3.7 77 0.1 NA NA 1000.4 NA NA M NA NA NA NA
2019/11/28 20:08:02 AWS3 1.86 137 2.88 137 3.7 77 0.0 NA NA 1000.4 NA NA M NA NA NA NA
2019/11/28 20:09:02 AWS3 1.79 140 2.88 137 3.7 77 0.1 NA NA 1000.4 NA NA M NA NA NA NA
2019/11/28 20:10:02 AWS3 1.99 141 2.73 138 3.8 77 0.1 NA NA 1000.4 NA NA M NA NA NA NA
2019/11/28 20:11:04 AWS3 1.84 141 2.73 138 3.8 77 0.1 NA NA 1000.3 NA NA M NA NA NA NA
2019/11/28 20:12:02 AWS3 1.72 143 2.73 138 3.8 77 0.2 NA NA 1000.2 NA NA M NA NA NA NA
2019/11/28 20:13:02 AWS3 1.77 146 2.73 138 3.8 77 0.2 NA NA 1000.3 NA NA M NA NA NA NA
2019/11/28 20:14:01 AWS3 1.68 144 2.73 138 3.8 77 0.2 NA NA 1000.3 NA NA M NA NA NA NA
2019/11/28 20:15:01 AWS3 1.93 135 2.73 138 3.8 77 0.2 NA NA 1000.3 NA NA M NA NA NA NA
2019/11/28 20:16:01 AWS3 1.88 135 2.52 133 3.8 77 0.1 NA NA 1000.3 NA NA M NA NA NA NA
2019/11/28 20:17:01 AWS3 1.59 144 2.52 133 3.8 77 0.1 NA NA 1000.2 NA NA M NA NA NA NA
2019/11/28 20:18:02 AWS3 1.86 141 2.52 133 3.8 77 0.1 NA NA 1000.3 NA NA M NA NA NA NA
2019/11/28 20:19:02 AWS3 1.95 134 2.52 133 3.9 76 0.1 NA NA 1000.3 NA NA M NA NA NA NA
2019/11/28 20:20:01 AWS3 1.92 139 2.52 133 4.0 75 0.1 NA NA 1000.3 NA NA M NA NA NA NA
2019/11/28 20:21:01 AWS3 1.86 142 2.52 133 4.1 75 0.0 NA NA 1000.3 NA NA M NA NA NA NA
2019/11/28 20:22:01 AWS3 1.99 141 2.52 133 4.2 74 -0.0 NA NA 1000.3 NA NA M NA NA NA NA
2019/11/28 20:23:02 AWS3 2.19 143 2.52 141 4.3 73 -0.0 NA NA 1000.2 NA NA M NA NA NA NA
2019/11/28 20:24:01 AWS3 2.23 146 2.52 142 4.3 73 -0.1 NA NA 1000.3 NA NA M NA NA NA NA
2019/11/28 20:25:01 AWS3 2.09 144 2.52 142 4.2 73 -0.1 NA NA 1000.2 NA NA M NA NA NA NA
2019/11/28 20:26:02 AWS3 1.98 140 2.52 137 4.2 73 -0.1 NA NA 1000.1 NA NA M NA NA NA NA
2019/11/28 20:27:01 AWS3 2.05 143 2.52 137 4.1 73 -0.2 NA NA 1000.2 NA NA M NA NA NA NA
2019/11/28 20:28:02 AWS3 2.10 143 2.52 137 4.1 74 -0.2 NA NA 1000.3 NA NA M NA NA NA NA
2019/11/28 20:29:02 AWS3 2.25 141 2.57 145 4.1 74 -0.2 NA NA 1000.2 NA NA M NA NA NA NA
2019/11/28 20:30:02 AWS3 2.32 140 2.57 145 4.1 74 -0.2 NA NA 1000.3 NA NA M NA NA NA NA
2019/11/28 20:31:01 AWS3 2.19 140 2.57 145 4.1 74 -0.1 NA NA 1000.2 NA NA M NA NA NA NA
2019/11/28 20:32:01 AWS3 2.15 141 2.57 145 4.1 74 -0.1 NA NA 1000.2 NA NA M NA NA NA NA
2019/11/28 20:33:02 AWS3 2.26 140 2.57 137 4.2 74 -0.1 NA NA 1000.3 NA NA M NA NA NA NA
2019/11/28 20:34:02 AWS3 2.44 138 2.83 131 4.2 74 -0.0 NA NA 1000.3 NA NA M NA NA NA NA
2019/11/28 20:35:01 AWS3 2.50 142 2.83 131 4.2 74 -0.1 NA NA 1000.3 NA NA M NA NA NA NA
2019/11/28 20:36:01 AWS3 2.31 147 2.83 131 4.2 74 -0.1 NA NA 1000.2 NA NA M NA NA NA NA
2019/11/28 20:37:01 AWS3 1.88 143 2.83 131 4.1 74 -0.1 NA NA 1000.2 NA NA M NA NA NA NA
2019/11/28 20:38:01 AWS3 1.95 136 2.83 131 4.0 75 -0.1 NA NA 1000.3 NA NA M NA NA NA NA
2019/11/28 20:39:01 AWS3 2.42 132 3.19 129 4.0 75 -0.1 NA NA 1000.2 NA NA M NA NA NA NA
2019/11/28 20:40:01 AWS3 2.50 135 3.19 129 3.9 76 -0.0 NA NA 1000.2 NA NA M NA NA NA NA
2019/11/28 20:41:01 AWS3 2.45 135 3.19 129 3.9 76 0.0 NA NA 1000.2 NA NA M NA NA NA NA
2019/11/28 20:42:01 AWS3 2.56 128 3.19 129 3.9 76 0.0 NA NA 1000.2 NA NA M NA NA NA NA
2019/11/28 20:43:01 AWS3 2.48 128 3.19 129 3.9 76 0.0 NA NA 1000.2 NA NA M NA NA NA NA
2019/11/28 20:44:01 AWS3 2.42 132 3.19 129 3.9 76 -0.0 NA NA 1000.2 NA NA M NA NA NA NA
2019/11/28 20:45:01 AWS3 2.43 130 3.19 129 3.9 75 -0.1 NA NA 1000.2 NA NA M NA NA NA NA
2019/11/28 20:46:01 AWS3 2.11 130 3.19 129 3.9 75 -0.1 NA NA 1000.2 NA NA M NA NA NA NA
2019/11/28 20:47:02 AWS3 2.02 138 3.19 129 4.0 75 -0.1 NA NA 1000.2 NA NA M NA NA NA NA
2019/11/28 20:48:01 AWS3 2.24 140 3.19 129 4.0 75 -0.1 NA NA 1000.2 NA NA M NA NA NA NA
2019/11/28 20:49:02 AWS3 2.34 140 2.98 122 4.0 75 -0.1 NA NA 1000.2 NA NA M NA NA NA NA
2019/11/28 20:50:01 AWS3 2.39 142 2.98 122 4.0 75 -0.1 NA NA 1000.2 NA NA M NA NA NA NA
2019/11/28 20:51:01 AWS3 2.34 144 2.98 122 3.9 75 -0.1 NA NA 1000.2 NA NA M NA NA NA NA
2019/11/28 20:52:01 AWS3 2.35 142 2.78 132 3.9 75 -0.1 NA NA 1000.1 NA NA M NA NA NA NA
2019/11/28 20:53:01 AWS3 2.47 137 2.93 137 4.0 74 -0.2 NA NA 1000.1 NA NA M NA NA NA NA
2019/11/28 20:54:02 AWS3 2.56 138 2.93 137 4.0 73 -0.3 NA NA 1000.1 NA NA M NA NA NA NA
2019/11/28 20:55:01 AWS3 2.69 142 3.19 141 4.1 73 -0.4 NA NA 1000.1 NA NA M NA NA NA NA
2019/11/28 20:56:01 AWS3 2.68 145 3.19 141 4.1 72 -0.5 NA NA 1000.1 NA NA M NA NA NA NA
2019/11/28 20:57:02 AWS3 2.58 142 3.19 141 4.1 72 -0.5 NA NA 1000.1 NA NA M NA NA NA NA
2019/11/28 20:58:01 AWS3 2.70 139 3.19 141 4.1 72 -0.6 NA NA 1000.1 NA NA M NA NA NA NA
2019/11/28 20:59:01 AWS3 2.76 139 3.19 141 4.1 72 -0.5 NA NA 1000.0 NA NA M NA NA NA NA
2019/11/28 21:00:01 AWS3 2.82 139 3.24 137 4.1 72 -0.5 NA NA 1000.1 NA NA M NA NA NA NA
2019/11/28 21:01:02 AWS3 3.00 140 3.34 146 4.1 72 -0.5 NA NA 1000.0 NA NA M NA NA NA NA
2019/11/28 21:02:02 AWS3 3.00 143 3.34 146 4.2 71 -0.6 NA NA 1000.0 NA NA M NA NA NA NA
2019/11/28 21:03:02 AWS3 3.00 144 3.34 143 4.2 71 -0.6 NA NA 1000.0 NA NA M NA NA NA NA
2019/11/28 21:04:02 AWS3 2.95 146 3.34 143 4.2 70 -0.7 NA NA 1000.0 NA NA M NA NA NA NA
2019/11/28 21:05:02 AWS3 2.76 144 3.34 143 4.2 70 -0.7 NA NA 1000.0 NA NA M NA NA NA NA
2019/11/28 21:06:02 AWS3 2.72 143 3.34 143 4.2 70 -0.7 NA NA 1000.0 NA NA M NA NA NA NA
2019/11/28 21:07:02 AWS3 2.74 143 3.34 143 4.2 71 -0.7 NA NA 1000.0 NA NA M NA NA NA NA
2019/11/28 21:08:01 AWS3 2.75 142 3.34 143 4.2 71 -0.7 NA NA 1000.0 NA NA M NA NA NA NA
2019/11/28 21:09:01 AWS3 2.70 143 3.34 143 4.2 71 -0.7 NA NA 1000.0 NA NA M NA NA NA NA
2019/11/28 21:10:01 AWS3 2.63 141 3.34 143 4.2 71 -0.7 NA NA 999.9 NA NA M NA NA NA NA
2019/11/28 21:11:02 AWS3 2.86 138 3.34 143 4.2 70 -0.7 NA NA 1000.0 NA NA M NA NA NA NA
2019/11/28 21:12:01 AWS3 3.15 136 3.45 135 4.2 70 -0.8 NA NA 999.9 NA NA M NA NA NA NA
2019/11/28 21:13:01 AWS3 3.06 135 3.45 135 4.3 68 -1.0 NA NA 999.9 NA NA M NA NA NA NA
2019/11/28 21:14:01 AWS3 2.73 134 3.45 135 4.5 67 -1.1 NA NA 999.9 NA NA M NA NA NA NA
2019/11/28 21:15:02 AWS3 2.57 134 3.45 135 4.6 66 -1.2 NA NA 999.9 NA NA M NA NA NA NA
2019/11/28 21:16:01 AWS3 2.51 133 3.45 135 4.6 66 -1.2 NA NA 999.9 NA NA M NA NA NA NA
2019/11/28 21:17:01 AWS3 2.60 133 3.45 135 4.6 66 -1.2 NA NA 999.9 NA NA M NA NA NA NA
2019/11/28 21:18:01 AWS3 2.68 131 3.45 135 4.5 67 -1.2 NA NA 999.9 NA NA M NA NA NA NA
2019/11/28 21:19:02 AWS3 2.41 127 3.45 135 4.4 67 -1.1 NA NA 999.9 NA NA M NA NA NA NA
2019/11/28 21:20:01 AWS3 1.57 118 3.45 135 4.3 68 -1.0 NA NA 999.9 NA NA M NA NA NA NA
2019/11/28 21:21:02 AWS3 1.58 117 3.45 135 4.3 69 -0.9 NA NA 999.9 NA NA M NA NA NA NA
2019/11/28 21:22:01 AWS3 2.34 126 3.29 132 4.2 70 -0.8 NA NA 999.9 NA NA M NA NA NA NA
2019/11/28 21:23:01 AWS3 2.55 131 3.04 137 4.1 71 -0.7 NA NA 999.9 NA NA M NA NA NA NA
2019/11/28 21:24:01 AWS3 2.56 133 2.98 135 4.0 72 -0.6 NA NA 999.9 NA NA M NA NA NA NA
2019/11/28 21:25:01 AWS3 2.60 132 2.98 135 3.9 73 -0.6 NA NA 999.8 NA NA M NA NA NA NA
2019/11/28 21:26:02 AWS3 2.74 130 2.98 127 3.7 74 -0.5 NA NA 999.9 NA NA M NA NA NA NA
2019/11/28 21:27:03 AWS3 2.74 132 2.98 127 3.7 74 -0.6 NA NA 999.9 NA NA M NA NA NA NA
2019/11/28 21:28:01 AWS3 2.69 136 2.98 127 3.6 74 -0.6 NA NA 999.8 NA NA M NA NA NA NA
2019/11/28 21:29:02 AWS3 2.61 137 2.98 127 3.6 74 -0.6 NA NA 999.8 NA NA M NA NA NA NA
2019/11/28 21:30:02 AWS3 2.58 138 2.98 127 3.6 73 -0.7 NA NA 999.8 NA NA M NA NA NA NA
2019/11/28 21:31:01 AWS3 2.57 140 2.98 127 3.6 73 -0.7 NA NA 999.7 NA NA M NA NA NA NA
2019/11/28 21:32:02 AWS3 2.47 138 2.98 127 3.7 73 -0.7 NA NA 999.8 NA NA M NA NA NA NA
2019/11/28 21:33:01 AWS3 2.36 138 2.98 127 3.7 73 -0.7 NA NA 999.8 NA NA M NA NA NA NA
2019/11/28 21:34:01 AWS3 2.36 141 2.98 127 3.8 72 -0.7 NA NA 999.8 NA NA M NA NA NA NA
2019/11/28 21:35:01 AWS3 2.36 144 2.98 127 3.8 72 -0.7 NA NA 999.8 NA NA M NA NA NA NA
2019/11/28 21:36:02 AWS3 2.29 144 2.88 141 3.9 72 -0.7 NA NA 999.8 NA NA M NA NA NA NA
2019/11/28 21:37:02 AWS3 2.11 142 2.88 141 3.9 72 -0.7 NA NA 999.8 NA NA M NA NA NA NA
2019/11/28 21:38:02 AWS3 2.09 141 2.88 141 4.0 71 -0.8 NA NA 999.8 NA NA M NA NA NA NA
2019/11/28 21:39:01 AWS3 1.82 153 2.88 141 4.1 71 -0.8 NA NA 999.8 NA NA M NA NA NA NA
2019/11/28 21:40:02 AWS3 1.59 154 2.88 141 4.1 71 -0.8 NA NA 999.8 NA NA M NA NA NA NA
2019/11/28 21:41:01 AWS3 1.89 141 2.88 141 4.1 70 -0.8 NA NA 999.8 NA NA M NA NA NA NA
2019/11/28 21:42:01 AWS3 2.06 145 2.88 141 4.2 70 -0.8 NA NA 999.7 NA NA M NA NA NA NA
2019/11/28 21:43:02 AWS3 1.44 157 2.88 141 4.1 71 -0.7 NA NA 999.8 NA NA M NA NA NA NA
2019/11/28 21:44:02 AWS3 1.17 163 2.68 145 4.0 71 -0.7 NA NA 999.7 NA NA M NA NA NA NA
2019/11/28 21:45:01 AWS3 1.82 154 2.68 145 3.9 72 -0.7 NA NA 999.7 NA NA M NA NA NA NA
2019/11/28 21:46:02 AWS3 1.94 145 2.68 145 3.9 72 -0.6 NA NA 999.6 NA NA M NA NA NA NA
2019/11/28 21:47:01 AWS3 1.71 148 2.68 145 3.9 72 -0.6 NA NA 999.7 NA NA M NA NA NA NA
2019/11/28 21:48:01 AWS3 0.90 151 2.52 155 3.8 73 -0.6 NA NA 999.7 NA NA M NA NA NA NA
2019/11/28 21:49:01 AWS3 1.01 148 2.52 155 3.8 73 -0.6 NA NA 999.6 NA NA M NA NA NA NA
2019/11/28 21:50:02 AWS3 1.80 150 2.52 155 3.8 73 -0.5 NA NA 999.7 NA NA M NA NA NA NA
2019/11/28 21:51:01 AWS3 1.87 151 2.52 155 3.8 73 -0.5 NA NA 999.7 NA NA M NA NA NA NA
2019/11/28 21:52:01 AWS3 1.77 149 2.52 155 3.8 74 -0.5 NA NA 999.8 NA NA M NA NA NA NA
2019/11/28 21:53:02 AWS3 1.69 145 2.52 155 3.8 74 -0.4 NA NA 999.7 NA NA M NA NA NA NA
2019/11/28 21:54:02 AWS3 1.74 141 2.42 150 3.8 74 -0.4 NA NA 999.7 NA NA M NA NA NA NA
2019/11/28 21:55:02 AWS3 1.75 145 2.42 150 3.8 74 -0.4 NA NA 999.7 NA NA M NA NA NA NA
2019/11/28 21:56:02 AWS3 1.65 148 2.42 150 3.9 74 -0.3 NA NA 999.7 NA NA M NA NA NA NA
2019/11/28 21:57:01 AWS3 1.46 148 2.42 150 3.8 74 -0.4 NA NA 999.7 NA NA M NA NA NA NA
2019/11/28 21:58:02 AWS3 1.17 143 2.42 150 3.8 74 -0.4 NA NA 999.7 NA NA M NA NA NA NA
2019/11/28 21:59:02 AWS3 1.35 143 2.42 150 3.8 74 -0.4 NA NA 999.8 NA NA M NA NA NA NA
2019/11/28 22:00:01 AWS3 1.98 143 2.42 150 3.7 74 -0.4 NA NA 999.5 NA NA M NA NA NA NA
2019/11/28 22:01:02 AWS3 2.15 141 2.68 141 3.7 75 -0.4 NA NA 999.7 NA NA M NA NA NA NA
2019/11/28 22:02:01 AWS3 2.37 142 2.78 143 3.7 75 -0.3 NA NA 999.5 NA NA M NA NA NA NA
2019/11/28 22:03:01 AWS3 2.39 143 2.78 143 3.7 75 -0.3 NA NA 999.6 NA NA M NA NA NA NA
2019/11/28 22:04:02 AWS3 2.14 146 2.78 143 3.6 75 -0.3 NA NA 999.7 NA NA M NA NA NA NA
2019/11/28 22:05:02 AWS3 2.07 155 2.78 143 3.6 75 -0.3 NA NA 999.7 NA NA M NA NA NA NA
2019/11/28 22:06:01 AWS3 1.84 155 2.78 143 3.7 75 -0.4 NA NA 999.6 NA NA M NA NA NA NA
2019/11/28 22:07:01 AWS3 1.52 148 2.78 143 3.8 74 -0.4 NA NA 999.6 NA NA M NA NA NA NA
2019/11/28 22:08:01 AWS3 1.74 151 2.78 143 3.8 74 -0.4 NA NA 999.6 NA NA M NA NA NA NA
2019/11/28 22:09:02 AWS3 2.10 157 2.78 143 3.9 73 -0.5 NA NA 999.8 NA NA M NA NA NA NA
2019/11/28 22:10:01 AWS3 2.05 156 2.78 143 4.0 72 -0.5 NA NA 999.6 NA NA M NA NA NA NA
2019/11/28 22:11:02 AWS3 1.63 145 2.78 143 4.0 72 -0.5 NA NA 999.7 NA NA M NA NA NA NA
2019/11/28 22:12:01 AWS3 1.47 141 2.68 160 4.0 72 -0.5 NA NA 999.6 NA NA M NA NA NA NA
2019/11/28 22:13:01 AWS3 1.71 136 2.68 160 4.0 72 -0.5 NA NA 999.7 NA NA M NA NA NA NA
2019/11/28 22:14:01 AWS3 1.85 129 2.68 160 4.0 73 -0.5 NA NA 999.5 NA NA M NA NA NA NA
2019/11/28 22:15:01 AWS3 1.71 136 2.57 156 4.0 73 -0.5 NA NA 999.7 NA NA M NA NA NA NA
2019/11/28 22:16:01 AWS3 1.33 144 2.57 156 4.0 73 -0.5 NA NA 999.7 NA NA M NA NA NA NA
2019/11/28 22:17:01 AWS3 1.36 142 2.57 156 4.0 73 -0.5 NA NA 999.7 NA NA M NA NA NA NA
2019/11/28 22:18:01 AWS3 0.85 142 2.57 156 4.0 73 -0.4 NA NA 999.7 NA NA M NA NA NA NA
2019/11/28 22:19:02 AWS3 0.63 148 2.31 149 4.0 72 -0.5 NA NA 999.6 NA NA M NA NA NA NA
2019/11/28 22:20:01 AWS3 1.18 148 2.11 124 4.0 73 -0.5 NA NA 999.7 NA NA M NA NA NA NA
2019/11/28 22:21:01 AWS3 1.01 138 2.11 124 4.0 73 -0.4 NA NA 999.7 NA NA M NA NA NA NA
2019/11/28 22:22:01 AWS3 1.07 131 2.11 124 4.0 73 -0.4 NA NA 999.7 NA NA M NA NA NA NA
2019/11/28 22:23:01 AWS3 1.48 131 2.11 124 4.0 73 -0.4 NA NA 999.6 NA NA M NA NA NA NA
2019/11/28 22:24:01 AWS3 1.38 135 2.01 143 3.9 74 -0.4 NA NA 999.6 NA NA M NA NA NA NA
2019/11/28 22:25:02 AWS3 1.35 137 2.01 143 3.9 74 -0.4 NA NA 999.6 NA NA M NA NA NA NA
2019/11/28 22:26:02 AWS3 1.55 135 2.01 143 3.8 74 -0.4 NA NA 999.5 NA NA M NA NA NA NA
2019/11/28 22:27:02 AWS3 1.57 137 2.06 145 3.8 74 -0.4 NA NA 999.5 NA NA M NA NA NA NA
2019/11/28 22:28:01 AWS3 1.58 141 2.06 145 3.8 75 -0.3 NA NA 999.7 NA NA M NA NA NA NA
2019/11/28 22:29:02 AWS3 1.67 146 2.06 145 3.8 75 -0.3 NA NA 999.7 NA NA M NA NA NA NA
2019/11/28 22:30:02 AWS3 1.80 149 2.06 145 3.8 75 -0.3 NA NA 999.7 NA NA M NA NA NA NA
2019/11/28 22:31:02 AWS3 1.75 151 2.06 145 3.9 74 -0.4 NA NA 999.7 NA NA M NA NA NA NA
2019/11/28 22:32:02 AWS3 1.66 151 2.06 145 3.9 73 -0.4 NA NA 999.6 NA NA M NA NA NA NA
2019/11/28 22:33:01 AWS3 1.63 148 2.06 145 4.0 73 -0.5 NA NA 999.7 NA NA M NA NA NA NA
2019/11/28 22:34:02 AWS3 1.13 145 2.06 145 4.0 72 -0.5 NA NA 999.7 NA NA M NA NA NA NA
2019/11/28 22:35:01 AWS3 1.22 150 2.21 158 4.0 72 -0.6 NA NA 999.7 NA NA M NA NA NA NA
2019/11/28 22:36:01 AWS3 1.92 159 2.37 162 4.0 72 -0.6 NA NA 999.7 NA NA M NA NA NA NA
2019/11/28 22:37:02 AWS3 2.06 166 2.62 166 3.9 72 -0.6 NA NA 999.7 NA NA M NA NA NA NA
2019/11/28 22:38:02 AWS3 2.20 172 2.62 166 3.9 73 -0.6 NA NA 999.7 NA NA M NA NA NA NA
2019/11/28 22:39:02 AWS3 2.37 174 2.73 174 3.9 72 -0.6 NA NA 999.6 NA NA M NA NA NA NA
2019/11/28 22:40:02 AWS3 2.16 174 2.73 174 4.0 72 -0.6 NA NA 999.7 NA NA M NA NA NA NA
2019/11/28 22:41:02 AWS3 1.89 168 2.73 174 4.1 71 -0.7 NA NA 999.6 NA NA M NA NA NA NA
2019/11/28 22:42:02 AWS3 1.75 153 2.73 174 4.2 70 -0.7 NA NA 999.6 NA NA M NA NA NA NA
2019/11/28 22:43:02 AWS3 1.36 152 2.73 174 4.3 70 -0.7 NA NA 999.5 NA NA M NA NA NA NA
2019/11/28 22:44:02 AWS3 0.60 174 2.73 174 4.3 70 -0.7 NA NA 999.7 NA NA M NA NA NA NA
2019/11/28 22:45:02 AWS3 0.05 186 2.73 174 4.2 70 -0.7 NA NA 999.6 NA NA M NA NA NA NA
2019/11/28 22:46:02 AWS3 0.30 168 2.73 174 4.1 71 -0.6 NA NA 999.7 NA NA M NA NA NA NA
2019/11/28 22:47:02 AWS3 1.03 148 2.73 174 4.1 71 -0.7 NA NA 999.6 NA NA M NA NA NA NA
2019/11/28 22:48:01 AWS3 1.49 147 2.73 174 4.1 71 -0.7 NA NA 999.7 NA NA M NA NA NA NA
2019/11/28 22:49:02 AWS3 1.29 151 2.31 179 4.1 71 -0.7 NA NA 999.6 NA NA M NA NA NA NA
2019/11/28 22:50:01 AWS3 1.25 152 2.11 166 4.2 71 -0.6 NA NA 999.7 NA NA M NA NA NA NA
2019/11/28 22:51:02 AWS3 1.49 150 1.75 147 4.2 71 -0.7 NA NA 999.7 NA NA M NA NA NA NA
2019/11/28 22:52:01 AWS3 1.62 148 1.85 147 4.2 71 -0.7 NA NA 999.6 NA NA M NA NA NA NA
2019/11/28 22:53:01 AWS3 1.65 150 1.85 147 4.1 71 -0.7 NA NA 999.6 NA NA M NA NA NA NA
2019/11/28 22:54:01 AWS3 1.52 154 1.85 153 4.1 71 -0.6 NA NA 999.6 NA NA M NA NA NA NA
2019/11/28 22:55:01 AWS3 1.35 159 1.85 153 4.0 72 -0.7 NA NA 999.7 NA NA M NA NA NA NA
2019/11/28 22:56:02 AWS3 1.34 171 1.85 153 4.0 72 -0.6 NA NA 999.5 NA NA M NA NA NA NA
2019/11/28 22:57:01 AWS3 0.95 181 1.85 153 3.9 72 -0.6 NA NA 999.7 NA NA M NA NA NA NA
2019/11/28 22:58:01 AWS3 0.41 183 1.85 153 3.9 73 -0.6 NA NA 999.7 NA NA M NA NA NA NA
2019/11/28 22:59:01 AWS3 0.69 180 1.85 153 3.9 73 -0.6 NA NA 999.7 NA NA M NA NA NA NA
2019/11/28 23:00:01 AWS3 0.93 178 1.85 153 3.9 73 -0.6 NA NA 999.6 NA NA M NA NA NA NA
2019/11/28 23:01:01 AWS3 0.99 179 1.85 153 3.9 72 -0.6 NA NA 999.7 NA NA M NA NA NA NA
2019/11/28 23:02:01 AWS3 0.86 183 1.85 153 4.0 72 -0.6 NA NA 999.7 NA NA M NA NA NA NA
2019/11/28 23:03:01 AWS3 0.32 211 1.85 153 4.0 72 -0.6 NA NA 999.7 NA NA M NA NA NA NA
2019/11/28 23:04:02 AWS3 0.10 232 1.70 158 4.0 72 -0.6 NA NA 999.7 NA NA M NA NA NA NA
2019/11/28 23:05:02 AWS3 0.05 208 1.65 175 3.9 73 -0.5 NA NA 999.6 NA NA M NA NA NA NA
2019/11/28 23:06:01 AWS3 0.00 195 1.65 175 3.8 73 -0.5 NA NA 999.5 NA NA M NA NA NA NA
2019/11/28 23:07:02 AWS3 0.21 211 1.65 175 3.7 74 -0.5 NA NA 999.5 NA NA M NA NA NA NA
2019/11/28 23:08:01 AWS3 0.26 221 1.65 175 3.6 75 -0.5 NA NA 999.6 NA NA M NA NA NA NA
2019/11/28 23:09:01 AWS3 0.21 220 1.39 175 3.5 75 -0.4 NA NA 999.5 NA NA M NA NA NA NA
2019/11/28 23:10:02 AWS3 0.70 221 1.90 222 3.4 76 -0.4 NA NA 999.5 NA NA M NA NA NA NA
2019/11/28 23:11:03 AWS3 1.39 226 2.01 227 3.3 77 -0.4 NA NA 999.5 NA NA M NA NA NA NA
2019/11/28 23:12:01 AWS3 1.76 231 2.11 228 3.1 78 -0.4 NA NA 999.6 NA NA M NA NA NA NA
2019/11/28 23:13:01 AWS3 1.89 233 2.11 229 2.9 78 -0.5 NA NA 999.6 NA NA M NA NA NA NA
2019/11/28 23:14:02 AWS3 2.23 232 3.19 226 2.7 79 -0.6 NA NA 999.5 NA NA M NA NA NA NA
2019/11/28 23:15:01 AWS3 2.41 234 3.19 226 2.5 80 -0.7 NA NA 999.6 NA NA M NA NA NA NA
2019/11/28 23:16:02 AWS3 2.25 239 3.19 226 2.3 81 -0.7 NA NA 999.6 NA NA M NA NA NA NA
2019/11/28 23:17:01 AWS3 2.10 238 3.19 226 2.2 81 -0.7 NA NA 999.6 NA NA M NA NA NA NA
2019/11/28 23:18:01 AWS3 1.88 236 3.19 226 2.1 82 -0.7 NA NA 999.5 NA NA M NA NA NA NA
2019/11/28 23:19:02 AWS3 2.29 239 3.19 226 2.0 82 -0.6 NA NA 999.6 NA NA M NA NA NA NA
2019/11/28 23:20:02 AWS3 2.63 238 3.19 226 2.0 83 -0.6 NA NA 999.6 NA NA M NA NA NA NA
2019/11/28 23:21:01 AWS3 2.16 236 3.19 226 1.9 83 -0.6 NA NA 999.6 NA NA M NA NA NA NA
2019/11/28 23:22:01 AWS3 2.11 238 3.19 226 1.9 84 -0.5 NA NA 999.6 NA NA M NA NA NA NA
2019/11/28 23:23:02 AWS3 2.38 233 3.19 226 1.9 84 -0.5 NA NA 999.6 NA NA M NA NA NA NA
2019/11/28 23:24:01 AWS3 1.67 224 3.04 236 1.9 84 -0.5 NA NA 999.6 NA NA M NA NA NA NA
2019/11/28 23:25:01 AWS3 0.90 220 3.04 236 1.9 84 -0.5 NA NA 999.6 NA NA M NA NA NA NA
2019/11/28 23:26:02 AWS3 1.36 219 3.04 236 1.9 84 -0.5 NA NA 999.5 NA NA M NA NA NA NA
2019/11/28 23:27:02 AWS3 1.84 222 3.04 236 1.9 84 -0.5 NA NA 999.6 NA NA M NA NA NA NA
2019/11/28 23:28:02 AWS3 1.94 220 3.04 236 1.9 84 -0.5 NA NA 999.5 NA NA M NA NA NA NA
2019/11/28 23:29:02 AWS3 2.23 223 2.98 241 1.9 84 -0.5 NA NA 999.4 NA NA M NA NA NA NA
2019/11/28 23:30:01 AWS3 2.57 232 3.24 241 1.9 84 -0.5 NA NA 999.6 NA NA M NA NA NA NA
2019/11/28 23:31:01 AWS3 2.60 232 3.24 241 1.9 84 -0.5 NA NA 999.6 NA NA M NA NA NA NA
2019/11/28 23:32:00 AWS3 2.56 231 3.40 239 1.9 84 -0.5 NA NA 999.4 NA NA M NA NA NA NA
2019/11/28 23:33:01 AWS3 2.99 232 3.65 230 1.9 84 -0.5 NA NA 999.5 NA NA M NA NA NA NA
2019/11/28 23:34:01 AWS3 2.78 230 3.65 230 1.8 85 -0.5 NA NA 999.5 NA NA M NA NA NA NA
2019/11/28 23:35:01 AWS3 2.26 227 3.65 230 1.8 85 -0.4 NA NA 999.5 NA NA M NA NA NA NA
2019/11/28 23:36:01 AWS3 2.40 227 3.65 230 1.9 85 -0.4 NA NA 999.5 NA NA M NA NA NA NA
2019/11/28 23:37:01 AWS3 2.45 230 3.65 230 1.8 85 -0.5 NA NA 999.6 NA NA M NA NA NA NA
2019/11/28 23:38:01 AWS3 1.94 228 3.65 230 1.8 85 -0.4 NA NA 999.5 NA NA M NA NA NA NA
2019/11/28 23:39:01 AWS3 1.89 225 3.65 230 1.9 85 -0.4 NA NA 999.4 NA NA M NA NA NA NA
2019/11/28 23:40:01 AWS3 2.27 229 3.65 230 2.0 84 -0.4 NA NA 999.4 NA NA M NA NA NA NA
2019/11/28 23:41:01 AWS3 1.61 230 3.65 230 2.0 84 -0.4 NA NA 999.6 NA NA M NA NA NA NA
2019/11/28 23:42:01 AWS3 0.58 220 3.65 230 2.2 84 -0.3 NA NA 999.6 NA NA M NA NA NA NA
2019/11/28 23:43:01 AWS3 0.10 217 3.24 236 2.3 83 -0.3 NA NA 999.4 NA NA M NA NA NA NA
2019/11/28 23:44:01 AWS3 0.40 226 3.24 236 2.5 82 -0.3 NA NA 999.4 NA NA M NA NA NA NA
2019/11/28 23:45:01 AWS3 0.55 234 3.24 236 2.6 81 -0.3 NA NA 999.5 NA NA M NA NA NA NA
2019/11/28 23:46:01 AWS3 0.14 241 2.88 233 2.8 80 -0.3 NA NA 999.3 NA NA M NA NA NA NA
2019/11/28 23:47:02 AWS3 0.00 242 2.88 233 2.9 79 -0.4 NA NA 999.5 NA NA M NA NA NA NA
2019/11/28 23:48:02 AWS3 0.41 237 2.88 233 2.9 79 -0.4 NA NA 999.4 NA NA M NA NA NA NA
2019/11/28 23:49:02 AWS3 0.41 237 2.88 233 2.9 79 -0.5 NA NA 999.5 NA NA M NA NA NA NA
2019/11/28 23:50:02 AWS3 0.27 239 1.70 233 2.8 79 -0.5 NA NA 999.5 NA NA M NA NA NA NA
2019/11/28 23:51:02 AWS3 1.39 241 2.62 236 2.8 79 -0.5 NA NA 999.3 NA NA M NA NA NA NA
2019/11/28 23:52:02 AWS3 1.51 242 2.62 236 2.7 79 -0.5 NA NA 999.5 NA NA M NA NA NA NA
2019/11/28 23:53:01 AWS3 0.78 244 2.62 236 2.6 80 -0.5 NA NA 999.4 NA NA M NA NA NA NA
2019/11/28 23:54:01 AWS3 1.58 245 2.88 239 2.5 81 -0.5 NA NA 999.2 NA NA M NA NA NA NA
2019/11/28 23:55:01 AWS3 2.27 245 2.98 243 2.4 81 -0.5 NA NA 999.4 NA NA M NA NA NA NA
2019/11/28 23:56:01 AWS3 1.23 243 2.98 243 2.3 82 -0.4 NA NA 999.5 NA NA M NA NA NA NA
2019/11/28 23:57:02 AWS3 0.13 237 2.98 243 2.4 82 -0.4 NA NA 999.5 NA NA M NA NA NA NA
2019/11/28 23:58:01 AWS3 0.00 232 2.98 243 2.4 82 -0.3 NA NA 999.4 NA NA M NA NA NA NA
2019/11/28 23:59:03 AWS3 0.77 236 2.98 243 2.6 81 -0.3 NA NA 999.3 NA NA M NA NA NA NA